Date StartTime U_cm/s V_cm/s W_cm/s Ustd_cm/s Vstd_cm/s Wstd_cm/s Uvar_(cm/s)^2 Vvar_(cm/s)^2 Wvar_(cm/s)^2 KE_(m/s)^2 TurbulentKE_(m/s)^2 HorizWindSpeed_cm/s FrictionSpeec_cm/s DragCoef SpeedOfSound_m/s SonicTemperature_C Pressure_mb 
04/22/2014  00:00:00      171.014       71.715       34.642       60.486       53.080       49.821     3658.499     2817.479     2482.151        2.227        0.448      185.442       34.853        0.035      339.825       13.422      856.760
04/22/2014  00:01:00       81.270       29.543        6.447       45.254       44.665       30.301     2047.911     1994.936      918.180        0.624        0.248       86.474       22.399        0.067      339.781       13.350      856.690
04/22/2014  00:02:00       24.884       40.136       57.937       26.841       33.781       19.011      720.415     1141.125      361.429        0.390        0.111       47.224       19.447        0.170      339.811       13.400      856.663
04/22/2014  00:03:00        4.582      -26.241       23.386       19.344       38.443       26.538      374.196     1477.887      704.289        0.191        0.128       26.638       27.847        1.093      339.923       13.588      856.642
04/22/2014  00:04:00      -50.069      -18.976        6.079       51.921       33.563       19.830     2695.759     1126.454      393.233        0.356        0.211       53.544       23.901        0.199      339.953       13.639      856.639
04/22/2014  00:05:00       10.007        9.303        5.857       23.136       28.129       19.632      535.295      791.219      385.399        0.097        0.086       13.663       11.232        0.676      339.955       13.642      856.632
04/22/2014  00:06:00       21.940       59.413       54.504       25.560       30.956       30.519      653.322      958.247      931.423        0.476        0.127       63.335       21.234        0.112      339.654       13.135      856.618
04/22/2014  00:07:00       33.135       65.994       72.262       43.757       40.288       28.814     1914.659     1623.147      830.227        0.752        0.218       73.846       21.983        0.089      339.587       13.022      856.583
04/22/2014  00:08:00       40.232      201.156      -24.611       39.832       46.487       32.432     1586.573     2161.006     1051.866        2.374        0.240      205.140       13.556        0.004      339.857       13.477      856.492
04/22/2014  00:09:00      102.608       78.199       -4.217       52.068       40.363       27.728     2711.101     1629.199      768.858        1.088        0.255      129.010       20.830        0.026      339.812       13.403      856.459
04/22/2014  00:10:00      -11.844      -14.933        1.142       85.267       68.536       39.091     7270.398     4697.156     1528.074        0.693        0.675       19.060       30.286        2.525      340.006       13.731      856.431
04/22/2014  00:11:00      -56.950      -52.739        3.881       79.057       61.772       34.205     6250.075     3815.825     1169.996        0.864        0.562       77.619       33.490        0.186      340.167       14.000      856.392
04/22/2014  00:12:00     -278.405      -96.647        7.722      156.690      101.346       56.699    24551.706    10271.089     3214.757        6.247        1.902      294.704       68.463        0.054      339.967       13.659      856.420
04/22/2014  00:13:00     -229.967      -28.808       -0.087      146.497       84.219       46.484    21461.289     7092.869     2160.757        4.221        1.536      231.764       50.042        0.047      340.162       13.990      856.471
04/22/2014  00:14:00     -412.208     -140.088       -5.539      117.923      133.905       58.942    13905.947    17930.482     3474.193       11.243        1.766      435.362       65.596        0.023      340.001       13.718      856.480
04/22/2014  00:15:00     -294.086      -87.869      -25.480      119.505      100.475       57.600    14281.507    10095.302     3317.748        6.127        1.385      306.932       61.106        0.040      339.977       13.676      856.482
04/22/2014  00:16:00     -271.377       52.106       -9.016      118.490      112.679       53.999    14039.870    12696.512     2915.896        5.304        1.483      276.334       49.302        0.032      340.012       13.735      856.428
04/22/2014  00:17:00     -202.340     -105.309       -7.448       82.326       70.653       52.082     6777.549     4991.852     2712.490        3.328        0.724      228.104       49.707        0.047      339.998       13.712      856.394
04/22/2014  00:18:00      -72.098      -19.598       -2.997       87.247       68.608       38.658     7612.056     4707.066     1494.458        0.970        0.691       74.714       29.743        0.158      340.008       13.732      856.375
04/22/2014  00:19:00     -124.555      -57.086        4.662      104.003       55.792       38.022    10816.560     3112.780     1445.641        1.708        0.769      137.014       33.230        0.059      339.936       13.610      856.396
04/22/2014  00:20:00     -135.438      -28.938       10.488       84.017       53.082       36.595     7058.880     2817.707     1339.164        1.525        0.561      138.495       41.597        0.090      339.891       13.533      856.435
04/22/2014  00:21:00     -103.619      -56.148        5.236       90.557       63.761       37.034     8200.576     4065.484     1371.498        1.377        0.682      117.854       42.854        0.132      339.882       13.519      856.448
04/22/2014  00:22:00     -170.896      -45.076       -2.523       93.337       77.644       43.425     8711.808     6028.583     1885.709        2.393        0.831      176.741       41.025        0.054      339.878       13.509      856.453
04/22/2014  00:23:00      -94.197       -9.435       -3.305      119.297       74.943       46.634    14231.715     5616.485     2174.706        1.549        1.101       94.668       36.296        0.147      339.921       13.585      856.425
04/22/2014  00:24:00     -294.485      -33.349      -23.982      132.466      119.241       48.379    17547.302    14218.487     2340.545        6.125        1.705      296.368       42.151        0.020      339.908       13.559      856.417
04/22/2014  00:25:00     -440.620      -94.542      -17.672      160.430      131.782       73.508    25737.913    17366.414     5403.445       12.594        2.425      450.648       81.140        0.032      339.780       13.344      856.380
04/22/2014  00:26:00     -420.442      -23.533      -17.659      137.741      106.835       61.527    18972.575    11413.814     3785.529       10.590        1.709      421.100       51.385        0.015      339.766       13.321      856.366
04/22/2014  00:27:00     -160.726      -40.176        5.152      108.824       71.391       57.497    11842.599     5096.623     3305.918        2.386        1.012      165.671       52.797        0.102      339.748       13.294      856.413
04/22/2014  00:28:00     -185.526      -44.976       -9.378      109.267       62.358       54.658    11939.340     3888.503     2987.444        2.767        0.941      190.900       58.398        0.094      339.761       13.315      856.398
04/22/2014  00:29:00     -284.717     -246.345       -7.565      199.356      136.922       68.924    39742.872    18747.504     4750.489       10.251        3.162      376.497       71.745        0.036      339.745       13.285      856.373
04/22/2014  00:30:00     -235.153     -269.443        7.293      170.698      148.633       77.032    29137.816    22091.900     5933.933        9.255        2.858      357.626       70.733        0.039      339.731       13.262      856.336
04/22/2014  00:31:00     -210.334     -205.052        1.919      132.836       97.545       67.830    17645.273     9514.988     4600.859        5.902        1.588      293.745       66.177        0.051      339.697       13.205      856.332
04/22/2014  00:32:00     -337.441     -201.637       -5.468      140.885       98.002       58.546    19848.546     9604.410     3427.605        9.371        1.644      393.095       66.477        0.029      339.688       13.189      856.326
04/22/2014  00:33:00     -195.187     -129.049       -4.860      123.298       79.679       53.355    15202.517     6348.816     2846.761        3.958        1.220      233.991       52.320        0.050      339.725       13.253      856.317
04/22/2014  00:34:00     -211.194     -147.060       10.237      143.001       96.608       64.392    20449.416     9333.029     4146.310        5.012        1.696      257.351       68.611        0.071      339.639       13.107      856.289
04/22/2014  00:35:00     -207.202     -165.036        5.197      125.634       88.292       55.776    15783.987     7795.409     3110.946        4.844        1.335      264.895       65.685        0.061      339.575       12.999      856.231
04/22/2014  00:36:00     -226.947      -81.524       -7.101      103.674       90.633       47.220    10748.386     8214.268     2229.720        3.969        1.060      241.146       50.966        0.045      339.567       12.987      856.162
04/22/2014  00:37:00     -167.230      -80.710        6.620      108.020       75.452       48.214    11668.271     5693.005     2324.599        2.710        0.984      185.688       62.489        0.113      339.588       13.020      856.120
04/22/2014  00:38:00     -358.465     -143.864      -12.018      170.040      127.819       64.628    28913.594    16337.656     4176.759        9.937        2.471      386.257       71.059        0.034      339.566       12.983      856.076
04/22/2014  00:39:00     -162.163     -141.794        3.401      170.754      139.114       67.788    29156.767    19352.756     4595.244        4.975        2.655      215.412       61.244        0.081      339.630       13.093      856.079
04/22/2014  00:40:00     -209.129     -156.092        8.978      156.942      125.614       66.316    24630.792    15778.756     4397.787        5.648        2.240      260.959       68.172        0.068      339.652       13.129      856.100
04/22/2014  00:41:00     -362.126     -253.571       -9.994      174.963      155.393       81.537    30611.957    24147.076     6648.296       12.846        3.070      442.079       83.602        0.036      339.603       13.047      856.183
04/22/2014  00:42:00     -326.366     -236.898       -1.265      177.828      113.302       75.427    31622.903    12837.354     5689.231       10.638        2.507      403.281       85.700        0.045      339.569       12.989      856.286
04/22/2014  00:43:00     -266.525     -162.949       -3.068      122.899       83.355       50.149    15104.229     6948.077     2514.922        6.108        1.228      312.391       61.219        0.038      339.566       12.983      856.324
04/22/2014  00:44:00     -167.920     -158.634        2.467      143.049       87.604       57.192    20462.973     7674.524     3270.879        4.238        1.570      231.002       65.054        0.079      339.562       12.978      856.339
04/22/2014  00:45:00     -206.840     -115.236        6.186      135.681       90.160       57.194    18409.393     8128.766     3271.113        4.295        1.490      236.775       61.750        0.068      339.557       12.968      856.394
04/22/2014  00:46:00     -237.266     -164.999        0.284      141.457      153.118       73.555    20010.044    23445.152     5410.347        6.618        2.443      288.998       68.111        0.056      339.356       12.630      856.431
04/22/2014  00:47:00     -208.773     -317.303      -26.768      186.342      182.321       89.150    34723.366    33240.914     7947.711       11.043        3.796      379.825       83.381        0.048      338.950       11.946      856.473
04/22/2014  00:48:00     -223.869     -209.729      -19.317      223.208      141.104       67.765    49821.883    19910.241     4592.031        8.439        3.716      306.763       97.051        0.100      338.922       11.900      856.493
04/22/2014  00:49:00     -344.545     -360.746      -10.833      179.626      183.571       84.877    32265.588    33698.129     7204.184       16.105        3.658      498.847       79.399        0.025      338.873       11.816      856.527
04/22/2014  00:50:00      -54.736     -156.356      -13.119      107.040      107.703       60.426    11457.613    11599.832     3651.287        2.716        1.335      165.660       51.416        0.096      338.962       11.968      856.608
04/22/2014  00:51:00     -150.478     -147.916       10.690      186.554       98.210       65.880    34802.309     9645.239     4340.227        4.670        2.439      211.004       47.586        0.051      338.976       11.991      856.597
04/22/2014  00:52:00      -70.070     -182.157      -14.036      200.713      129.273       81.233    40285.655    16711.552     6598.742        5.093        3.180      195.169       63.085        0.104      338.947       11.942      856.559
04/22/2014  00:53:00      -92.489     -140.013       52.751      177.653      159.197       90.923    31560.704    25343.839     8266.924        4.804        3.259      167.803      102.941        0.376      338.871       11.814      856.544
04/22/2014  00:54:00      -92.051     -113.021      -10.075       98.675       82.434       48.976     9736.725     6795.431     2398.678        2.014        0.947      145.764       41.142        0.080      338.909       11.880      856.459
04/22/2014  00:55:00       23.651     -211.702       -5.545      143.057      100.798       68.552    20465.226    10160.172     4699.328        4.036        1.766      213.019       46.781        0.048      338.892       11.850      856.408
04/22/2014  00:56:00      138.060     -125.408       51.130      125.212      157.363       77.431    15677.979    24763.003     5995.630        4.191        2.322      186.515       94.400        0.256      338.938       11.928      856.390
04/22/2014  00:57:00      162.218      -89.645      122.510      212.150      281.652      169.317    45007.443    79327.710    28668.144       10.115        7.650      185.340      192.526        1.079      338.969       11.979      856.305
04/22/2014  00:58:00       81.712     -171.198        2.721      125.052      110.825       67.902    15638.027    12282.216     4610.630        3.426        1.627      189.699       57.656        0.092      339.023       12.072      856.353
04/22/2014  00:59:00      -80.063      -57.833       31.521      121.718      110.517       62.050    14815.257    12213.898     3850.258        2.081        1.544       98.767       70.993        0.517      338.990       12.016      856.279
04/22/2014  01:00:00       -5.971     -207.433      -21.394      126.738       92.851       62.684    16062.522     8621.343     3929.309        3.606        1.431      207.519       57.007        0.075      338.914       11.886      856.185
04/22/2014  01:01:00       76.490     -115.829       12.587      136.726      157.601       92.560    18693.868    24837.961     8567.299        3.575        2.605      138.806      108.046        0.606      339.003       12.036      856.099
04/22/2014  01:02:00        8.188      146.692      208.028      103.427      119.185      103.618    10697.191    14205.113    10736.633        5.024        1.782      146.920      100.108        0.464      338.973       11.987      856.009
04/22/2014  01:03:00       26.051       -8.077       55.232       81.010      166.408      104.851     6562.595    27691.632    10993.790        2.451        2.262       27.274      115.227       17.849      339.089       12.183      855.905
04/22/2014  01:04:00      -71.308      -87.697       -9.712       89.785       89.453       41.838     8061.313     8001.753     1750.453        1.534        0.891      113.029       39.330        0.121      339.233       12.425      855.822
04/22/2014  01:05:00     -169.289     -109.557        1.829       87.483       72.599       46.976     7653.256     5270.604     2206.755        2.789        0.757      201.647       53.024        0.069      339.275       12.494      855.747
04/22/2014  01:06:00     -203.063     -158.970      -20.768       40.267       42.412       28.392     1621.471     1798.788      806.095        3.558        0.211      257.888       13.365        0.003      339.259       12.467      855.717
04/22/2014  01:07:00     -236.675     -202.168      -21.254       68.967       66.376       39.125     4756.394     4405.734     1530.750        5.401        0.535      311.267       24.244        0.006      339.198       12.363      855.691
04/22/2014  01:08:00     -253.665     -118.615      -13.406       77.739       90.975       44.780     6043.325     8276.465     2005.265        4.746        0.816      280.028       39.793        0.020      339.115       12.224      855.661
04/22/2014  01:09:00     -198.494     -133.427        4.743      137.940      130.144       60.630    19027.563    16937.534     3676.004        4.843        1.982      239.171       56.637        0.056      339.107       12.212      855.655
04/22/2014  01:10:00     -208.600      -87.075       -6.721       75.969       57.278       45.006     5771.275     3280.783     2025.502        3.111        0.554      226.045       32.705        0.021      339.105       12.206      855.653
04/22/2014  01:11:00     -230.821     -151.611       -3.758       79.036       95.077       46.548     6246.735     9039.623     2166.689        4.686        0.873      276.160       34.602        0.016      339.050       12.114      855.667
04/22/2014  01:12:00     -266.837     -274.055       -9.592      162.332      140.117       77.523    26351.731    19632.832     6009.856        9.919        2.600      382.503       67.822        0.031      339.020       12.065      855.729
04/22/2014  01:13:00     -113.861     -257.350        7.567       89.687      126.130       62.453     8043.687    15908.887     3900.413        5.355        1.393      281.414       63.330        0.051      339.052       12.118      855.846
04/22/2014  01:14:00     -258.142     -159.688      -29.232       96.209       98.854       52.042     9256.183     9772.069     2708.324        5.736        1.087      303.542       43.701        0.021      338.986       12.009      855.854
04/22/2014  01:15:00     -184.308      -56.224      -11.083       93.726       67.832       38.305     8784.516     4601.245     1467.260        2.605        0.743      192.693       48.090        0.062      338.983       12.003      855.777
04/22/2014  01:16:00     -209.194      -62.068       -2.507       77.255       79.673       45.937     5968.359     6347.769     2110.191        3.102        0.721      218.208       42.207        0.037      339.011       12.050      855.685
04/22/2014  01:17:00     -241.655      -85.156       -4.038      122.566       96.561       65.172    15022.443     9323.972     4247.390        4.712        1.430      256.219       66.436        0.067      338.878       11.826      855.654
04/22/2014  01:18:00     -374.344     -127.016       -5.410      156.936      161.918       81.509    24629.039    26217.398     6643.719       10.688        2.875      395.305       84.202        0.045      338.812       11.714      855.668
04/22/2014  01:19:00     -335.405     -124.373      -13.276      149.946      112.606       61.109    22483.882    12680.034     3734.366        8.351        1.945      357.722       65.104        0.033      338.901       11.864      855.745
04/22/2014  01:20:00     -304.218     -190.225       12.169      158.235      143.366       74.487    25038.220    20553.785     5548.338        9.000        2.557      358.796       85.355        0.057      339.036       12.091      855.848
04/22/2014  01:21:00     -365.685     -189.813       -1.768      182.995      121.203       68.256    33487.143    14690.065     4658.890       11.129        2.642      412.013       77.930        0.036      339.040       12.098      855.918
04/22/2014  01:22:00     -352.106     -111.672      -16.034      112.913      134.305       60.924    12749.278    18037.704     3711.767        8.560        1.725      369.390       67.633        0.034      339.030       12.081      855.774
04/22/2014  01:23:00     -104.775     -140.587       14.636      101.591       84.709       54.069    10320.791     7175.632     2923.442        2.568        1.021      175.336       59.540        0.115      338.960       11.964      855.913
04/22/2014  01:24:00      -99.254     -169.964       -3.877      107.850      101.343       45.307    11631.636    10270.486     2052.737        3.135        1.198      196.823       40.698        0.043      338.998       12.027      855.870
04/22/2014  01:25:00     -183.978     -217.799       -5.353      157.309      197.292       69.699    24746.160    38924.207     4857.911        7.491        3.426      285.103       74.466        0.068      339.022       12.069      855.731
04/22/2014  01:26:00      -42.256     -425.338       -6.754      263.891      237.928      104.420    69638.345    56609.955    10903.453       15.992        6.858      427.432      100.856        0.056      339.080       12.166      855.711
04/22/2014  01:27:00       51.527     -258.611      -17.535      215.687      208.838       82.150    46520.803    43613.483     6748.622        8.334        4.844      263.694      110.178        0.175      339.134       12.257      855.648
04/22/2014  01:28:00      -31.946     -152.993       17.647      189.929      120.473       81.136    36073.090    14513.712     6583.058        4.094        2.858      156.293       71.018        0.206      339.167       12.312      855.634
04/22/2014  01:29:00      108.721      -82.559       43.729      127.499      160.783       95.975    16255.871    25851.106     9211.247        3.592        2.566      136.514       89.830        0.433      339.203       12.375      855.590
04/22/2014  01:30:00       81.678     -257.904       -5.527      173.123      224.168      115.406    29971.475    50251.124    13318.518        8.336        4.677      270.529       99.433        0.135      339.138       12.262      855.499
04/22/2014  01:31:00      142.958     -217.964       15.772      124.159      154.134       96.345    15415.572    23757.250     9282.443        5.831        2.423      260.663       90.987        0.122      339.096       12.193      855.418
04/22/2014  01:32:00       -3.688       43.943      186.159      133.686      217.431      141.712    17871.926    47276.292    20082.265        6.090        4.262       44.097      156.528       12.600      339.067       12.144      855.295
04/22/2014  01:33:00       64.387     -198.555       11.885      134.917      136.075       61.660    18202.537    18516.313     3801.982        4.211        2.026      208.734       35.943        0.030      339.084       12.173      855.250
04/22/2014  01:34:00      -30.641     -236.613        1.205      134.900      182.560       99.845    18197.996    33327.992     9968.997        5.920        3.075      238.588       86.036        0.130      339.072       12.152      855.292
04/22/2014  01:35:00       27.521     -247.118       -4.667      166.648      140.890       75.754    27771.460    19850.082     5738.715        5.759        2.668      248.646       70.264        0.080      339.068       12.145      855.269
04/22/2014  01:36:00      -59.337     -126.812       19.053      164.837      140.057       69.119    27171.101    19615.943     4777.486        3.575        2.578      140.008       72.888        0.271      339.106       12.211      855.285
04/22/2014  01:37:00       16.645       -8.587       65.932      187.885      154.206       99.436    35300.866    23779.613     9887.553        3.682        3.448       18.730       95.689       26.101      338.937       11.926      855.309
04/22/2014  01:38:00     -116.125     -194.050       25.856      184.626      125.810       83.499    34086.894    15828.178     6972.004        5.434        2.844      226.142       80.719        0.127      338.962       11.967      855.302
04/22/2014  01:39:00       24.524     -393.836       20.179      203.596      208.367      116.548    41451.508    43416.923    13583.348       12.726        4.923      394.599       98.026        0.062      338.886       11.839      855.361
04/22/2014  01:40:00       31.864     -164.661      -17.247      122.818      144.069       73.381    15084.167    20755.773     5384.736        3.482        2.061      167.716       68.337        0.166      338.869       11.813      855.318
04/22/2014  01:41:00       84.655     -273.519       -9.860      192.702      191.776      113.913    37134.246    36778.223    12976.124        8.447        4.344      286.320      104.537        0.133      338.834       11.751      855.403
04/22/2014  01:42:00      -52.238     -333.555        6.300      142.383      172.298       79.411    20272.984    29686.620     6306.147        8.514        2.813      337.621       60.363        0.032      338.819       11.727      855.488
04/22/2014  01:43:00     -257.966     -196.657      -27.684      149.425      164.483       72.540    22327.968    27054.602     5261.988        8.030        2.732      324.377       49.470        0.023      338.728       11.574      855.501
04/22/2014  01:44:00     -258.741     -318.102       -2.253      187.618      183.535       88.458    35200.398    33685.140     7824.839       12.241        3.836      410.044       91.675        0.050      338.697       11.521      855.600
04/22/2014  01:45:00      -75.342     -168.081       19.039      123.229      139.598       85.614    15185.338    19487.723     7329.798        3.814        2.100      184.194       71.478        0.151      338.769       11.644      855.517
04/22/2014  01:46:00     -105.267     -357.935       -5.743      178.692      193.714       93.125    31930.908    37525.112     8672.253       10.866        3.906      373.094       68.896        0.034      338.778       11.658      855.543
04/22/2014  01:47:00      163.800     -180.100       71.197      215.348      276.177      150.637    46374.744    76273.622    22691.372       10.481        7.267      243.447      148.697        0.373      338.727       11.571      855.381
04/22/2014  01:48:00       94.205     -299.632        6.833      300.881      214.431      146.590    90529.189    45980.750    21488.674       12.832        7.900      314.092      109.758        0.122      338.770       11.644      855.301
04/22/2014  01:49:00      -12.583      -55.065       45.120      118.326      133.549       83.328    14000.932    17835.215     6943.586        2.200        1.939       56.484       77.763        1.895      338.795       11.689      855.392
04/22/2014  01:50:00       48.481     -227.574       44.675      134.696      213.772      114.170    18143.098    45698.617    13034.738        6.649        3.844      232.681      126.567        0.296      338.776       11.655      855.301
04/22/2014  01:51:00      120.973     -250.130       10.710      212.226      271.959      136.024    45039.746    73961.823    18502.468       10.738        6.875      277.847      141.241        0.258      338.736       11.588      855.319
04/22/2014  01:52:00       61.154     -293.958       61.135      181.296      286.539      170.466    32868.273    82104.842    29058.689       11.893        7.202      300.251      180.553        0.362      338.720       11.561      855.206
04/22/2014  01:53:00      -28.969     -360.306       27.235      226.432      282.012      132.233    51271.342    79530.784    17485.491       13.981        7.414      361.469      131.822        0.133      338.714       11.552      855.365
04/22/2014  01:54:00       56.439     -403.325      -37.498      203.119      239.671      127.760    41257.206    57442.244    16322.555       14.112        5.751      407.255      112.553        0.076      338.672       11.479      855.223
04/22/2014  01:55:00       71.662     -396.243       14.474      191.008      299.440      138.535    36483.942    89664.230    19191.825       15.382        7.267      402.671      153.659        0.146      338.646       11.436      855.113
04/22/2014  01:56:00      -53.192     -131.748       18.294      141.854      141.420       74.442    20122.526    19999.615     5541.556        3.308        2.283      142.080       75.484        0.282      338.671       11.478      855.077
04/22/2014  01:57:00       95.781     -176.587       87.684      203.352      352.853      178.826    41352.106   124505.367    31978.789       12.290        9.892      200.891      197.777        0.969      338.595       11.351      855.048
04/22/2014  01:58:00      179.023     -495.581      -20.550      290.678      276.622      166.706    84493.826    76519.828    27790.774       23.340        9.440      526.925      153.133        0.084      338.547       11.269      855.117
04/22/2014  01:59:00      -38.656     -509.432        3.002      229.235      206.369      117.811    52548.461    42588.203    13879.504       18.500        5.451      510.897       85.661        0.028      338.556       11.284      855.323
04/22/2014  02:00:00      191.681     -260.458       52.703      205.655      279.105      138.692    42293.851    77899.616    19235.530       12.337        6.971      323.388      150.308        0.216      338.485       11.166      855.227
04/22/2014  02:01:00      115.508     -194.053       60.824      264.211      310.826      166.288    69807.379    96612.579    27651.569       12.435        9.704      225.829      194.589        0.742      338.507       11.202      855.193
04/22/2014  02:02:00       44.940     -164.621       58.718      192.049      280.057      150.958    36882.684    78432.118    22788.455        8.531        6.905      170.645      157.132        0.848      338.562       11.295      855.217
04/22/2014  02:03:00       49.306     -120.086       67.091      159.701      276.637      115.811    25504.272    76527.905    13412.156        6.838        5.772      129.814      159.040        1.501      338.528       11.239      855.259
04/22/2014  02:04:00       89.367     -172.993       33.960      165.492      149.125       91.767    27387.573    22238.134     8421.177        4.854        2.902      194.712       64.735        0.111      338.615       11.385      855.270
04/22/2014  02:05:00       58.941     -243.294      -18.145      227.329      204.840      101.173    51678.582    41959.463    10235.994        8.341        5.194      250.332      106.430        0.181      338.495       11.183      855.134
04/22/2014  02:06:00       -4.301     -193.979      -20.439      233.755      225.347      105.792    54641.557    50781.282    11191.868        7.732        5.831      194.026       95.522        0.242      338.548       11.272      855.090
04/22/2014  02:07:00     -102.862     -221.745       14.744      213.774      187.884      100.373    45699.163    35300.408    10074.721        7.550        4.554      244.441       92.198        0.142      338.622       11.396      855.034
04/22/2014  02:08:00     -217.712     -341.700       -6.859      261.229      306.644      109.244    68240.776    94030.378    11934.281       16.917        8.710      405.163      141.384        0.122      338.638       11.421      855.102
04/22/2014  02:09:00     -241.913     -400.336        0.299      242.622      273.276      121.698    58865.602    74679.538    14810.404       18.354        7.418      467.751      115.084        0.061      338.637       11.419      855.059
04/22/2014  02:10:00     -197.474     -320.674       -9.209      274.032      231.881      119.851    75093.395    53768.609    14364.365       14.254        7.161      376.601      113.005        0.090      338.663       11.463      855.027
04/22/2014  02:11:00     -324.254     -273.504        0.175      235.705      211.066      122.440    55556.942    44548.818    14991.575       14.750        5.755      424.199      101.552        0.057      338.613       11.380      854.826
04/22/2014  02:12:00     -422.699     -397.667      -20.586      207.738      237.713      108.001    43155.027    56507.691    11664.309       22.426        5.566      580.356       92.037        0.025      338.601       11.360      854.775
04/22/2014  02:13:00     -271.960     -420.148      -14.882      178.067      214.220       93.360    31707.720    45890.177     8716.153       16.849        4.316      500.487       73.439        0.022      338.672       11.479      854.753
04/22/2014  02:14:00     -343.304     -247.181        0.830      184.663      152.851       78.179    34100.531    23363.292     6111.892       12.125        3.179      423.032       93.725        0.049      338.620       11.393      854.717
04/22/2014  02:15:00     -235.952     -237.052       22.983      206.925      164.162       91.550    42817.906    26949.171     8381.461        9.526        3.907      334.465      106.266        0.101      338.699       11.524      854.782
04/22/2014  02:16:00     -260.776     -131.359        0.787      166.228      135.442       79.214    27631.793    18344.528     6274.886        6.875        2.613      291.992       64.451        0.049      338.762       11.631      854.862
04/22/2014  02:17:00     -329.286     -202.057        9.622      234.475      157.883       81.701    54978.541    24927.131     6675.064       11.795        4.329      386.337      107.143        0.077      338.661       11.461      854.859
04/22/2014  02:18:00     -333.262     -318.130        2.047      222.932      150.561       83.914    49698.572    22668.519     7041.571       14.583        3.970      460.728       88.168        0.037      338.515       11.216      854.745
04/22/2014  02:19:00     -238.111     -278.389      -17.368      181.452      127.027       61.125    32924.863    16135.789     3736.275        9.364        2.640      366.329       43.642        0.014      338.468       11.138      854.903
04/22/2014  02:20:00       -4.963     -244.319       10.985      227.094      250.008       88.266    51571.482    62504.138     7790.828        9.083        6.093      244.370       73.571        0.091      338.664       11.466      854.875
04/22/2014  02:21:00     -105.075     -236.400        9.367      222.098      201.543      101.372    49327.382    40619.619    10276.361        8.360        5.011      258.699       99.667        0.148      338.704       11.533      854.768
04/22/2014  02:22:00      -24.078     -173.644       84.125      180.938      272.566      155.554    32738.583    74292.093    24197.132        8.449        6.561      175.305      175.068        0.997      338.679       11.491      854.749
04/22/2014  02:23:00      -11.013     -251.787        5.878      158.744      173.055       75.653    25199.784    29948.051     5723.451        6.220        3.044      252.028       48.743        0.037      338.737       11.589      854.886
04/22/2014  02:24:00      -68.689     -474.666      -21.296      273.757      325.352      115.071    74942.649   105853.642    13241.349       21.222        9.702      479.610      105.308        0.048      338.630       11.408      854.891
04/22/2014  02:25:00      116.614     -426.328      -15.319      292.120      297.366      164.075    85333.852    88426.509    26920.748       19.810       10.034      441.989      171.629        0.151      338.572       11.312      854.831
04/22/2014  02:26:00      152.917     -190.074       40.686      200.900      246.814      127.461    40360.895    60917.057    16246.310        8.932        5.876      243.950      156.325        0.411      338.553       11.280      854.862
04/22/2014  02:27:00      -11.631     -220.255       37.697      160.708      228.347      130.428    25827.052    52142.161    17011.347        7.251        4.749      220.562      120.768        0.300      338.557       11.288      854.714
04/22/2014  02:28:00      -40.324     -306.054       13.631      205.546      238.465      147.495    42248.989    56865.702    21754.638       10.815        6.043      308.699      136.903        0.197      338.532       11.245      854.765
04/22/2014  02:29:00       77.008     -245.973       -0.240      214.391      278.925      118.477    45963.613    77798.910    14036.842       10.209        6.890      257.745      138.709        0.290      338.448       11.105      854.735
04/22/2014  02:30:00      222.198     -340.658       46.039      273.058      223.849      138.798    74560.557    50108.437    19264.843       15.571        7.197      406.719      133.723        0.108      338.438       11.086      854.657
04/22/2014  02:31:00       80.400     -443.868       33.782      254.474      286.727      150.386    64756.820    82212.144    22615.991       18.707        8.479      451.091      149.729        0.110      338.432       11.076      854.746
04/22/2014  02:32:00       62.639     -463.214       -7.536      260.250      249.068      141.812    67729.841    62034.649    20110.542       18.418        7.494      467.430      129.701        0.077      338.408       11.035      854.772
04/22/2014  02:33:00      106.091     -467.848      -11.370      234.414      261.533      114.874    54950.107    68399.609    13196.033       18.338        6.827      479.726      105.212        0.048      338.366       10.966      854.689
04/22/2014  02:34:00       -4.852     -480.902       -2.254      269.231      270.380      112.500    72485.110    73105.270    12656.332       19.474        7.912      480.926      104.304        0.047      338.388       11.003      854.672
04/22/2014  02:35:00      106.363     -428.387        2.998      270.963      311.403      141.599    73421.001    96971.569    20050.206       19.260        9.522      441.394      153.455        0.121      338.377       10.985      854.697
04/22/2014  02:36:00     -100.044     -394.079       11.985      249.472      300.048      130.477    62236.354    90029.044    17024.123       16.734        8.464      406.580      139.954        0.118      338.389       11.003      854.728
04/22/2014  02:37:00       34.527     -323.754        8.939      212.390      249.586      142.369    45109.673    62293.008    20269.062       11.685        6.384      325.590      118.835        0.133      338.381       10.990      854.737
04/22/2014  02:38:00       74.873     -542.104      -22.252      245.014      271.775      139.577    60031.790    73861.783    19481.699       22.665        7.669      547.250       97.480        0.032      338.376       10.980      854.687
04/22/2014  02:39:00      131.940     -437.106      -37.137      273.108      234.365      155.284    74587.896    54927.101    24113.233       18.171        7.681      456.585      150.353        0.108      338.362       10.958      854.683
04/22/2014  02:40:00      -16.039     -226.764       32.125      204.098      184.677      103.135    41656.161    34105.616    10636.907        6.954        4.320      227.331       96.541        0.180      338.393       11.010      854.806
04/22/2014  02:41:00       37.321     -264.332        4.294      179.200      159.249       82.891    32112.758    25360.129     6870.994        6.780        3.217      266.954       61.979        0.054      338.353       10.944      854.729
04/22/2014  02:42:00       74.766     -334.093        4.825      205.617      246.474      132.160    42278.417    60749.207    17466.222       11.884        6.025      342.356      116.461        0.116      338.328       10.901      854.704
04/22/2014  02:43:00      -75.501     -405.262      -14.963      158.361      267.822       97.143    25078.143    71728.524     9436.848       13.818        5.312      412.235       85.699        0.043      338.298       10.851      854.823
04/22/2014  02:44:00      -60.891     -177.983      -25.430      147.433      104.372       68.689    21736.360    10893.561     4718.227        3.668        1.867      188.111       64.369        0.117      338.293       10.844      854.809
04/22/2014  02:45:00      -17.986     -331.214       -0.681      217.722      211.255       96.927    47403.031    44628.805     9394.772       10.571        5.071      331.702       63.085        0.036      338.288       10.835      854.818
04/22/2014  02:46:00       21.242     -434.922       20.638      264.092      273.307      143.780    69744.733    74696.584    20672.752       17.754        8.256      435.440      141.280        0.105      338.274       10.811      854.856
04/22/2014  02:47:00       16.677     -226.090      -31.117      219.485      137.486       73.485    48173.450    18902.408     5399.995        6.241        3.624      226.704       59.445        0.069      338.345       10.930      854.847
04/22/2014  02:48:00     -103.246     -164.435      -10.549      126.717      125.560       61.823    16057.292    15765.416     3822.074        3.672        1.782      194.161       34.351        0.031      338.288       10.836      854.919
04/22/2014  02:49:00     -102.515      -79.509       -0.891       83.907      142.079       56.608     7040.361    20186.330     3204.469        2.363        1.522      129.735       54.734        0.178      338.280       10.822      854.881
04/22/2014  02:50:00      -43.994     -295.857        9.736      217.903      238.214       97.540    47481.717    56745.892     9514.120       10.163        5.687      299.110       94.671        0.100      338.201       10.689      854.896
04/22/2014  02:51:00      -12.867     -291.588        8.901      231.415      243.663      122.876    53552.993    59371.603    15098.515       10.662        6.401      291.872      127.136        0.190      338.240       10.753      854.940
04/22/2014  02:52:00     -110.371     -144.289       -1.180      143.344      191.363       71.857    20547.583    36619.671     5163.402        4.765        3.117      181.662       64.767        0.127      338.215       10.713      855.000
04/22/2014  02:53:00      -14.786     -241.722      -12.052       96.488      135.599       52.856     9309.840    18387.148     2793.737        4.464        1.525      242.174       27.759        0.013      338.247       10.765      855.010
04/22/2014  02:54:00     -133.747     -176.518       -0.887      110.597      153.411       57.802    12231.747    23534.922     3341.095        4.407        1.955      221.465       59.533        0.072      338.209       10.703      855.025
04/22/2014  02:55:00      -91.606      -74.533        4.657      186.962      137.390       68.876    34954.802    18876.013     4743.888        3.626        2.929      118.097       87.886        0.554      338.191       10.673      854.956
04/22/2014  02:56:00     -128.688     -105.847       12.417      172.409       96.808       60.693    29724.713     9371.736     3683.668        3.534        2.139      166.626       60.639        0.132      338.211       10.707      854.871
04/22/2014  02:57:00     -166.014     -140.134        4.947      128.739      109.538       80.474    16573.689    11998.608     6476.126        4.113        1.752      217.252       76.297        0.123      338.143       10.592      854.908
04/22/2014  02:58:00      -84.114     -143.939      -15.638      111.794       84.387       45.745    12497.869     7121.232     2092.641        2.487        1.086      166.714       32.569        0.038      338.154       10.609      854.954
04/22/2014  02:59:00     -174.305     -405.448      -31.576      186.379      181.455       94.136    34737.269    32925.947     8861.546       13.613        3.826      441.328       77.058        0.030      338.065       10.458      854.916
04/22/2014  03:00:00     -228.950     -260.026        0.969      165.728      195.055       75.539    27465.737    38046.371     5706.197        9.561        3.561      346.456       61.089        0.031      338.071       10.471      854.954
04/22/2014  03:01:00     -180.353      -91.591       11.007      149.382      101.986       68.954    22314.987    10401.153     4754.650        3.925        1.874      202.277       80.782        0.159      338.096       10.513      854.873
04/22/2014  03:02:00     -173.116     -194.068       -1.837      137.207      129.897       60.856    18825.863    16873.246     3703.463        5.351        1.970      260.060       65.230        0.063      338.013       10.373      854.823
04/22/2014  03:03:00     -136.586     -102.434       11.685      119.669      117.363       62.084    14320.660    13773.972     3854.407        3.061        1.597      170.729       65.790        0.148      338.007       10.364      854.723
04/22/2014  03:04:00     -194.891     -118.367       19.043      145.686      111.408       67.795    21224.436    12411.848     4596.110        4.529        1.912      228.020       50.028        0.048      338.025       10.395      854.710
04/22/2014  03:05:00     -201.445     -253.240        7.303      184.711      156.470       80.795    34118.337    24482.903     6527.841        8.493        3.256      323.590       89.706        0.077      337.948       10.265      854.783
04/22/2014  03:06:00     -170.545     -163.087       -0.588      176.694      125.999       73.955    31220.632    15875.819     5469.409        5.411        2.628      235.972       56.421        0.057      337.937       10.246      854.773
04/22/2014  03:07:00     -211.636     -231.355      -20.402      119.915      141.190       56.278    14379.582    19934.664     3167.263        6.810        1.874      313.553       46.196        0.022      337.904       10.189      854.752
04/22/2014  03:08:00     -176.229     -113.754      -12.490      101.908      109.335       57.176    10385.321    11954.096     3269.056        3.488        1.280      209.754       48.803        0.054      337.909       10.198      854.728
04/22/2014  03:09:00     -165.335     -181.347       -7.336      166.778      162.749       57.082    27814.835    26487.323     3258.388        5.891        2.878      245.402       69.574        0.080      337.906       10.194      854.738
04/22/2014  03:10:00     -175.420     -179.674       -1.163      173.888      153.683       68.305    30237.037    23618.337     4665.614        6.078        2.926      251.108       79.153        0.099      337.891       10.167      854.681
04/22/2014  03:11:00     -245.177      -84.151      -10.940       97.625      127.378       52.536     9530.713    16225.043     2759.982        4.791        1.426      259.217       43.079        0.028      337.901       10.184      854.676
04/22/2014  03:12:00     -327.050     -112.118        6.533      193.996      152.031       72.087    37634.468    23113.341     5196.576        9.275        3.297      345.735       83.883        0.059      337.876       10.142      854.741
04/22/2014  03:13:00     -123.672     -103.672       15.264      161.127      104.450       59.368    25961.936    10909.772     3524.598        3.333        2.020      161.377       50.599        0.098      337.912       10.204      854.827
04/22/2014  03:14:00     -138.740     -161.492       -4.268       56.480       60.843       35.445     3189.986     3701.820     1256.365        2.675        0.407      212.905       27.294        0.016      337.905       10.192      854.853
04/22/2014  03:15:00     -166.352     -160.273       -7.531       71.672       79.718       45.828     5136.880     6355.014     2100.169        3.350        0.680      230.998       44.474        0.037      337.894       10.172      854.813
04/22/2014  03:16:00      -95.867     -222.559      -17.038       65.535       87.501       48.731     4294.847     7656.492     2374.721        3.667        0.716      242.328       38.306        0.025      337.866       10.127      854.812
04/22/2014  03:17:00     -116.287     -174.878       -3.543       87.862       95.921       41.900     7719.652     9200.782     1755.645        3.139        0.934      210.012       33.417        0.025      337.924       10.223      854.797
04/22/2014  03:18:00     -180.458     -120.710        5.116      107.157       90.224       53.172    11482.688     8140.457     2827.300        3.480        1.123      217.108       54.075        0.062      337.890       10.167      854.761
04/22/2014  03:19:00     -134.156      -56.315       10.205      121.639      100.125       39.203    14796.107    10025.056     1536.898        2.381        1.318      145.497       45.369        0.097      337.930       10.235      854.694
04/22/2014  03:20:00     -300.193      -79.976       -4.177      161.895      134.724       70.487    26209.880    18150.650     4968.410        7.292        2.466      310.663       65.346        0.044      337.865       10.124      854.597
04/22/2014  03:21:00     -291.211      -98.765        6.182      151.019      127.202       68.829    22806.885    16180.336     4737.429        6.915        2.186      307.504       76.549        0.062      337.860       10.116      854.558
04/22/2014  03:22:00     -300.080     -210.675      -15.598      147.906      113.824       65.768    21876.179    12955.969     4325.431        8.691        1.958      366.650       75.426        0.042      337.857       10.111      854.638
04/22/2014  03:23:00     -267.649     -150.438       -0.622      153.106      124.592       60.553    23441.471    15523.085     3666.715        6.844        2.132      307.030       75.600        0.061      337.797       10.011      854.669
04/22/2014  03:24:00     -241.924      -72.648       -1.504      126.944      101.897       66.675    16114.893    10382.899     4445.586        4.737        1.547      252.597       61.739        0.060      337.854       10.106      854.649
04/22/2014  03:25:00     -267.014     -112.102        0.093      141.522      131.716       72.435    20028.355    17349.062     5246.812        6.324        2.131      289.592       82.844        0.082      337.808       10.029      854.650
04/22/2014  03:26:00     -230.212      -53.069        3.488      131.214      107.066       66.647    17217.083    11463.086     4441.808        4.447        1.656      236.250       61.062        0.067      337.817       10.043      854.646
04/22/2014  03:27:00     -317.500     -160.546        2.825      164.724      139.224       67.879    27133.964    19383.278     4607.538        8.885        2.556      355.783       79.893        0.050      337.809       10.031      854.685
04/22/2014  03:28:00     -344.884     -165.222       -0.535      216.954      137.281       77.986    47069.013    18846.124     6081.866       10.911        3.600      382.418       98.136        0.066      337.817       10.043      854.750
04/22/2014  03:29:00     -481.734      -94.205      -29.252      179.574      143.390       89.296    32246.696    20560.556     7973.757       15.128        3.039      490.859       93.485        0.036      337.774        9.972      854.806
04/22/2014  03:30:00     -294.851     -134.777       12.428      205.239      172.666       81.354    42123.082    29813.708     6618.542        9.189        3.928      324.195       99.397        0.094      337.854       10.106      854.890
04/22/2014  03:31:00     -440.007     -215.734      -15.513      244.500      164.585      100.115    59780.352    27088.098    10022.937       16.862        4.845      490.048      112.376        0.053      337.807       10.027      854.960
04/22/2014  03:32:00     -360.132     -163.034       -1.523      270.837      142.685       84.097    73352.918    20358.882     7072.238       12.851        5.039      395.317      100.091        0.064      337.821       10.052      855.030
04/22/2014  03:33:00     -298.227     -177.088       -7.316      172.582      133.572       87.796    29784.643    17841.535     7708.210        8.783        2.767      346.842       90.424        0.068      337.831       10.067      855.033
04/22/2014  03:34:00     -302.777     -197.033       -0.691      185.602      163.608       90.399    34448.212    26767.449     8171.972        9.993        3.469      361.242       88.088        0.059      337.841       10.083      855.059
04/22/2014  03:35:00     -221.528     -266.183       -8.277      148.276      244.223       70.767    21985.877    59645.017     5007.941       10.330        4.332      346.306       59.144        0.029      337.825       10.059      855.092
04/22/2014  03:36:00     -283.405     -235.506      -26.258      170.388      152.988       74.750    29032.177    23405.252     5587.556        9.724        2.901      368.485       77.941        0.045      337.842       10.085      855.067
04/22/2014  03:37:00     -389.613     -214.813      -35.820      215.365      162.650       93.025    46381.964    26455.114     8653.678       14.034        4.075      444.908      104.218        0.055      337.771        9.967      855.041
04/22/2014  03:38:00     -359.907     -155.393      -21.788      179.646      174.629       87.875    32272.758    30495.419     7721.953       11.231        3.525      392.020       78.810        0.040      337.783        9.987      854.996
04/22/2014  03:39:00     -547.993     -146.404       -0.958      197.090      188.704       87.486    38844.465    35609.193     7653.809       20.190        4.105      567.213       90.850        0.026      337.755        9.941      854.945
04/22/2014  03:40:00     -416.127     -251.515       -8.932      223.721      222.041       95.742    50051.188    49302.221     9166.560       17.249        5.426      486.232      102.238        0.044      337.707        9.859      854.971
04/22/2014  03:41:00     -356.465     -208.391       -0.025      228.845      183.952       85.442    52370.133    33838.386     7300.356       13.198        4.675      412.910      104.976        0.065      337.667        9.791      855.040
04/22/2014  03:42:00     -547.984      -32.568      -48.773      250.543      216.282       99.433    62771.969    46778.080     9886.898       21.156        5.972      548.951      101.350        0.034      337.224        9.051      855.021
04/22/2014  03:43:00     -705.350     -126.623      -15.185      297.536      236.624      136.871    88527.656    55990.880    18733.593       33.848        8.163      716.626      165.220        0.053      336.587        7.985      854.962
04/22/2014  03:44:00     -756.020      -70.372      -34.782      305.103      219.979      119.265    93087.575    48390.615    14224.027       36.668        7.785      759.288      143.279        0.036      336.452        7.759      854.957
04/22/2014  03:45:00     -596.839     -249.449      -35.084      309.432      247.611      116.070    95748.233    61311.116    13472.296       29.507        8.527      646.871      128.437        0.039      336.283        7.477      854.994
04/22/2014  03:46:00     -438.811     -104.793      -16.093      222.300      222.770      110.038    49417.241    49626.616    12108.434       15.745        5.558      451.150      106.439        0.056      336.275        7.463      855.085
04/22/2014  03:47:00     -433.442      -39.774      -24.920      266.602      203.456      104.402    71076.821    41394.282    10899.750       15.670        6.169      435.263      108.640        0.062      336.220        7.373      855.077
04/22/2014  03:48:00     -499.691     -104.538      -25.761      249.390      189.411       98.478    62195.578    35876.446     9697.991       18.450        5.389      510.509      108.949        0.046      336.141        7.239      855.052
04/22/2014  03:49:00     -555.438     -137.819      -13.175      353.850      235.265      130.300   125209.541    55349.457    16978.020       26.257        9.877      572.280      163.847        0.082      336.120        7.205      855.150
04/22/2014  03:50:00     -661.530     -312.203      -18.472      240.157      257.915      132.040    57675.246    66520.305    17434.622       33.850        7.082      731.500      120.391        0.027      335.989        6.985      855.255
04/22/2014  03:51:00     -606.758     -136.304      -26.053      304.580      198.636      113.404    92769.121    39456.229    12860.385       26.622        7.254      621.880      141.984        0.052      335.839        6.737      855.296
04/22/2014  03:52:00     -423.203        0.516      -25.561      152.065      125.961       70.198    23123.732    15866.191     4927.717       11.183        2.196      423.203       85.099        0.040      335.889        6.820      855.083
04/22/2014  03:53:00     -526.468     -149.984      -27.325      174.662      131.981       86.100    30506.868    17418.938     7413.152       17.786        2.767      547.416       88.399        0.026      335.869        6.786      855.018
04/22/2014  03:54:00     -482.642     -135.189      -20.953      208.824      229.535      112.786    43607.371    52686.296    12720.642       18.031        5.451      501.218      107.039        0.046      335.880        6.805      854.990
04/22/2014  03:55:00     -533.537      -84.751       -7.052      279.442      220.248      103.672    78087.644    48509.108    10747.908       21.459        6.867      540.226      100.901        0.035      335.792        6.659      855.033
04/22/2014  03:56:00     -428.384     -132.519      -11.744      192.124      175.677       93.796    36911.601    30862.326     8797.668       13.888        3.829      448.413      101.008        0.051      335.774        6.627      855.004
04/22/2014  03:57:00     -486.934      -72.625      -21.249      212.589      186.417       84.415    45193.874    34751.421     7125.855       16.493        4.354      492.320       97.107        0.039      335.716        6.531      854.914
04/22/2014  03:58:00     -673.923     -139.724      -24.515      277.321      239.557      129.732    76907.113    57387.504    16830.295       31.268        7.556      688.255      149.978        0.047      335.606        6.350      854.882
04/22/2014  03:59:00     -643.855     -174.326      -44.821      199.966      207.960       99.525    39986.275    43247.447     9905.247       27.002        4.657      667.037       86.579        0.017      335.674        6.462      854.938
04/22/2014  04:00:00     -844.509     -232.536      -13.832      341.988      252.487      140.085   116956.102    63749.892    19623.700       48.385       10.016      875.938      154.395        0.031      335.549        6.254      855.007
04/22/2014  04:01:00     -799.201     -232.963      -83.603      259.945      253.608      126.287    67571.358    64316.911    15948.300       42.388        7.392      832.463       80.178        0.009      335.552        6.260      855.075
04/22/2014  04:02:00     -585.380     -179.227      -24.994      214.958      216.380       94.411    46206.912    46820.458     8913.489       23.866        5.097      612.203       93.985        0.024      335.515        6.197      855.175
04/22/2014  04:03:00     -500.541      -26.713      -31.861      244.975      143.788       91.227    60012.781    20674.884     8322.422       17.062        4.451      501.254      100.933        0.041      335.558        6.268      855.181
04/22/2014  04:04:00     -716.293     -127.334      -29.797      304.633      223.669      123.953    92801.104    50027.924    15364.427       34.415        7.910      727.523      143.781        0.039      335.513        6.192      855.152
04/22/2014  04:05:00     -618.253     -140.416      -35.086      226.765      193.386      103.058    51422.533    37398.167    10620.953       25.129        4.972      633.998       94.606        0.022      335.467        6.117      855.161
04/22/2014  04:06:00     -348.107       31.948      -29.177      153.065      206.103       89.665    23428.887    42478.306     8039.886        9.848        3.697      349.570       72.709        0.043      335.532        6.224      855.114
04/22/2014  04:07:00     -564.848      -71.748      -44.846      182.329      158.204       83.609    33243.792    25028.512     6990.425       19.572        3.263      569.387       70.922        0.016      335.499        6.171      855.055
04/22/2014  04:08:00     -681.548     -154.410      -10.773      284.823      198.366      100.955    81124.027    39349.154    10191.845       30.954        6.533      698.821      113.064        0.026      335.464        6.111      855.075
04/22/2014  04:09:00     -885.667     -218.201      -45.496      256.039      223.825      119.284    65556.183    50097.739    14228.678       48.196        6.494      912.150      119.952        0.017      335.320        5.871      855.131
04/22/2014  04:10:00     -749.663     -268.779      -26.200      235.140      228.566      110.236    55290.882    52242.448    12151.926       37.728        5.984      796.390      117.355        0.022      335.320        5.871      855.019
04/22/2014  04:11:00     -745.365      -57.658      -46.830      296.910      275.255      134.232    88155.348    75765.064    18018.213       37.148        9.097      747.592      140.090        0.035      335.352        5.925      854.772
04/22/2014  04:12:00     -819.302     -231.878      -38.630      336.840      263.759      141.305   113461.515    69568.560    19967.233       46.472       10.150      851.483      152.424        0.032      335.288        5.819      854.682
04/22/2014  04:13:00     -648.899      -83.069      -34.171      269.518      236.540       99.815    72639.755    55950.991     9962.992       28.382        6.928      654.194      110.403        0.028      335.292        5.826      854.870
04/22/2014  04:14:00     -546.666       32.705      -44.240      198.069      180.219       93.859    39231.235    32479.066     8809.472       19.118        4.026      547.644       89.619        0.027      335.322        5.874      854.992
04/22/2014  04:15:00     -508.467     -149.448      -21.629      302.973      158.322       95.435    91792.678    25065.825     9107.863       20.363        6.298      529.975      120.837        0.052      335.356        5.932      854.869
04/22/2014  04:16:00     -315.455      -39.758       22.211      208.611      202.061      104.337    43518.558    40828.470    10886.303        9.839        4.762      317.951      112.011        0.124      335.445        6.080      854.788
04/22/2014  04:17:00     -437.101     -151.196      -33.838      303.424      215.839      141.506    92066.170    46586.464    20023.888       18.684        7.934      462.512      153.737        0.110      335.397        6.001      854.918
04/22/2014  04:18:00     -864.642      -75.225      -43.330      400.793      205.423      107.673   160635.421    42198.802    11593.431       48.474       10.721      867.908      149.958        0.030      335.307        5.849      854.865
04/22/2014  04:19:00     -900.129     -148.049      -45.644      338.338      236.846      121.329   114472.711    56095.902    14720.783       50.972        9.264      912.223      142.754        0.024      335.270        5.788      854.985
04/22/2014  04:20:00     -789.339      -96.340      -34.786      304.322      240.800      114.817    92611.614    57984.638    13182.874       39.863        8.189      795.197      129.830        0.027      335.262        5.775      854.916
04/22/2014  04:21:00     -806.565     -122.027      -32.688      332.087      255.812      147.582   110281.697    65439.872    21780.517       43.197        9.875      815.744      167.001        0.042      335.275        5.797      854.780
04/22/2014  04:22:00     -692.891      -22.869      -33.703      304.957      209.539      129.834    92998.710    43906.614    16856.865       31.773        7.688      693.268      144.887        0.044      335.294        5.828      854.813
04/22/2014  04:23:00     -609.236     -118.972      -28.965      253.734      229.045      109.654    64380.777    52461.498    12024.099       25.749        6.443      620.744      133.339        0.046      335.213        5.695      854.768
04/22/2014  04:24:00     -864.388     -162.260      -63.648      274.383      216.897      122.889    75286.085    47044.137    15101.687       45.746        6.872      879.486      147.095        0.028      335.184        5.647      854.745
04/22/2014  04:25:00     -925.250     -161.421      -36.850      333.562      241.689      123.971   111263.410    58413.609    15368.779       53.424        9.252      939.225      131.560        0.020      335.123        5.546      854.789
04/22/2014  04:26:00     -824.799     -167.016      -37.732      246.264      223.175      136.545    60646.053    49806.881    18644.637       41.933        6.455      841.539      145.532        0.030      335.091        5.493      854.631
04/22/2014  04:27:00     -706.896     -219.102      -18.071      326.895      291.296      129.748   106860.662    84853.299    16834.531       37.825       10.427      740.073      146.408        0.039      335.160        5.606      854.517
04/22/2014  04:28:00     -725.163     -126.637      -27.931      308.439      220.228      124.230    95134.848    48500.436    15433.041       35.084        7.953      736.138      137.891        0.035      335.089        5.491      854.661
04/22/2014  04:29:00     -781.405     -138.841      -42.530      290.449      285.954      148.444    84360.505    81769.424    22035.652       40.988        9.408      793.644      149.223        0.035      334.997        5.337      854.732
04/22/2014  04:30:00     -760.305     -117.044      -48.159      260.039      201.091      105.219    67620.271    40437.637    11071.089       35.658        5.956      769.261      119.343        0.024      334.930        5.225      854.760
04/22/2014  04:31:00     -764.620     -164.719      -41.742      283.649      251.582      120.295    80456.613    63293.461    14470.776       38.584        7.911      782.161      136.079        0.030      335.016        5.368      854.730
04/22/2014  04:32:00     -781.456     -143.936      -46.999      261.426      217.383      120.119    68343.725    47255.538    14428.606       38.179        6.501      794.601      133.830        0.028      335.001        5.343      854.873
04/22/2014  04:33:00     -683.107     -131.984      -41.984      255.459      193.999      106.031    65259.432    37635.782    11242.602       29.995        5.707      695.740      114.878        0.027      335.051        5.425      854.932
04/22/2014  04:34:00     -584.495     -194.616      -25.394      215.504      189.968       98.027    46442.172    36087.687     9609.373       23.613        4.607      616.044       95.345        0.024      335.071        5.461      855.004
04/22/2014  04:35:00     -665.945      -97.684      -36.684      199.286      174.631      103.599    39714.960    30496.077    10732.853       26.764        4.047      673.071      106.216        0.025      335.087        5.486      854.995
04/22/2014  04:36:00     -561.878      -93.383      -37.956      192.423      155.084       87.250    37026.705    24050.992     7612.642       19.727        3.435      569.585       98.924        0.030      335.139        5.573      855.003
04/22/2014  04:37:00     -426.495      -39.772      -25.839      192.488      152.978       81.735    37051.647    23402.394     6680.611       12.563        3.357      428.345       94.729        0.049      335.184        5.646      855.042
04/22/2014  04:38:00     -504.931      -33.298      -23.474      257.531      180.081       91.651    66322.196    32428.995     8399.955       18.186        5.358      506.028      108.413        0.046      335.270        5.789      855.062
04/22/2014  04:39:00     -390.163      -57.815      -25.785      224.619      127.364       85.937    50453.529    16221.511     7385.117       11.513        3.703      394.423       97.785        0.061      335.295        5.830      855.073
04/22/2014  04:40:00     -350.265     -103.688      -12.127      153.723      103.734       63.834    23630.653    10760.795     4074.769        8.602        1.923      365.290       67.139        0.034      335.368        5.952      855.014
04/22/2014  04:41:00     -338.083      -58.075      -14.559      115.259      117.942       66.344    13284.541    13910.198     4401.576        7.473        1.580      343.034       67.737        0.039      335.351        5.923      854.965
04/22/2014  04:42:00     -513.368     -138.927      -43.277      169.328      130.682       82.697    28671.805    17077.704     6838.764       16.864        2.629      531.834       86.424        0.026      335.334        5.897      854.883
04/22/2014  04:43:00     -510.367     -129.577      -29.495      156.346      130.003       67.102    24443.926    16900.659     4502.720       16.198        2.292      526.559       68.434        0.017      335.345        5.914      854.905
04/22/2014  04:44:00     -502.759     -130.577      -15.314      213.446      169.861       94.585    45559.120    28852.890     8946.390       17.669        4.168      519.439      112.710        0.047      335.364        5.946      854.869
04/22/2014  04:45:00     -588.433      -84.773      -36.764      204.501      224.448      109.758    41820.593    50376.857    12046.838       22.950        5.212      594.508      101.991        0.029      335.359        5.936      854.774
04/22/2014  04:46:00     -565.445     -198.446      -22.759      211.627      158.322       89.470    44785.940    25065.994     8004.864       21.873        3.893      599.257      106.055        0.031      335.422        6.041      854.739
04/22/2014  04:47:00     -526.742     -124.143      -43.984      140.120      145.721       77.756    19633.531    21234.719     6046.013       17.085        2.346      541.173       64.257        0.014      335.406        6.016      854.641
04/22/2014  04:48:00     -422.154      -57.076      -49.643      128.559      114.204       72.761    16527.314    13042.661     5294.105       10.939        1.743      425.995       71.193        0.028      335.589        6.320      854.487
04/22/2014  04:49:00     -557.146     -149.843      -26.836      177.584      143.147       89.391    31536.001    20491.103     7990.770       19.679        3.001      576.944       82.457        0.020      335.681        6.474      854.445
04/22/2014  04:50:00     -523.522     -151.416      -37.792      206.471      128.240       70.897    42630.148    16445.397     5026.435       18.125        3.205      544.979       68.092        0.016      335.558        6.269      854.428
04/22/2014  04:51:00     -588.341      -86.091      -42.209      225.830      148.279       81.390    50999.369    21986.779     6624.389       21.746        3.981      594.607       98.409        0.027      335.567        6.284      854.390
04/22/2014  04:52:00     -544.468     -153.049       -9.580      210.571      163.466       84.296    44339.944    26721.088     7105.732       19.905        3.908      565.570       87.460        0.024      335.620        6.370      854.441
04/22/2014  04:53:00     -524.906     -108.219      -22.844      230.117      173.474       95.173    52953.762    30093.329     9057.895       18.991        4.605      535.946      107.450        0.040      335.634        6.394      854.536
04/22/2014  04:54:00     -632.967     -184.430      -28.657      193.557      163.304       96.584    37464.282    26668.312     9328.390       25.446        3.673      659.289      108.674        0.027      335.685        6.480      854.546
04/22/2014  04:55:00     -531.649     -259.247      -20.807      250.159      148.582       96.987    62579.460    22076.472     9406.398       22.216        4.703      591.490       89.127        0.023      335.794        6.663      854.523
04/22/2014  04:56:00     -363.047     -112.591       -4.464      169.345      138.757       75.846    28677.841    19253.412     5752.644        9.908        2.684      380.105       85.508        0.051      335.865        6.780      854.596
04/22/2014  04:57:00     -606.398      -80.650      -46.133      193.751      138.193       75.399    37539.609    19097.171     5685.039       21.932        3.116      611.738       61.728        0.010      335.965        6.946      854.639
04/22/2014  04:58:00     -481.178     -123.722      -17.791      178.039      145.293       75.919    31697.757    21109.935     5763.735       15.285        2.929      496.829       88.732        0.032      336.051        7.090      854.704
04/22/2014  04:59:00     -362.051     -133.240      -26.148      181.196      124.634       55.444    32832.134    15533.598     3074.031       10.047        2.572      385.790       37.934        0.010      336.180        7.306      854.753
04/22/2014  05:00:00     -446.817      -71.980      -16.261      159.660      115.736       77.486    25491.163    13394.715     6004.047       12.498        2.244      452.578       81.728        0.033      336.163        7.277      854.817
04/22/2014  05:01:00     -432.593      -46.940       -7.445      199.453      145.271       90.257    39781.659    21103.651     8146.347       12.920        3.452      435.132      104.230        0.057      336.192        7.325      854.854
04/22/2014  05:02:00     -483.191      -28.430      -22.364      201.235      145.675       89.973    40495.408    21221.109     8095.084       15.228        3.491      484.027       82.884        0.029      336.038        7.069      854.851
04/22/2014  05:03:00     -494.945     -107.367      -34.755      192.303      130.504       76.829    36980.399    17031.239     5902.634       15.880        2.996      506.456       75.089        0.022      335.960        6.938      854.819
04/22/2014  05:04:00     -520.387      -67.233      -34.918      226.117      151.882       95.614    51128.988    23068.002     9142.118       17.992        4.167      524.712      112.971        0.046      335.963        6.944      854.808
04/22/2014  05:05:00     -390.328      -44.391      -23.194      116.947       86.971       69.165    13676.582     7563.985     4783.791        9.044        1.301      392.844       64.095        0.027      335.997        7.000      854.856
04/22/2014  05:06:00     -483.812      -41.300      -34.507      159.440      133.284       78.394    25421.078    17764.569     6145.579       14.314        2.467      485.572       94.891        0.038      335.925        6.881      854.935
04/22/2014  05:07:00     -209.953       51.598       -4.846      155.228      104.728       64.259    24095.758    10967.906     4129.157        4.297        1.960      216.200       79.651        0.136      335.986        6.982      854.831
04/22/2014  05:08:00     -300.479      -89.959      -26.975      161.817       85.651       59.027    26184.619     7336.064     3484.198        6.805        1.850      313.656       57.501        0.034      336.080        7.138      854.788
04/22/2014  05:09:00     -454.343     -100.753      -42.531      182.293      132.733       85.218    33230.717    17618.055     7262.100       13.824        2.906      465.380       93.303        0.040      336.125        7.213      854.777
04/22/2014  05:10:00     -493.869     -165.840       -3.926      211.303      143.740       85.007    44648.808    20661.107     7226.139       17.197        3.627      520.970       90.722        0.030      336.044        7.078      854.849
04/22/2014  05:11:00     -368.549        8.255      -31.678      144.464      129.830       70.542    20869.715    16855.878     4976.143        8.979        2.135      368.642       60.945        0.027      336.017        7.032      854.825
04/22/2014  05:12:00     -259.568      -92.008      -12.103      142.401      121.054       66.294    20278.164    14654.101     4394.864        5.765        1.966      275.393       66.883        0.059      336.034        7.062      854.772
04/22/2014  05:13:00     -246.719     -121.735        3.271      155.490      120.970       71.190    24177.035    14633.769     5067.978        5.978        2.194      275.118       76.037        0.076      336.091        7.158      854.690
04/22/2014  05:14:00      -33.696       16.272       10.136      101.946       73.951       44.763    10393.013     5468.708     2003.770        0.968        0.893       37.419       38.806        1.076      336.212        7.361      854.565
04/22/2014  05:15:00       51.402       82.175      -32.538       73.304       75.308       49.086     5373.472     5671.354     2409.436        1.195        0.673       96.927       29.339        0.092      336.285        7.483      854.463
04/22/2014  05:16:00      -81.860     -171.018      -15.614      155.968      117.032       76.879    24325.900    13696.526     5910.424        4.005        2.197      189.600       60.421        0.102      336.328        7.553      854.464
04/22/2014  05:17:00     -312.208     -167.143        0.926      122.829      109.880       68.111    15086.904    12073.574     4639.100        7.860        1.590      354.134       60.520        0.029      336.221        7.373      854.450
04/22/2014  05:18:00     -124.437      -42.707       -0.580      113.307       78.446       52.348    12838.461     6153.833     2740.358        1.952        1.087      131.562       51.371        0.152      336.195        7.334      854.504
04/22/2014  05:19:00     -177.669      207.120      -33.696      117.000      147.038       68.771    13688.921    21620.124     4729.463        5.781        2.002      272.883       67.089        0.060      336.016        7.031      854.436
04/22/2014  05:20:00     -177.166      214.468      -40.620       76.845       94.340       54.440     5905.180     8900.021     2963.717        4.840        0.888      278.181       54.141        0.038      335.971        6.957      854.337
04/22/2014  05:21:00     -144.179      206.080      -23.729       80.162       73.067       53.180     6425.944     5338.814     2828.121        3.920        0.730      251.508       53.494        0.045      336.081        7.139      854.350
04/22/2014  05:22:00     -136.832      186.271      -20.223       73.721      141.250       53.345     5434.735    19951.581     2845.739        4.102        1.412      231.127       36.059        0.024      336.239        7.403      854.345
04/22/2014  05:23:00     -177.251       51.603      -40.986       74.254      118.172       48.959     5513.694    13964.631     2396.961        2.881        1.094      184.610       39.069        0.045      336.221        7.375      854.421
04/22/2014  05:24:00     -242.649      -75.476       -5.742      162.893      105.372       53.247    26534.115    11103.197     2835.272        5.253        2.024      254.117       69.759        0.075      336.151        7.259      854.476
04/22/2014  05:25:00      -61.183       14.634       28.345       88.555      126.064       55.912     7841.985    15892.032     3126.146        1.581        1.343       62.909       50.964        0.656      336.145        7.249      854.472
04/22/2014  05:26:00      -87.435        9.785        4.231       92.326      103.600       57.738     8524.128    10733.017     3333.671        1.517        1.130       87.981       64.079        0.530      336.194        7.332      854.495
04/22/2014  05:27:00     -259.056       99.645      -41.758      179.015      132.598       57.640    32046.205    17582.292     3322.380        6.586        2.648      277.559       77.479        0.078      336.119        7.205      854.516
04/22/2014  05:28:00     -183.418      140.477      -30.590      134.522       71.155       45.316    18096.041     5063.010     2053.575        3.976        1.261      231.032       38.362        0.028      336.223        7.376      854.515
04/22/2014  05:29:00      -88.130      101.729      -21.888       39.776       51.445       26.901     1582.150     2646.601      723.666        1.177        0.248      134.594       26.975        0.040      336.168        7.288      854.446
04/22/2014  05:30:00     -115.103       97.042      -18.053       61.628       38.558       33.011     3797.956     1486.704     1089.698        1.468        0.319      150.552       19.706        0.017      336.176        7.303      854.373
04/22/2014  05:31:00     -104.250       13.096      -12.813       40.382       46.147       24.081     1630.694     2129.557      579.913        0.777        0.217      105.070       19.904        0.036      336.260        7.444      854.320
04/22/2014  05:32:00      -30.246      -44.253        4.776       57.072       47.536       26.101     3257.243     2259.692      681.244        0.455        0.310       53.602       21.772        0.165      336.291        7.493      854.270
04/22/2014  05:33:00      -51.790       26.721       -1.997       36.631       24.135       23.284     1341.807      582.519      542.164        0.293        0.123       58.277       18.002        0.095      336.278        7.472      854.225
04/22/2014  05:34:00       81.975       85.804       33.475       49.418       69.071       61.759     2442.137     4770.831     3814.222        1.311        0.551      118.669       36.402        0.094      336.358        7.605      854.184
04/22/2014  05:35:00      168.372       85.304       24.395       44.401       62.746       40.694     1971.491     3937.032     1655.986        2.189        0.378      188.748       17.100        0.008      336.366        7.617      854.146
04/22/2014  05:36:00       21.345       31.748        6.039       79.727       39.449       43.418     6356.426     1556.231     1885.091        0.565        0.490       38.256       22.280        0.339      336.430        7.726      854.146
04/22/2014  05:37:00       25.753       50.125       32.598       57.612       38.610       34.458     3319.148     1490.700     1187.333        0.512        0.300       56.354       26.450        0.220      336.437        7.738      854.091
04/22/2014  05:38:00       -5.414      -17.434       39.832       35.258       84.252       51.538     1243.140     7098.326     2656.166        0.646        0.550       18.255       61.385       11.307      336.603        8.017      854.095
04/22/2014  05:39:00      -11.672      -63.913      -16.315       66.554       61.693       28.831     4429.437     3806.049      831.231        0.678        0.453       64.970       32.889        0.256      336.572        7.964      854.086
04/22/2014  05:40:00      -16.908       -8.539        1.180       25.902       32.979       17.969      670.895     1087.620      322.892        0.122        0.104       18.942       15.683        0.685      336.574        7.968      854.054
04/22/2014  05:41:00      -81.576      -85.361      -10.110       57.778       59.730       31.938     3338.284     3567.706     1020.020        1.098        0.396      118.073       28.399        0.058      336.537        7.906      854.085
04/22/2014  05:42:00      -65.863      -74.454       12.224       49.558       57.933       28.083     2455.952     3356.214      788.640        0.831        0.330       99.405       25.708        0.067      336.469        7.791      854.087
04/22/2014  05:43:00     -101.134     -139.559        3.260       53.861       44.069       28.344     2901.040     1942.040      803.403        1.768        0.282      172.351       28.487        0.027      336.451        7.761      854.128
04/22/2014  05:44:00      -19.913      -27.507       23.212       38.888       33.717       26.967     1512.263     1136.829      727.222        0.253        0.169       33.958       15.031        0.196      336.555        7.936      854.195
04/22/2014  05:45:00       -6.470      -17.180       14.893       42.710       42.323       32.273     1824.136     1791.223     1041.577        0.261        0.233       18.358       36.574        3.969      336.415        7.702      854.108
04/22/2014  05:46:00       56.298       60.412       48.746       62.841       33.158       36.406     3949.024     1099.451     1325.426        0.778        0.319       82.577       35.098        0.181      336.464        7.784      853.966
04/22/2014  05:47:00       17.532      141.435      163.532       61.187      115.490       74.250     3743.892    13337.931     5513.074        3.482        1.130      142.518       83.704        0.345      336.553        7.932      853.795
04/22/2014  05:48:00      136.052      -19.092       90.332      157.148      136.161      100.542    24695.543    18539.757    10108.646        4.018        2.667      137.385       97.548        0.504      336.569        7.958      853.696
04/22/2014  05:49:00      135.151     -198.765       38.617      164.830      199.162      137.196    27168.958    39665.399    18822.879        7.244        4.283      240.361      145.567        0.367      336.719        8.208      853.730
04/22/2014  05:50:00       57.675        3.244      119.650      117.062      143.181      108.437    13703.448    20500.745    11758.606        3.180        2.298       57.766      112.214        3.774      336.740        8.244      853.650
04/22/2014  05:51:00       86.826      -80.366       40.142       95.265      151.104       85.142     9075.511    22832.344     7249.105        2.738        1.958      118.311       96.593        0.667      336.795        8.334      853.548
04/22/2014  05:52:00       37.552     -156.003       59.896      116.050      196.689      103.689    13467.685    38686.668    10751.398        4.611        3.145      160.459      112.658        0.493      336.880        8.475      853.584
04/22/2014  05:53:00       53.454      -76.723       52.511       79.832      129.020       80.712     6373.160    16646.267     6514.432        2.051        1.477       93.508       97.991        1.098      336.856        8.437      853.571
04/22/2014  05:54:00        6.087     -261.049      -18.746      205.776      129.348       80.744    42343.606    16730.845     6519.519        6.705        3.280      261.120       69.592        0.071      336.947        8.588      853.624
04/22/2014  05:55:00      -24.317      -97.663       40.739      110.510      152.840       72.862    12212.381    23360.074     5308.908        2.633        2.044      100.644       83.877        0.695      336.875        8.468      853.575
04/22/2014  05:56:00      -24.249      -50.305       23.778       82.875       75.127       34.708     6868.289     5644.013     1204.638        0.870        0.686       55.845       30.878        0.306      336.864        8.450      853.539
04/22/2014  05:57:00      -26.307     -154.431       -7.347       76.526      116.660       54.060     5856.216    13609.498     2922.433        2.349        1.119      156.656       54.548        0.121      336.978        8.641      853.527
04/22/2014  05:58:00       56.666      -76.517       12.099       88.646       87.903       50.199     7858.038     7726.994     2519.954        1.365        0.905       95.215       30.490        0.103      336.925        8.552      853.513
04/22/2014  05:59:00      -80.066      -11.715        5.112       85.869       43.791       29.555     7373.401     1917.642      873.485        0.837        0.508       80.918       24.445        0.091      336.893        8.498      853.515
04/22/2014  06:00:00     -145.881     -115.083       -6.377       79.042       79.968       49.421     6247.625     6394.947     2442.404        2.482        0.754      185.810       44.248        0.057      336.904        8.516      853.528
04/22/2014  06:01:00      -78.912      -83.006       -1.413       60.045       75.805       38.568     3605.443     5746.469     1487.491        1.198        0.542      114.530       35.189        0.094      336.964        8.618      853.500
04/22/2014  06:02:00      -98.344     -103.472        4.240      111.141       48.474       40.807    12352.281     2349.688     1665.217        1.838        0.818      142.752       27.952        0.038      337.012        8.697      853.503
04/22/2014  06:03:00      -82.953      -95.724       -1.428      104.283       91.809       54.497    10874.895     8428.875     2969.954        1.916        1.114      126.666       42.741        0.114      336.994        8.666      853.501
04/22/2014  06:04:00     -115.439      -80.542      -12.679       84.163       89.317       44.155     7083.481     7977.602     1949.659        1.849        0.851      140.760       40.470        0.083      336.954        8.599      853.507
04/22/2014  06:05:00     -216.172     -174.522      -12.008      126.634      108.549       62.288    16036.212    11782.945     3879.826        5.451        1.585      277.828       71.265        0.066      336.969        8.623      853.497
04/22/2014  06:06:00      -90.229     -136.010       12.403      239.724      120.625       81.147    57467.619    14550.358     6584.905        5.268        3.930      163.218       87.343        0.286      337.079        8.808      853.426
04/22/2014  06:07:00      -89.946      -84.071       23.531      197.740      104.121       64.836    39101.149    10841.278     4203.678        3.492        2.707      123.118       69.853        0.322      337.081        8.811      853.448
04/22/2014  06:08:00     -158.040     -281.554      -20.698      127.466      113.351       57.540    16247.517    12848.387     3310.852        6.854        1.620      322.877       45.064        0.019      337.052        8.761      853.439
04/22/2014  06:09:00       44.628     -159.372       27.759      158.655      172.213       69.771    25171.546    29657.411     4868.049        4.392        2.985      165.503       84.916        0.263      337.096        8.836      853.394
04/22/2014  06:10:00      -81.492      -43.795       -3.570      118.838       79.617       45.745    14122.489     6338.878     2092.631        1.556        1.128       92.515       44.678        0.233      337.001        8.678      853.314
04/22/2014  06:11:00      142.610     -348.017      -30.513      210.923      234.934      104.387    44488.680    55193.911    10896.718       12.646        5.529      376.103       87.151        0.054      337.273        9.134      853.286
04/22/2014  06:12:00     -174.909     -216.324      -13.946      116.677      141.360       65.408    13613.435    19982.727     4278.255        5.772        1.894      278.189       46.781        0.028      337.195        9.003      853.335
04/22/2014  06:13:00     -284.496     -211.178        3.049      189.363      136.089       75.153    35858.337    18520.245     5647.918        9.277        3.001      354.308       74.330        0.044      337.223        9.050      853.318
04/22/2014  06:14:00     -245.825     -180.284       -3.233      109.569      112.573       64.684    12005.392    12672.768     4184.021        6.090        1.443      304.848       50.286        0.027      337.235        9.070      853.398
04/22/2014  06:15:00     -216.863     -183.123        0.457      131.121      153.480       65.990    17192.656    23556.153     4354.695        6.282        2.255      283.837       67.815        0.057      337.137        8.905      853.474
04/22/2014  06:16:00      -77.795      -44.091       14.755      112.744       88.009       47.515    12711.288     7745.543     2257.718        1.546        1.136       89.421       57.661        0.416      337.103        8.849      853.446
04/22/2014  06:17:00     -179.328      -81.927      -10.690       98.360       98.151       45.574     9674.633     9633.710     2076.950        3.018        1.069      197.156       55.170        0.078      337.085        8.818      853.437
04/22/2014  06:18:00     -191.736     -180.333       -2.697      120.505       76.469       50.063    14521.444     5847.559     2506.261        4.608        1.144      263.216       41.629        0.025      337.101        8.843      853.441
04/22/2014  06:19:00     -168.686     -137.249       -0.066      124.478      138.345       62.844    15494.676    19139.327     3949.364        4.293        1.929      217.468       70.685        0.106      337.092        8.829      853.443
04/22/2014  06:20:00     -251.941     -121.894       -5.739      150.875      112.323       66.218    22763.337    12616.375     4384.845        5.906        1.988      279.879       49.588        0.031      337.050        8.757      853.473
04/22/2014  06:21:00     -488.543     -269.981      -29.221      186.767      134.217       78.113    34881.976    18014.084     6101.638       18.570        2.950      558.179       69.433        0.015      336.959        8.608      853.478
04/22/2014  06:22:00     -334.837     -144.144       18.589      243.792      141.741       86.657    59434.526    20090.568     7509.393       11.012        4.352      364.546      112.513        0.095      336.922        8.544      853.498
04/22/2014  06:23:00     -314.706     -129.817       -8.932      121.112       97.360       62.550    14668.196     9478.927     3912.530        7.201        1.403      340.430       63.660        0.035      336.831        8.395      853.557
04/22/2014  06:24:00     -288.912     -139.482        9.742      199.700      140.417       77.754    39880.251    19716.938     6045.632        8.432        3.282      320.820       83.899        0.068      336.789        8.323      853.520
04/22/2014  06:25:00     -303.848      -54.714       -5.713      104.380      101.275       57.435    10895.202    10256.611     3298.788        5.990        1.223      308.735       52.831        0.029      336.686        8.151      853.611
04/22/2014  06:26:00     -265.312      -45.123        6.767      138.124      105.994       67.414    19078.238    11234.693     4544.671        5.366        1.743      269.121       73.122        0.074      336.600        8.009      853.604
04/22/2014  06:27:00     -428.401     -104.932      -13.087      200.418      167.591       85.928    40167.554    28086.676     7383.570       13.516        3.782      441.065       90.502        0.042      336.590        7.991      853.593
04/22/2014  06:28:00     -288.992     -110.395       10.619      179.569      155.203       88.386    32245.029    24087.876     7812.067        7.997        3.207      309.360       85.924        0.077      336.595        8.000      853.665
04/22/2014  06:29:00     -295.704     -216.220      -30.380      127.249      116.030       65.173    16192.294    13462.917     4247.518        8.450        1.695      366.323       51.786        0.020      336.685        8.150      853.766
04/22/2014  06:30:00     -290.930     -125.372        2.584      175.448      129.155       72.136    30781.979    16681.014     5203.536        7.651        2.633      316.793       80.866        0.065      336.708        8.189      853.769
04/22/2014  06:31:00     -345.133     -147.162      -10.603      235.415      135.108       93.256    55420.274    18254.224     8696.629       11.161        4.119      375.198      114.558        0.093      336.738        8.237      853.768
04/22/2014  06:32:00     -375.376     -233.723       -8.926      155.619      153.348       82.657    24217.215    23515.618     6832.130       12.508        2.728      442.192       84.067        0.036      336.744        8.249      853.831
04/22/2014  06:33:00     -286.305     -175.179       -5.178      114.899      161.552       74.027    13201.677    26099.176     5479.990        7.872        2.239      335.646       67.875        0.041      336.674        8.131      853.822
04/22/2014  06:34:00     -353.572     -122.294       -7.363      144.591      120.630       71.981    20906.582    14551.646     5181.293        9.032        2.032      374.124       62.467        0.028      336.612        8.030      853.752
04/22/2014  06:35:00     -240.779      -42.933       -1.081      112.754       87.256       67.292    12713.543     7613.574     4528.152        4.233        1.243      244.576       64.383        0.069      336.639        8.073      853.737
04/22/2014  06:36:00     -279.088     -166.413      -16.723      101.673       90.465       55.027    10337.462     8183.928     3027.963        6.370        1.077      324.936       49.673        0.023      336.616        8.037      853.721
04/22/2014  06:37:00     -278.087      -98.596      -17.150       94.122       72.004       46.899     8859.035     5184.506     2199.537        5.179        0.812      295.048       44.777        0.023      336.641        8.076      853.687
04/22/2014  06:38:00     -134.092     -111.891       11.571      129.921       97.728       60.868    16879.413     9550.856     3704.958        3.038        1.507      174.643       59.634        0.117      336.614        8.033      853.714
04/22/2014  06:39:00     -171.081     -110.235       -2.586       72.264       77.442       42.743     5222.142     5997.234     1826.971        2.723        0.652      203.520       39.968        0.039      336.610        8.026      853.678
04/22/2014  06:40:00     -141.837      -34.349        2.090      107.532       65.524       41.081    11563.111     4293.356     1687.630        1.942        0.877      145.937       41.385        0.080      336.627        8.056      853.537
04/22/2014  06:41:00     -136.669     -133.885        8.526      104.881       92.856       56.985    11000.096     8622.306     3247.282        2.977        1.143      191.320       53.217        0.077      336.667        8.121      853.414
04/22/2014  06:42:00     -283.295     -241.202      -20.494      192.878      149.410       63.331    37201.983    22323.413     4010.757       10.118        3.177      372.068       62.471        0.028      336.778        8.305      853.282
04/22/2014  06:43:00     -173.191      -90.588       44.649      255.087      111.680       78.727    65069.299    12472.348     6197.911        6.195        4.187      195.452      113.225        0.336      336.767        8.288      853.230
04/22/2014  06:44:00     -261.793     -249.921       -6.179      133.368      154.812       68.188    17786.979    23966.686     4649.640        8.871        2.320      361.934       55.305        0.023      336.731        8.227      853.316
04/22/2014  06:45:00     -252.468     -100.724        4.395      135.445       95.871       69.081    18345.219     9191.251     4772.152        5.310        1.615      271.819       76.740        0.080      336.662        8.110      853.368
04/22/2014  06:46:00     -190.311      -70.256        3.655      160.857       90.344       63.116    25874.891     8161.969     3983.640        3.959        1.901      202.865       69.651        0.118      336.663        8.115      853.463
04/22/2014  06:47:00     -304.553     -102.796        0.070      231.653      142.513       72.317    53663.229    20309.990     5229.703        9.125        3.960      321.433       92.453        0.083      336.683        8.148      853.514
04/22/2014  06:48:00     -505.800     -119.679        1.184      186.617      154.175       91.442    34825.767    23770.057     8361.683       16.854        3.348      519.766       96.466        0.034      336.713        8.196      853.537
04/22/2014  06:49:00     -646.190     -234.890      -35.304      158.588      165.613       76.975    25150.043    27427.732     5925.159       26.623        2.925      687.557       66.423        0.009      336.759        8.273      853.607
04/22/2014  06:50:00     -475.934     -121.296       -7.440      152.014      120.949       75.945    23108.198    14628.705     5767.577       14.238        2.175      491.148       66.658        0.018      336.626        8.051      853.615
04/22/2014  06:51:00     -443.648     -136.382      -19.942      121.470      112.847       57.335    14754.852    12734.433     3287.334       12.329        1.539      464.138       54.191        0.014      336.565        7.949      853.600
04/22/2014  06:52:00     -381.554     -149.361       -4.894      172.234      110.117       73.266    29664.451    12125.698     5367.931       10.753        2.358      409.747       78.801        0.037      336.554        7.932      853.604
04/22/2014  06:53:00     -441.928      -72.218      -29.160      160.069      109.924       69.009    25622.167    12083.361     4762.196       12.191        2.123      447.790       70.341        0.025      336.542        7.912      853.659
04/22/2014  06:54:00     -393.283      -83.913      -20.333      128.258      145.698       60.776    16450.042    21227.920     3693.733       10.174        2.069      402.135       41.108        0.010      336.516        7.868      853.686
04/22/2014  06:55:00     -388.890      -51.338       -1.614      189.807      131.295       81.377    36026.551    17238.339     6622.294       10.687        2.994      392.264       82.726        0.044      336.449        7.754      853.722
04/22/2014  06:56:00     -328.701     -180.489      -21.644      200.118      165.680       87.172    40047.069    27449.867     7598.952       10.808        3.755      374.994       90.815        0.059      336.446        7.749      853.755
04/22/2014  06:57:00     -324.263     -170.141      -10.734      187.164      146.612       67.376    35030.376    21495.042     4539.483        9.763        3.053      366.189       80.860        0.049      336.471        7.791      853.756
04/22/2014  06:58:00     -394.281      -73.797      -12.948      169.531      114.701       69.594    28740.915    13156.395     4843.262       10.390        2.337      401.128       67.554        0.028      336.432        7.725      853.754
04/22/2014  06:59:00     -410.404      -45.487      -15.342      229.699      148.277       72.388    52761.662    21986.103     5239.966       12.535        3.999      412.917       90.705        0.048      336.389        7.652      853.774
04/22/2014  07:00:00     -383.085     -112.787       -4.925      248.436      162.973       78.492    61720.694    26560.271     6161.022       12.695        4.722      399.343       91.444        0.052      336.408        7.686      853.790
04/22/2014  07:01:00     -306.198      -47.584      -21.503      150.407      144.422       56.609    22622.179    20857.836     3204.631        7.157        2.334      309.873       58.196        0.035      336.371        7.624      853.833
04/22/2014  07:02:00     -554.502      -93.646      -20.691      181.061      130.459       86.150    32783.242    17019.671     7421.783       18.694        2.861      562.354       86.418        0.024      336.253        7.427      853.861
04/22/2014  07:03:00     -375.761     -117.479        6.844      205.968      141.032       83.000    42422.791    19889.925     6889.059       11.211        3.460      393.698      100.617        0.065      336.276        7.465      853.871
04/22/2014  07:04:00     -404.471     -224.729       -5.268      244.545      199.210      102.419    59802.282    39684.667    10489.669       16.203        5.499      462.709      107.800        0.054      336.255        7.433      853.922
04/22/2014  07:05:00     -415.475     -128.044      -37.967      192.243      150.480       74.198    36957.332    22644.201     5505.388       12.777        3.255      434.758       78.066        0.032      336.257        7.433      853.961
04/22/2014  07:06:00     -411.182      -27.095      -17.728      175.834      161.079       77.016    30917.483    25946.563     5931.418       11.644        3.140      412.074       60.120        0.021      336.205        7.346      853.933
04/22/2014  07:07:00     -407.640      -33.559      -31.791      145.127      132.624       72.761    21061.967    17589.175     5294.146       10.612        2.197      409.019       73.506        0.032      336.209        7.354      853.888
04/22/2014  07:08:00     -382.479      -72.109       -8.816      229.560      162.668       90.562    52697.850    26460.764     8201.387       11.945        4.368      389.217       88.611        0.052      336.246        7.415      853.868
04/22/2014  07:09:00     -503.361     -171.804      -42.094      139.712      143.487       83.499    19519.467    20588.623     6972.109       16.586        2.354      531.873       78.930        0.022      336.231        7.391      853.888
04/22/2014  07:10:00     -444.811     -102.913      -19.514      185.436      153.484       73.644    34386.422    23557.344     5423.404       13.609        3.168      456.561       82.792        0.033      336.234        7.396      853.916
04/22/2014  07:11:00     -504.515     -160.473      -28.409      153.455      149.967       73.848    23548.553    22490.249     5453.455       16.628        2.575      529.421       61.790        0.014      336.207        7.351      853.936
04/22/2014  07:12:00     -480.485     -146.075       -9.245      163.164      136.245       72.235    26622.543    18562.775     5217.903       15.134        2.520      502.199       76.597        0.023      336.148        7.252      854.040
04/22/2014  07:13:00     -238.611     -109.489        3.751      144.653      107.090       56.953    20924.413    11468.275     3243.640        5.228        1.782      262.532       67.542        0.066      336.221        7.376      854.058
04/22/2014  07:14:00     -368.604     -152.183       -9.345      135.614      134.270       62.744    18391.283    18028.506     3936.843        9.973        2.018      398.784       52.948        0.018      336.208        7.350      854.055
04/22/2014  07:15:00     -216.249     -137.578       -4.581      183.502      102.098       68.241    33672.866    10423.972     4656.891        5.722        2.438      256.303       96.392        0.141      336.262        7.443      854.026
04/22/2014  07:16:00     -228.851     -145.508       -7.031      105.293       83.049       50.018    11086.687     6897.113     2501.786        4.704        1.024      271.192       54.024        0.040      336.280        7.472      854.029
04/22/2014  07:17:00     -267.225     -214.802      -13.929      138.085      117.574       60.667    19067.483    13823.740     3680.526        7.715        1.829      342.854       66.012        0.037      336.287        7.485      854.038
04/22/2014  07:18:00     -280.815     -209.685      -13.076      129.086       67.845       52.621    16663.187     4602.994     2769.006        7.351        1.202      350.464       57.432        0.027      336.282        7.476      854.041
04/22/2014  07:19:00      -40.212     -110.128       21.654       89.325       80.250       42.568     7978.915     6440.136     1812.070        1.522        0.812      117.240       41.456        0.125      336.426        7.719      854.020
04/22/2014  07:20:00     -172.152      -79.507        1.468       67.204       52.352       44.892     4516.348     2740.690     2015.268        2.261        0.464      189.625       29.120        0.024      336.376        7.634      854.010
04/22/2014  07:21:00     -160.258     -106.906       -7.165      130.216       77.148       52.239    16956.256     5951.845     2728.947        3.139        1.282      192.643       54.520        0.080      336.424        7.714      854.007
04/22/2014  07:22:00     -383.529      -91.582      -18.200      206.080      104.484       63.494    42469.142    10917.003     4031.514       10.660        2.871      394.312       73.874        0.035      336.366        7.615      853.973
04/22/2014  07:23:00     -240.716     -158.205        3.333      143.915      153.737       63.590    20711.628    23635.061     4043.683        6.568        2.420      288.051       58.211        0.041      336.404        7.678      854.008
04/22/2014  07:24:00     -170.228     -132.036       -2.149      110.847       94.601       59.433    12287.052     8949.388     3532.308        3.559        1.238      215.432       61.682        0.082      336.460        7.774      853.956
04/22/2014  07:25:00     -189.022     -148.070        6.883      159.850      130.681       77.269    25552.148    17077.396     5970.455        5.314        2.430      240.112       83.104        0.120      336.466        7.784      853.950
04/22/2014  07:26:00     -142.010      -87.732        5.956      147.367      104.961       74.221    21716.951    11016.814     5508.733        3.306        1.912      166.925       86.933        0.271      336.576        7.969      853.928
04/22/2014  07:27:00     -265.081     -170.974        4.449      149.041      122.623       84.720    22213.244    15036.449     7177.476        7.196        2.221      315.437       80.280        0.065      336.491        7.824      853.903
04/22/2014  07:28:00     -196.911      -86.630       -1.421      167.379      115.738       69.460    28015.699    13395.301     4824.736        4.625        2.312      215.125       67.423        0.098      336.554        7.930      853.913
04/22/2014  07:29:00     -125.795     -109.525       25.948      155.966      119.599       71.106    24325.352    14303.979     5056.051        3.608        2.184      166.793       85.457        0.263      336.678        8.140      853.918
04/22/2014  07:30:00     -316.866     -159.289       -8.847      142.377      129.238       54.328    20271.227    16702.401     2951.583        8.288        1.996      354.650       56.604        0.025      336.549        7.921      853.932
04/22/2014  07:31:00     -305.545     -186.264       -7.209      169.149      163.470       77.637    28611.496    26722.284     6027.558        9.472        3.068      357.844       83.833        0.055      336.620        8.043      853.978
04/22/2014  07:32:00     -216.971     -179.781        5.629      177.339      116.567       77.442    31449.292    13587.973     5997.254        6.522        2.552      281.776       93.191        0.109      336.759        8.275      853.993
04/22/2014  07:33:00     -370.680     -236.018        3.574      187.065      170.891       86.836    34993.373    29203.681     7540.524       13.242        3.587      439.441       87.903        0.040      336.853        8.430      854.040
04/22/2014  07:34:00     -522.131     -255.156      -11.889      248.634      249.689      109.755    61818.860    62344.788    12046.136       23.701        6.810      581.142      125.154        0.046      336.864        8.449      854.118
04/22/2014  07:35:00     -386.244     -285.587        5.169      231.399      207.096      124.500    53545.583    42888.691    15500.304       17.133        5.597      480.359      136.327        0.081      336.856        8.436      854.160
04/22/2014  07:36:00     -501.209     -364.207      -33.233      351.496      301.013      141.364   123549.767    90608.928    19983.914       30.951       11.707      619.562      153.552        0.061      336.573        7.962      854.117
04/22/2014  07:37:00     -540.377     -292.339      -17.457      335.710      230.301      131.978   112700.973    53038.660    17418.136       28.043        9.158      614.386      156.202        0.065      336.463        7.779      854.224
04/22/2014  07:38:00     -487.912     -317.488        1.932      334.700      217.497      122.111   112024.360    47305.137    14911.212       25.652        8.712      582.114      150.510        0.067      336.365        7.615      854.288
04/22/2014  07:39:00     -680.037     -327.375      -18.145      295.374      265.914      132.212    87246.019    70710.297    17479.888       37.266        8.772      754.735      150.681        0.040      335.946        6.916      854.405
04/22/2014  07:40:00     -431.022     -197.683        2.153      286.860      266.123      134.212    82288.867    70821.659    18012.782       19.796        8.556      474.192      162.666        0.118      335.658        6.436      854.462
04/22/2014  07:41:00     -436.564     -249.409      -12.499      273.948      212.274      112.500    75047.363    45060.227    12656.252       19.283        6.638      502.786      128.246        0.065      335.500        6.172      854.472
04/22/2014  07:42:00     -162.921      -89.784       14.497      169.845      180.199       98.379    28847.309    32471.828     9678.344        5.289        3.550      186.023      103.103        0.307      335.617        6.368      854.415
04/22/2014  07:43:00     -403.059     -170.202      -21.246      282.337      168.555      110.976    79714.116    28410.679    12315.706       15.613        6.022      437.522      129.446        0.088      335.426        6.050      854.261
04/22/2014  07:44:00     -585.244     -158.621      -16.278      241.701      207.823      118.031    58419.432    43190.424    13931.416       24.172        5.777      606.359      131.456        0.047      335.328        5.885      854.170
04/22/2014  07:45:00     -491.917     -209.358      -11.418      298.445      204.761      134.505    89069.202    41926.865    18091.612       21.749        7.454      534.615      155.444        0.085      335.428        6.052      854.072
04/22/2014  07:46:00     -573.758     -220.042      -43.590      377.774      198.035      119.304   142712.850    39217.804    14233.331       28.780        9.808      614.505      159.365        0.067      335.503        6.177      854.036
04/22/2014  07:47:00     -490.395     -150.809      -13.496      277.669      242.310      105.279    77100.267    58713.921    11083.642       20.513        7.345      513.060      122.359        0.057      335.543        6.245      854.085
04/22/2014  07:48:00     -668.666     -420.410       10.121      397.508      355.788      172.049   158012.241   126585.002    29600.824       46.902       15.710      789.848      206.105        0.068      335.555        6.263      854.006
04/22/2014  07:49:00    -1010.210     -416.462      -43.103      386.601      381.595      172.530   149460.266   145614.404    29766.667       76.027       16.242     1092.687      189.764        0.030      335.389        5.987      853.982
04/22/2014  07:50:00     -817.266     -386.916      -15.691      480.197      353.733      147.094   230589.061   125127.217    21636.617       59.754       18.868      904.228      217.625        0.058      335.093        5.497      853.978
04/22/2014  07:51:00     -560.734     -339.313       14.145      347.507      282.597      163.864   120761.140    79861.297    26851.458       32.857       11.374      655.405      192.441        0.086      335.172        5.628      853.995
04/22/2014  07:52:00     -586.905     -299.167        1.928      320.706      317.120      147.489   102852.565   100564.993    21753.117       32.952       11.259      658.755      163.322        0.061      335.188        5.654      853.996
04/22/2014  07:53:00     -573.054     -201.562       -8.010      325.518      210.651      135.461   105961.686    44373.892    18349.681       26.885        8.434      607.468      142.858        0.055      335.184        5.647      854.016
04/22/2014  07:54:00     -545.163     -381.440      -25.150      272.699      234.968      128.904    74364.515    55210.122    16616.284       29.473        7.310      665.357      145.891        0.048      335.225        5.714      854.003
04/22/2014  07:55:00     -446.583     -177.130       13.920      268.038      226.927      128.077    71844.342    51495.650    16403.797       18.535        6.987      480.429      153.363        0.102      335.347        5.918      853.976
04/22/2014  07:56:00     -510.751     -268.744       -6.063      242.765      213.527      113.737    58934.679    45593.809    12936.117       22.527        5.873      577.140      122.399        0.045      335.433        6.061      853.982
04/22/2014  07:57:00     -555.346     -218.250      -34.011      302.178      200.681      129.340    91311.833    40272.691    16728.886       25.273        7.416      596.693      135.881        0.052      335.530        6.223      853.999
04/22/2014  07:58:00     -436.355     -186.343        2.583      297.596      261.913      126.661    88563.155    68598.433    16042.952       19.914        8.660      474.478      154.730        0.106      335.584        6.311      854.025
04/22/2014  07:59:00     -600.111     -218.937      -12.978      327.917      232.108      109.466   107529.593    53874.004    11982.867       29.078        8.669      638.801      133.472        0.044      335.586        6.313      853.995
04/22/2014  08:00:00     -617.527     -199.601      -19.470      303.817      236.831      125.142    92304.911    56089.110    15660.613       29.277        8.203      648.984      129.399        0.040      335.662        6.442      854.014
04/22/2014  08:01:00     -610.437     -342.769        2.355      327.461      229.884      140.464   107230.678    52846.650    19730.043       33.493        8.990      700.088      149.299        0.045      335.666        6.449      854.036
04/22/2014  08:02:00     -337.575      -75.646      -11.033      232.375      167.940      103.680    53998.316    28204.011    10749.600       10.636        4.648      345.947      131.152        0.144      335.843        6.744      854.049
04/22/2014  08:03:00     -533.217     -106.782      -20.859      240.641      209.993      104.808    57907.948    44097.018    10984.616       20.455        5.649      543.804      110.326        0.041      335.796        6.665      854.023
04/22/2014  08:04:00     -409.939     -133.119      -48.563      143.798      189.815       94.211    20677.997    36029.642     8875.798       12.684        3.279      431.012       67.948        0.025      335.850        6.754      854.008
04/22/2014  08:05:00     -415.278      -54.017        2.947      318.175      204.427      105.031   101235.044    41790.417    11031.443       16.469        7.703      418.776      132.286        0.100      335.890        6.822      853.967
04/22/2014  08:06:00     -545.911     -112.914      -34.386      270.468      256.472      102.665    73152.994    65777.701    10540.152       23.068        7.474      557.466      109.252        0.038      335.894        6.829      853.947
04/22/2014  08:07:00     -292.740      -13.719       20.194      281.646      134.116      100.557    79324.385    17987.092    10111.671        9.684        5.371      293.061      130.782        0.199      336.101        7.175      853.909
04/22/2014  08:08:00     -329.088     -123.456        5.266      306.554      252.216      118.665    93975.443    63612.959    14081.458       14.758        8.583      351.483      130.907        0.139      336.035        7.064      853.915
04/22/2014  08:09:00     -515.511      -84.542      -18.880      306.912      268.756      120.510    94195.089    72229.610    14522.644       22.707        9.047      522.398      137.559        0.069      335.983        6.977      853.938
04/22/2014  08:10:00     -313.778      -17.627      -17.865      184.340      150.401       92.637    33981.295    22620.593     8581.581        8.212        3.259      314.273       90.668        0.083      336.166        7.282      854.015
04/22/2014  08:11:00     -495.708       13.135      -17.095      251.175      190.444       98.491    63088.920    36268.769     9700.543       17.760        5.453      495.882      118.574        0.057      336.046        7.081      854.021
04/22/2014  08:12:00     -517.994     -116.738      -51.065      250.550      149.733       94.548    62775.175    22419.877     8939.265       18.932        4.707      530.985      100.194        0.036      335.967        6.951      854.015
04/22/2014  08:13:00     -329.460     -182.255       -1.225      221.150      146.208       83.586    48907.446    21376.832     6986.590       10.950        3.864      376.511       87.208        0.054      336.123        7.211      854.012
04/22/2014  08:14:00     -419.555     -155.103      -25.951      202.751      188.932       90.781    41107.900    35695.320     8241.146       14.288        4.252      447.307       94.969        0.045      336.162        7.274      854.006
04/22/2014  08:15:00     -383.630     -211.675      -14.270      249.144      209.332      113.604    62072.752    43819.706    12905.801       15.547        5.940      438.153      127.672        0.085      336.184        7.312      853.945
04/22/2014  08:16:00     -386.789     -307.369      -23.407      216.236      251.731       89.341    46757.851    63368.593     7981.814       18.135        5.905      494.046       87.224        0.031      336.185        7.314      853.925
04/22/2014  08:17:00     -432.156     -127.817      -15.435      280.955      225.399      113.295    78935.454    50804.922    12835.775       17.293        7.129      450.662      137.738        0.093      336.264        7.445      853.938
04/22/2014  08:18:00     -424.141     -132.350      -22.384      275.044      193.693       98.959    75649.211    37516.940     9792.825       16.041        6.148      444.311      117.081        0.069      336.312        7.527      853.939
04/22/2014  08:19:00     -486.440     -220.041      -28.890      210.047      189.110       96.430    44119.645    35762.440     9298.838       18.751        4.459      533.893      102.905        0.037      336.299        7.504      853.954
04/22/2014  08:20:00     -353.388     -116.173        3.447      267.554      241.898      112.852    71585.145    58514.753    12735.599       14.058        7.142      371.994      137.909        0.137      336.371        7.623      854.006
04/22/2014  08:21:00     -541.845     -205.132      -17.574      474.611      242.019      154.492   225255.840    58573.221    23867.794       32.178       15.385      579.375      226.865        0.153      336.263        7.445      853.966
04/22/2014  08:22:00     -314.135     -157.118        9.210      272.357      224.748      137.862    74178.139    50511.516    19005.794       13.354        7.185      351.236      140.197        0.159      336.265        7.447      853.951
04/22/2014  08:23:00     -189.716     -116.424        0.035      160.953      155.709       79.383    25905.736    24245.357     6301.617        5.299        2.823      222.591       85.750        0.148      336.432        7.727      854.016
04/22/2014  08:24:00     -415.350     -114.082      -10.603      267.474      241.794       91.628    71542.399    58464.535     8395.758       16.199        6.920      430.733       93.700        0.047      336.313        7.526      854.012
04/22/2014  08:25:00     -616.807     -280.420      -24.430      277.799      176.753      102.420    77172.485    31241.528    10489.935       28.927        5.945      677.559      112.422        0.028      336.173        7.294      854.005
04/22/2014  08:26:00     -494.375     -233.728       -6.734      254.626      257.502      108.314    64834.568    66307.132    11731.826       22.095        7.144      546.841      114.656        0.044      336.258        7.436      854.010
04/22/2014  08:27:00     -218.626     -142.960       38.348      262.921      219.562      120.985    69127.341    48207.259    14637.310       10.081        6.599      261.218      134.547        0.265      336.574        7.965      854.007
04/22/2014  08:28:00     -442.008      -40.066        8.181      221.283      180.821      101.938    48966.038    32696.102    10391.421       14.453        4.603      443.820      106.201        0.057      336.264        7.446      854.031
04/22/2014  08:29:00     -585.570     -174.591      -15.330      298.620      209.656      128.576    89174.080    43955.791    16531.781       26.161        7.483      611.044      139.098        0.052      336.121        7.207      853.969
04/22/2014  08:30:00     -198.308     -172.705      -20.138      246.873      178.349      103.433    60946.523    31808.359    10698.297        8.649        5.173      262.970       76.819        0.085      336.371        7.624      853.969
04/22/2014  08:31:00     -375.007     -100.404        3.023      268.015      197.785      108.910    71831.878    39118.802    11861.465       13.674        6.141      388.215      127.109        0.107      336.309        7.521      854.022
04/22/2014  08:32:00     -501.413       -6.554      -27.140      243.364      148.581      100.237    59226.278    22076.391    10047.523       17.175        4.568      501.456      108.018        0.046      336.184        7.313      854.032
04/22/2014  08:33:00     -426.450      -60.565       -5.538      259.532      196.454      101.075    67357.085    38594.098    10216.191       15.084        5.808      430.729      112.074        0.068      336.249        7.420      853.997
04/22/2014  08:34:00     -249.996     -244.987        5.316      250.844      214.112      129.531    62922.523    45843.909    16778.387       12.402        6.277      350.024      159.499        0.208      336.372        7.627      853.938
04/22/2014  08:35:00     -377.209     -229.028        2.840      264.205      172.632      104.351    69804.363    29801.683    10889.139       15.260        5.525      441.294      123.508        0.078      336.290        7.489      853.903
04/22/2014  08:36:00     -513.316     -146.575      -18.625      343.441      232.618      113.472   117951.617    54111.223    12875.816       23.509        9.247      533.833      128.682        0.058      336.339        7.571      853.929
04/22/2014  08:37:00     -506.505       -1.422       -9.634      274.338      211.724      112.691    75261.095    44826.987    12699.293       19.469        6.639      506.506      113.406        0.050      336.195        7.330      853.843
04/22/2014  08:38:00     -516.093     -224.804      -21.758      290.690      241.998      119.048    84500.730    58562.867    14172.392       23.727        7.862      562.929      126.662        0.051      336.233        7.394      853.849
04/22/2014  08:39:00     -433.117      -71.682       18.357      348.380      222.539      132.546   121368.819    49523.772    17568.547       19.073        9.423      439.008      167.589        0.146      336.183        7.310      853.838
04/22/2014  08:40:00     -253.194      -57.169        8.869      338.664      125.168      113.593   114693.097    15667.056    12903.288       10.533        7.163      259.568      161.184        0.386      336.374        7.631      853.836
04/22/2014  08:41:00     -579.456     -228.717      -14.740      424.246      218.409       90.907   179984.366    47702.389     8264.102       31.208       11.798      622.961      133.797        0.046      336.246        7.415      853.835
04/22/2014  08:42:00     -357.396     -144.765      -18.337      213.055      200.519       93.396    45392.272    40207.763     8722.773       12.166        4.716      385.602       90.923        0.056      336.195        7.331      853.852
04/22/2014  08:43:00     -396.695     -204.949        2.418      242.629      212.007       98.343    58868.905    44947.084     9671.249       15.641        5.674      446.510      106.947        0.057      336.232        7.392      853.860
04/22/2014  08:44:00     -443.848      -54.341        2.304      230.806      201.915      117.440    53271.540    40769.748    13792.044       15.387        5.392      447.162      127.239        0.081      336.263        7.442      853.891
04/22/2014  08:45:00     -533.046     -196.878      -15.142      341.511      222.068      137.983   116629.989    49314.280    19039.407       25.402        9.249      568.242      165.600        0.085      336.208        7.352      853.898
04/22/2014  08:46:00     -298.064      -98.847       15.104      236.776      161.004      109.961    56062.943    25922.248    12091.408        9.644        4.704      314.027      120.420        0.147      336.448        7.754      853.901
04/22/2014  08:47:00     -365.301     -203.458       10.177      233.092      186.614      104.720    54331.975    34824.789    10966.370       13.751        5.006      418.139      119.872        0.082      336.391        7.657      853.939
04/22/2014  08:48:00     -225.106     -280.313       31.718      245.936      229.082      123.425    60484.666    52478.425    15233.824       12.920        6.410      359.511      130.418        0.132      336.408        7.686      853.952
04/22/2014  08:49:00     -219.837      -91.479       21.444      187.216      142.593       85.876    35049.918    20332.815     7374.749        5.994        3.138      238.111       98.458        0.171      336.652        8.095      854.033
04/22/2014  08:50:00     -324.006      -55.731       -4.592      222.021      143.405      102.965    49293.333    20564.884    10601.695        9.427        4.023      328.764      109.096        0.110      336.589        7.990      854.069
04/22/2014  08:51:00     -656.083     -261.057      -39.588      378.925      238.345      111.202   143584.175    56808.188    12365.865       35.642       10.638      706.113      106.033        0.023      336.326        7.547      854.048
04/22/2014  08:52:00     -337.551     -231.418       -8.643      247.824      214.015      115.563    61416.768    45802.435    13354.897       14.405        6.029      409.261      143.294        0.123      336.598        8.005      854.092
04/22/2014  08:53:00     -486.441     -199.746       -4.228      354.579      229.044      132.449   125726.263    52461.200    17542.632       23.610        9.787      525.854      159.805        0.092      336.410        7.688      854.129
04/22/2014  08:54:00     -544.667     -125.267       -9.308      265.043      219.193      123.564    70247.981    48045.508    15268.129       22.297        6.678      558.887      115.893        0.043      336.390        7.657      854.124
04/22/2014  08:55:00     -419.166     -229.049       -9.549      259.042      218.086      128.349    67102.839    47561.486    16473.390       17.967        6.557      477.664      140.116        0.086      336.497        7.835      854.169
04/22/2014  08:56:00     -478.758     -373.380       -2.563      337.816      266.333      165.130   114119.577    70933.398    27267.760       29.043       10.616      607.142      193.497        0.102      336.458        7.770      854.165
04/22/2014  08:57:00     -500.811     -417.263      -18.752      272.398      186.662      144.964    74200.763    34842.861    21014.573       27.764        6.503      651.859      144.580        0.049      336.463        7.777      854.240
04/22/2014  08:58:00     -559.996     -219.607      -31.301      276.107      216.518      100.190    76234.950    46879.856    10037.958       24.795        6.658      601.517      109.367        0.033      336.349        7.587      854.281
04/22/2014  08:59:00     -428.966     -238.133        3.796      466.311      282.959      152.692   217445.959    80065.715    23314.994       28.072       16.041      490.631      209.165        0.182      336.488        7.819      854.339
04/22/2014  09:00:00     -311.217     -204.897       17.384      320.757      230.806      136.634   102885.265    53271.426    18668.838       15.695        8.741      372.611      161.275        0.187      336.550        7.924      854.378
04/22/2014  09:01:00     -554.587     -248.555      -26.009      344.691      235.646      135.664   118811.916    55529.129    18404.810       28.135        9.637      607.739      164.671        0.073      336.388        7.652      854.424
04/22/2014  09:02:00     -662.848     -252.080      -39.411      360.726      319.274      124.817   130122.946   101935.591    15579.387       37.600       12.382      709.163      161.145        0.052      336.419        7.705      854.451
04/22/2014  09:03:00     -337.023     -154.972       10.893      210.095      178.047      114.248    44139.843    31700.680    13052.709       11.329        4.445      370.946      107.891        0.085      336.533        7.896      854.500
04/22/2014  09:04:00     -415.903     -148.037      -21.054      347.649      199.844      127.226   120859.542    39937.800    16186.581       18.612        8.849      441.464      157.065        0.127      336.626        8.050      854.500
04/22/2014  09:05:00     -491.762     -377.522       -8.945      293.521      248.115      117.478    86154.368    61560.973    13800.983       27.294        8.076      619.962      136.012        0.048      336.503        7.845      854.466
04/22/2014  09:06:00     -537.181     -309.690      -24.367      294.818      283.433      140.359    86917.693    80334.053    19700.766       28.597        9.348      620.058      164.872        0.071      336.525        7.882      854.470
04/22/2014  09:07:00     -422.206     -273.660       -1.276      302.971      264.589      118.547    91791.717    70007.217    14053.323       21.447        8.793      503.138      146.251        0.084      336.637        8.069      854.514
04/22/2014  09:08:00     -449.495     -245.801      -15.781      239.718      201.815      109.606    57464.781    40729.187    12013.483       18.644        5.510      512.312      108.151        0.045      336.531        7.891      854.529
04/22/2014  09:09:00     -670.681     -277.177      -43.000      322.581      289.890      135.643   104058.615    84036.385    18398.915       36.745       10.325      725.700      156.194        0.046      336.474        7.796      854.563
04/22/2014  09:10:00     -560.016       10.865      -37.349      248.937      178.292       95.328    61969.842    31787.984     9087.498       20.897        5.142      560.122      104.862        0.035      336.596        8.000      854.565
04/22/2014  09:11:00     -426.469     -148.977        2.770      262.566      214.061      104.553    68941.112    45822.184    10931.236       16.486        6.285      451.741      110.319        0.060      336.703        8.180      854.541
04/22/2014  09:12:00     -489.927     -283.478       -4.809      262.289      216.296      112.567    68795.465    46783.791    12671.401       22.431        6.413      566.029      134.142        0.056      336.604        8.014      854.505
04/22/2014  09:13:00     -539.665     -212.593       -2.058      336.381      258.402      130.745   113152.083    66771.561    17094.357       26.669        9.851      580.029      173.946        0.090      336.583        7.979      854.522
04/22/2014  09:14:00     -379.931      -94.829      -16.848      217.614      174.167       88.004    47355.931    30334.299     7744.668       11.951        4.272      391.586       96.108        0.060      336.807        8.354      854.536
04/22/2014  09:15:00     -329.298     -134.683       11.420      210.204      235.693      116.051    44185.599    55550.993    13467.879       11.993        5.660      355.776      121.616        0.117      336.790        8.326      854.552
04/22/2014  09:16:00     -286.190     -249.295       -1.140      201.814      181.277      101.439    40729.043    32861.486    10289.831       11.395        4.194      379.543       88.678        0.055      336.703        8.180      854.537
04/22/2014  09:17:00     -540.542     -332.758      -15.318      407.116      302.165      141.796   165743.317    91303.478    20106.045       34.009       13.858      634.754      175.676        0.077      336.731        8.225      854.497
04/22/2014  09:18:00     -538.902     -384.485       -7.388      389.076      274.611      172.625   151379.833    75411.049    29799.358       34.739       12.830      662.000      204.542        0.095      336.606        8.017      854.490
04/22/2014  09:19:00     -565.179     -317.757        3.631      292.840      237.950      147.404    85755.368    56620.013    21728.011       29.222        8.205      648.380      156.935        0.059      336.582        7.977      854.540
04/22/2014  09:20:00     -531.255     -423.611      -23.355      248.014      260.763      127.856    61510.960    67997.529    16347.198       30.401        7.293      679.469      137.102        0.041      336.528        7.887      854.491
04/22/2014  09:21:00     -495.178     -297.469       -3.964      325.010      243.651      142.467   105631.182    59365.821    20296.834       25.946        9.265      577.658      152.393        0.070      336.609        8.022      854.468
04/22/2014  09:22:00     -436.378     -227.241        7.657      293.042      222.416      105.997    85873.607    49468.984    11235.462       19.432        7.329      492.000      108.357        0.049      336.717        8.203      854.440
04/22/2014  09:23:00     -712.144     -400.693      -27.738      331.968      289.187      139.575   110202.799    83629.031    19481.283       44.085       10.666      817.132      172.511        0.045      336.518        7.870      854.395
04/22/2014  09:24:00     -473.565     -314.608        7.503      281.429      224.023      135.919    79202.126    50186.328    18474.109       23.555        7.393      568.544      158.433        0.078      336.780        8.307      854.429
04/22/2014  09:25:00     -567.914     -326.017       -1.149      338.112      219.184      137.539   114319.901    48041.741    18916.863       30.501        9.064      654.838      150.789        0.053      336.653        8.098      854.476
04/22/2014  09:26:00     -599.828     -399.106      -21.754      306.534      336.500      141.055    93963.257   113232.220    19896.614       37.328       11.355      720.472      161.212        0.050      336.608        8.022      854.407
04/22/2014  09:27:00     -610.046     -252.692       -4.910      286.918      266.051      142.114    82321.678    70782.995    20196.445       30.463        8.665      660.310      145.530        0.049      336.833        8.397      854.352
04/22/2014  09:28:00     -783.089     -485.072      -35.714      375.145      247.455      150.366   140733.958    61234.119    22610.015       53.714       11.229      921.153      173.456        0.035      336.719        8.206      854.369
04/22/2014  09:29:00     -495.430     -378.216      -13.863      323.824      269.484      152.092   104862.187    72621.568    23131.864       29.461       10.031      623.296      177.927        0.081      336.783        8.313      854.345
04/22/2014  09:30:00     -490.778     -289.862      -24.948      269.964      236.578      107.742    72880.724    55969.190    11608.275       23.295        7.023      569.985       99.084        0.030      336.879        8.472      854.284
04/22/2014  09:31:00     -712.874     -119.434      -24.441      308.558      289.169      131.245    95208.069    83618.592    17225.321       35.951        9.803      722.810      129.409        0.032      336.853        8.430      854.259
04/22/2014  09:32:00     -616.335     -297.475      -27.079      319.994      266.654      135.236   102396.471    71104.476    18288.818       33.040        9.589      684.368      161.031        0.055      336.868        8.455      854.306
04/22/2014  09:33:00     -698.901     -438.369      -23.890      357.449      278.825      152.276   127769.826    77743.518    23187.960       45.491       11.435      825.004      160.203        0.038      336.639        8.073      854.211
04/22/2014  09:34:00     -391.752     -277.581       15.703      312.383      262.206      155.946    97582.889    68751.783    24319.269       21.067        9.533      480.126      160.784        0.112      336.886        8.486      854.113
04/22/2014  09:35:00     -505.495     -359.069       -4.310      325.127      264.623      139.200   105707.717    70025.452    19376.610       28.975        9.755      620.045      174.004        0.079      336.884        8.483      854.073
04/22/2014  09:36:00     -552.356     -269.798      -12.263      355.442      306.247      154.963   126339.348    93787.273    24013.432       31.104       12.207      614.726      193.789        0.099      336.890        8.491      853.980
04/22/2014  09:37:00     -511.753     -313.091       -2.928      267.690      192.214      133.953    71658.193    36946.264    17943.499       24.321        6.327      599.931      139.475        0.054      336.985        8.650      853.943
04/22/2014  09:38:00     -492.949     -203.639       -1.627      284.030      221.913      117.159    80672.784    49245.545    13726.337       21.403        7.182      533.355      126.004        0.056      337.068        8.788      853.974
04/22/2014  09:39:00     -635.593     -337.489       -7.662      436.014      294.099      170.485   190108.525    86494.013    29065.074       41.174       15.283      719.637      203.732        0.080      336.899        8.506      853.921
04/22/2014  09:40:00     -641.450     -270.498      -11.104      291.391      276.514      136.699    84908.770    76459.807    18686.496       33.237        9.003      696.152      154.500        0.049      336.913        8.529      853.941
04/22/2014  09:41:00     -692.802     -391.015      -31.178      370.217      324.833      147.411   137060.914   105516.451    21729.878       44.902       13.215      795.529      168.156        0.045      336.847        8.420      853.954
04/22/2014  09:42:00     -370.617     -162.678        8.784      279.553      213.453      122.257    78149.942    45562.312    14946.716       15.125        6.933      404.749      139.300        0.118      337.136        8.903      853.988
04/22/2014  09:43:00     -512.376     -339.658      -17.877      385.787      251.721      152.584   148831.875    63363.295    23282.003       30.680       11.774      614.733      190.107        0.096      337.073        8.797      853.978
04/22/2014  09:44:00     -512.552     -295.399       -3.335      306.011      273.693      119.265    93642.643    74908.115    14224.113       26.634        9.139      591.583      121.983        0.043      337.073        8.799      853.998
04/22/2014  09:45:00     -630.368     -382.457      -16.108      380.148      263.536      150.193   144512.173    69451.142    22557.893       39.016       11.826      737.318      176.369        0.057      336.962        8.613      854.086
04/22/2014  09:46:00     -695.993     -352.978      -11.876      332.531      237.093      129.091   110576.934    56213.145    16664.582       39.626        9.173      780.384      137.356        0.031      336.861        8.444      854.070
04/22/2014  09:47:00     -721.993     -473.306      -24.079      373.295      300.600      170.882   139349.483    90360.495    29200.788       50.234       12.946      863.304      214.207        0.062      336.908        8.522      854.056
04/22/2014  09:48:00     -794.096     -481.514      -38.951      384.864      339.536      164.232   148120.173   115284.434    26972.083       57.711       14.519      928.679      197.861        0.045      336.941        8.575      854.032
04/22/2014  09:49:00     -448.810     -247.030       15.724      366.347      275.194      159.282   134210.146    75731.553    25370.747       24.896       11.766      512.303      202.463        0.156      337.155        8.935      854.063
04/22/2014  09:50:00     -608.804     -409.384      -21.878      381.721      277.623      161.631   145710.746    77074.608    26124.604       39.376       12.445      733.647      194.133        0.070      336.948        8.589      854.122
04/22/2014  09:51:00     -668.881     -349.542      -32.225      324.509      207.443      122.693   105306.087    43032.454    15053.465       36.697        8.170      754.706      148.530        0.039      336.956        8.602      854.173
04/22/2014  09:52:00     -655.557     -278.092      -13.404      303.731      258.787      150.642    92252.701    66970.544    22693.098       34.456        9.096      712.103      158.094        0.049      336.964        8.616      854.198
04/22/2014  09:53:00     -571.718     -178.217      -20.946      301.451      281.288      122.758    90872.993    79122.660    15069.530       27.203        9.253      598.851      126.616        0.045      337.048        8.756      854.178
04/22/2014  09:54:00     -473.532     -161.109        1.751      306.816      197.717      112.378    94135.865    39091.855    12628.783       19.800        7.293      500.188      139.223        0.077      337.188        8.991      854.235
04/22/2014  09:55:00     -646.844     -220.118      -33.273      281.428      223.410      105.703    79201.803    49912.225    11173.085       30.410        7.014      683.271      129.756        0.036      337.101        8.845      854.235
04/22/2014  09:56:00     -447.234     -196.841       -5.263      285.690      244.636      111.135    81619.008    59846.611    12351.064       19.627        7.691      488.635      138.903        0.081      337.276        9.138      854.180
04/22/2014  09:57:00     -763.866     -218.327      -37.480      339.582      328.674      143.548   115316.155   108026.894    20605.932       43.821       12.197      794.455      136.667        0.030      337.057        8.771      854.186
04/22/2014  09:58:00     -742.613     -338.231      -20.609      410.747      309.296      139.101   168713.050    95663.977    19348.983       47.496       14.186      816.011      153.998        0.036      336.946        8.586      854.210
04/22/2014  09:59:00     -527.935     -238.753       -6.035      260.830      235.483      106.923    68032.243    55452.267    11432.551       23.531        6.746      579.412      112.387        0.038      336.980        8.642      854.272
04/22/2014  10:00:00     -651.040     -188.236      -14.182      319.985      253.357      133.434   102390.623    64189.824    17804.564       32.190        9.219      677.706      161.053        0.056      337.066        8.786      854.208
04/22/2014  10:01:00     -535.902     -262.420      -14.065      361.235      248.251      136.722   130490.622    61628.633    18692.927       28.349       10.541      596.703      163.087        0.075      337.082        8.814      854.272
04/22/2014  10:02:00     -776.420     -432.405      -41.467      402.771      312.917      162.931   162224.785    97917.347    26546.470       53.905       14.334      888.708      197.271        0.049      336.882        8.478      854.243
04/22/2014  10:03:00     -682.470     -342.984      -28.960      398.058      237.459      129.470   158449.910    56387.002    16762.593       40.787       11.580      763.808      158.710        0.043      337.055        8.768      854.348
04/22/2014  10:04:00     -555.496     -207.502      -13.182      316.636      271.965      128.377   100258.308    73964.894    16480.599       27.122        9.535      592.986      150.928        0.065      337.118        8.875      854.519
04/22/2014  10:05:00     -732.806     -357.761      -41.173      336.010      234.888      138.890   112902.665    55172.255    19290.374       42.699        9.368      815.474      147.644        0.033      337.059        8.776      854.486
04/22/2014  10:06:00     -585.859     -301.913      -16.325      339.881      260.980      134.856   115519.398    68110.690    18186.108       31.819       10.091      659.076      150.418        0.052      337.107        8.856      854.648
04/22/2014  10:07:00     -647.604     -439.035       -8.438      329.103      264.126      158.083   108308.648    69762.806    24990.098       40.760       10.153      782.395      180.529        0.053      336.768        8.289      854.616
04/22/2014  10:08:00     -655.438     -318.031      -25.980      345.883      214.993      115.633   119635.014    46222.028    13370.981       35.529        8.961      728.521      134.705        0.034      336.962        8.612      854.634
04/22/2014  10:09:00     -591.993     -349.004        5.670      356.111      240.690      137.670   126814.733    57931.892    18952.968       33.796       10.185      687.211      159.435        0.054      337.022        8.713      854.730
04/22/2014  10:10:00     -462.479     -285.004      -30.787      243.125      216.304      120.851    59109.624    46787.624    14604.853       20.826        6.025      543.244      112.945        0.043      336.891        8.495      854.835
04/22/2014  10:11:00     -460.412     -262.396      -12.365      335.617      250.502      112.119   112639.072    62751.122    12570.615       23.443        9.398      529.935      147.581        0.078      336.886        8.485      854.852
04/22/2014  10:12:00     -583.168     -331.470      -14.125      299.111      319.746      131.909    89467.184   102237.204    17400.060       32.959       10.455      670.789      147.175        0.048      336.681        8.142      854.809
04/22/2014  10:13:00     -603.924     -379.511        9.441      345.629      250.717      113.040   119459.351    62859.035    12777.929       35.193        9.755      713.269      128.248        0.032      336.733        8.230      854.761
04/22/2014  10:14:00     -298.071     -282.388        7.549      224.673      188.693       97.996    50478.175    35604.963     9603.287       13.215        4.784      410.596      102.985        0.063      337.044        8.748      854.844
04/22/2014  10:15:00     -561.765     -355.241       -7.268      275.993      258.862      130.453    76171.862    67009.389    17017.888       30.098        8.010      664.663      150.878        0.052      336.723        8.210      854.872
04/22/2014  10:16:00     -597.402     -475.792      -19.214      223.677      244.543      100.871    50031.224    59801.127    10174.984       35.180        6.000      763.720       92.886        0.015      336.687        8.153      854.843
04/22/2014  10:17:00     -490.812     -296.992      -15.248      264.233      258.395      112.506    69819.175    66767.886    12657.634       23.926        7.462      573.673      139.992        0.060      336.710        8.192      854.810
04/22/2014  10:18:00     -472.359     -163.326      -11.852      217.331      184.142       91.339    47232.755    33908.430     8342.869       16.969        4.474      499.798      102.336        0.042      336.974        8.632      854.816
04/22/2014  10:19:00     -360.841     -133.613      -15.193      157.082      188.734       75.673    24674.650    35620.700     5726.392       10.714        3.301      384.784       83.995        0.048      337.021        8.710      854.833
04/22/2014  10:20:00     -343.131     -158.470       -5.415      190.558      139.533       76.155    36312.312    19469.390     5799.561       10.222        3.079      377.957       90.616        0.057      337.303        9.183      854.840
04/22/2014  10:21:00     -480.599     -171.467       -1.767      278.371      244.552      124.385    77490.332    59805.708    15471.519       20.654        7.638      510.271      141.513        0.077      337.300        9.178      854.884
04/22/2014  10:22:00     -506.507     -261.939        7.853      342.300      243.140      130.721   117169.142    59117.012    17088.074       25.926        9.669      570.230      138.478        0.059      337.039        8.740      854.843
04/22/2014  10:23:00     -550.171     -426.888        3.462      344.499      282.409      145.663   118679.780    79754.857    21217.663       35.225       10.983      696.363      156.184        0.050      336.776        8.301      854.902
04/22/2014  10:24:00     -517.390     -292.160      -16.625      314.911      261.351      140.391    99169.157    68304.584    19709.585       27.022        9.359      594.181      147.530        0.062      336.842        8.411      854.881
04/22/2014  10:25:00     -740.920     -248.097      -31.984      301.925      269.091      135.723    91158.528    72409.930    18420.672       39.673        9.099      781.355      155.379        0.040      336.816        8.369      854.938
04/22/2014  10:26:00     -387.439     -218.799        2.707      392.025      315.984      153.549   153683.748    99846.189    23577.246       23.749       13.855      444.952      184.437        0.172      336.929        8.558      855.035
04/22/2014  10:27:00     -536.600     -178.985       -5.594      347.095      284.955      143.958   120474.905    81199.464    20723.875       27.116       11.120      565.664      169.159        0.089      336.784        8.316      855.001
04/22/2014  10:28:00     -448.692     -310.990        0.062      279.084      229.124      132.361    77887.846    52497.787    17519.413       22.294        7.395      545.930      147.649        0.073      336.677        8.136      855.068
04/22/2014  10:29:00     -387.857     -232.581        4.579      240.014      202.473      106.635    57606.772    40995.298    11370.987       15.724        5.499      452.246      118.170        0.068      336.701        8.177      855.070
04/22/2014  10:30:00     -655.673     -124.461      -26.426      290.631      237.119      109.789    84466.130    56225.617    12053.555       29.939        7.637      667.381      120.510        0.033      336.628        8.055      855.048
04/22/2014  10:31:00     -625.413     -123.884      -33.177      309.103      237.182      125.523    95544.410    56255.332    15755.966       28.754        8.378      637.565      135.549        0.045      336.639        8.072      855.118
04/22/2014  10:32:00     -484.389      -88.226      -22.077      325.430      199.153      102.949   105904.771    39661.864    10598.586       19.950        7.808      492.358      150.732        0.094      336.859        8.441      855.147
04/22/2014  10:33:00     -450.687     -182.529        4.583      308.785      222.109      119.274    95348.054    49332.346    14226.312       19.765        7.945      486.246      139.546        0.082      336.844        8.415      855.165
04/22/2014  10:34:00     -556.893     -110.019      -24.791      343.300      266.490      137.896   117854.559    71016.748    19015.189       26.533       10.394      567.656      181.118        0.102      336.742        8.245      855.119
04/22/2014  10:35:00     -528.649     -102.617      -10.096      378.202      195.557      142.062   143036.928    38242.680    20181.666       24.574       10.073      538.516      176.597        0.108      336.640        8.073      855.118
04/22/2014  10:36:00     -573.731     -299.892      -16.054      377.725      281.073      131.845   142676.011    79002.101    17383.059       32.916       11.953      647.381      155.777        0.058      336.648        8.089      855.095
04/22/2014  10:37:00     -565.061     -339.845        7.763      468.816      346.636      161.224   219788.062   120156.247    25993.064       40.032       18.297      659.385      198.145        0.090      336.494        7.831      855.120
04/22/2014  10:38:00     -668.528     -409.235       14.057      445.927      357.017      185.101   198850.904   127461.361    34262.505       48.752       18.029      783.839      234.234        0.089      336.404        7.678      854.942
04/22/2014  10:39:00     -963.132     -272.693      -36.765      498.089      450.814      172.320   248093.073   203232.994    29694.334       74.208       24.051     1000.992      234.782        0.055      336.124        7.211      854.968
04/22/2014  10:40:00     -969.685      -81.851      -55.395      478.050      330.786      178.409   228531.713   109419.142    31829.594       65.985       18.489      973.133      221.815        0.052      336.147        7.252      855.051
04/22/2014  10:41:00     -550.064     -348.967      -29.985      342.783      303.498      140.654   117499.998    92110.852    19783.651       32.728       11.470      651.420      158.004        0.059      336.326        7.549      855.068
04/22/2014  10:42:00     -837.360     -357.796      -45.466      370.298      345.755      162.043   137120.846   119546.655    26257.926       55.703       14.146      910.598      184.098        0.041      336.269        7.453      855.148
04/22/2014  10:43:00     -777.603     -284.595      -38.433      392.266      307.818      148.909   153872.873    94752.058    22173.775       47.891       13.540      828.046      169.079        0.042      336.174        7.294      855.274
04/22/2014  10:44:00     -626.363     -247.882      -11.155      332.696      262.453      137.366   110686.687    68881.797    18869.381       32.613        9.922      673.629      159.001        0.056      336.168        7.285      855.371
04/22/2014  10:45:00     -451.301     -320.855      -16.363      324.409      237.241      119.633   105240.921    56283.345    14311.968       24.133        8.792      553.733      130.004        0.055      336.262        7.443      855.522
04/22/2014  10:46:00     -418.632     -261.250       12.277      223.043      160.962      101.451    49748.316    25908.734    10292.280       16.478        4.297      493.462       98.508        0.040      336.122        7.210      855.529
04/22/2014  10:47:00     -282.643     -116.088       15.686      173.756      148.836       70.489    30191.068    22152.096     4968.704        7.545        2.866      305.554       77.810        0.065      336.115        7.197      855.524
04/22/2014  10:48:00     -446.930      -74.847      -13.004      287.919      177.898      108.125    82897.524    31647.789    11690.915       16.585        6.312      453.154      133.950        0.087      336.206        7.348      855.507
04/22/2014  10:49:00     -263.602     -228.872        6.787      199.302      161.972       85.370    39721.237    26234.970     7288.032        9.756        3.662      349.096      107.485        0.095      336.226        7.383      855.501
04/22/2014  10:50:00     -350.748     -245.757      -20.231      251.251      220.117       90.118    63126.972    48451.475     8121.306       15.174        5.985      428.276       78.542        0.034      336.263        7.444      855.454
04/22/2014  10:51:00     -322.933     -107.667        2.340      228.847      156.939      102.180    52370.792    24629.920    10440.754       10.164        4.372      340.408      110.332        0.105      336.420        7.706      855.399
04/22/2014  10:52:00     -428.103     -132.836       -3.507      226.719      177.706       92.278    51401.375    31579.567     8515.154       14.619        4.575      448.238      106.933        0.057      336.545        7.915      855.473
04/22/2014  10:53:00     -184.962      -57.725       44.321      194.964      122.657       95.426    38010.793    15044.641     9106.067        5.082        3.108      193.761      106.602        0.303      336.875        8.469      855.437
04/22/2014  10:54:00     -370.659     -167.321       -5.511      263.918      219.033       97.980    69652.538    47975.471     9600.071       14.630        6.361      406.675      103.614        0.065      336.760        8.276      855.402
04/22/2014  10:55:00     -552.896     -248.005       -6.816      270.073      213.918      115.082    72939.671    45760.815    13243.868       24.957        6.597      605.970      102.041        0.028      336.904        8.514      855.378
04/22/2014  10:56:00     -567.043     -188.252       -1.594      249.978      207.625      109.566    62488.928    43108.022    12004.724       23.727        5.880      597.475      112.807        0.036      336.791        8.326      855.428
04/22/2014  10:57:00     -427.506     -388.956      -26.259      235.645      225.681      119.020    55528.764    50931.706    14165.795       22.766        6.031      577.969      112.868        0.038      336.886        8.485      855.419
04/22/2014  10:58:00     -436.596     -207.542       -0.030      195.460      165.233       96.512    38204.455    27302.054     9314.471       15.424        3.741      483.415       90.745        0.035      337.113        8.865      855.429
04/22/2014  10:59:00     -347.257     -372.070      -25.982      218.686      183.502      110.822    47823.617    33672.848    12281.444       17.672        4.689      508.943      116.098        0.052      336.950        8.592      855.433
04/22/2014  11:00:00     -442.953     -248.991      -34.258      248.914      182.913      101.871    61958.340    33457.008    10377.629       18.256        5.290      508.137      109.389        0.046      336.937        8.570      855.464
04/22/2014  11:01:00     -350.756     -223.670       -6.309      229.573      201.131       84.817    52703.944    40453.585     7194.006       13.671        5.018      416.003       93.261        0.050      336.977        8.638      855.467
04/22/2014  11:02:00     -210.941     -124.644       14.604      149.747      119.172       67.722    22424.181    14202.083     4586.248        5.072        2.061      245.015       69.634        0.081      337.427        9.390      855.481
04/22/2014  11:03:00      -91.141     -175.189       29.856      146.328      137.138       69.702    21411.772    18806.823     4858.414        4.247        2.254      197.479       52.547        0.071      337.579        9.645      855.504
04/22/2014  11:04:00     -517.970     -225.697      -45.584      307.608      196.761       93.186    94622.622    38714.993     8683.571       23.164        7.101      565.006       88.447        0.025      336.975        8.634      855.492
04/22/2014  11:05:00     -426.012     -187.791      -17.106      251.250      187.296       84.382    63126.361    35079.766     7120.269       16.116        5.266      465.566       88.577        0.036      336.815        8.366      855.430
04/22/2014  11:06:00     -592.239     -145.266      -12.751      226.636      228.685      101.557    51364.055    52296.925    10313.902       24.297        5.699      609.795      116.069        0.036      336.944        8.582      855.429
04/22/2014  11:07:00     -416.087     -155.657      -33.522      160.534      127.731       70.031    25771.309    16315.081     4904.392       12.273        2.350      444.249       62.535        0.020      336.819        8.372      855.452
04/22/2014  11:08:00     -366.670      -40.765      -18.612      234.814      137.584       74.501    55137.849    18929.415     5550.443       10.802        3.981      368.930       84.057        0.052      337.054        8.766      855.491
04/22/2014  11:09:00     -523.595     -183.649      -30.870      299.190      232.557      131.963    89514.891    54082.770    17414.180       23.489        8.051      554.869      158.531        0.082      336.922        8.546      855.543
04/22/2014  11:10:00     -490.632     -173.386      -33.205      276.853      205.154      104.792    76647.517    42088.002    10981.356       20.077        6.486      520.367      127.663        0.060      336.832        8.394      855.443
04/22/2014  11:11:00     -490.813      -77.754       17.038      349.289      206.899      132.498   122002.509    42807.358    17555.846       21.476        9.118      496.934      167.013        0.113      336.955        8.599      855.488
04/22/2014  11:12:00     -589.879     -317.356      -15.725      363.731      240.436      136.187   132300.492    57809.580    18547.000       32.875       10.433      669.830      148.472        0.049      336.681        8.142      855.527
04/22/2014  11:13:00     -592.746     -336.412      -11.915      265.171      243.720      113.370    70315.595    59399.258    12852.746       30.359        7.128      681.558      126.654        0.035      336.475        7.797      855.507
04/22/2014  11:14:00     -396.691     -154.915        7.089      339.152      240.149      126.840   115024.019    57671.317    16088.346       18.506        9.439      425.867      165.192        0.150      336.765        8.283      855.519
04/22/2014  11:15:00     -570.688     -132.928      -18.807      311.960      191.104      114.996    97318.845    36520.917    13224.080       24.536        7.353      585.965      144.578        0.061      336.628        8.053      855.544
04/22/2014  11:16:00     -538.917     -183.702      -21.676      220.266      229.641       89.282    48517.004    52734.971     7971.362       21.691        5.461      569.366      106.762        0.035      336.645        8.085      855.573
04/22/2014  11:17:00     -410.680     -317.533        0.039      280.514      167.016      102.096    78687.886    27894.433    10423.533       19.322        5.850      519.120      115.130        0.049      336.674        8.131      855.527
04/22/2014  11:18:00     -364.949     -190.752       18.814      239.239      156.676      101.487    57235.360    24547.225    10299.646       13.099        4.604      411.794      125.748        0.093      336.929        8.557      855.605
04/22/2014  11:19:00     -306.281      -82.041       17.590      347.356      191.164      106.475   120656.141    36543.809    11336.947       13.466        8.427      317.078      138.703        0.191      336.955        8.602      855.632
04/22/2014  11:20:00     -528.266     -312.974      -25.979      275.218      240.419      109.540    75744.687    57801.222    11999.065       26.159        7.277      614.017      126.749        0.043      336.720        8.208      855.644
04/22/2014  11:21:00     -458.790     -246.801      -23.063      274.352      153.833      102.485    75269.268    23664.453    10503.143       19.066        5.472      520.960      104.848        0.041      336.795        8.334      855.617
04/22/2014  11:22:00     -242.606     -149.192       17.533      189.333      180.506       91.477    35846.898    32582.518     8368.039        7.910        3.840      284.808       85.678        0.090      337.114        8.867      855.657
04/22/2014  11:23:00     -249.723     -199.035        0.553      210.634      153.991       98.106    44366.876    23713.275     9624.756        8.983        3.885      319.338       86.956        0.074      337.106        8.854      855.710
04/22/2014  11:24:00     -503.149     -176.625      -17.174      271.183      235.630      109.946    73540.097    55521.492    12088.164       21.287        7.057      533.250      114.608        0.046      336.891        8.494      855.692
04/22/2014  11:25:00     -541.879     -328.452      -17.227      246.886      199.033      112.300    60952.907    39614.243    12611.340       25.747        5.659      633.651      115.963        0.033      336.954        8.599      855.745
04/22/2014  11:26:00     -378.412     -245.308        0.174      271.635      207.079      122.859    73785.657    42881.701    15094.258       16.754        6.588      450.967      146.889        0.106      337.045        8.751      855.744
04/22/2014  11:27:00     -516.090     -377.821      -21.140      277.809      238.689      124.545    77177.892    56972.615    15511.434       27.957        7.483      639.608      133.824        0.044      336.977        8.637      855.709
04/22/2014  11:28:00     -461.161     -300.365       10.811      271.050      223.956      134.338    73467.973    50156.221    18046.782       22.231        7.084      550.353      131.060        0.057      336.830        8.391      855.711
04/22/2014  11:29:00     -523.195     -321.511       12.722      311.502      243.104      147.676    97033.547    59099.658    21808.274       27.757        8.897      614.086      168.007        0.075      336.742        8.245      855.739
04/22/2014  11:30:00     -371.569     -291.738        3.893      272.949      188.206      108.923    74501.352    35421.498    11864.185       17.246        6.089      472.414      127.225        0.073      336.829        8.390      855.756
04/22/2014  11:31:00     -344.431     -297.077       -6.980      210.079      173.225       97.264    44133.198    30006.785     9460.373       14.525        4.180      454.848      104.569        0.053      336.758        8.272      855.759
04/22/2014  11:32:00     -292.840     -197.691        3.345      206.213      142.853       81.967    42523.817    20406.852     6718.658        9.723        3.482      353.323       97.768        0.077      336.881        8.477      855.749
04/22/2014  11:33:00     -429.277     -209.940      -16.350      299.344      181.942      104.018    89606.743    33103.017    10819.813       18.105        6.676      477.864      122.141        0.065      336.886        8.484      855.714
04/22/2014  11:34:00     -152.213      -57.174        5.726      103.508      143.740       65.047    10713.967    20661.129     4231.147        3.103        1.780      162.597       63.321        0.152      337.162        8.949      855.685
04/22/2014  11:35:00     -345.209     -238.130        2.648      297.600      172.549       77.179    88565.645    29773.143     5956.533       15.006        6.215      419.374       98.808        0.056      337.245        9.085      855.755
04/22/2014  11:36:00     -302.100     -164.058      -14.064      254.642      126.154       92.185    64842.739    15914.835     8498.053       10.380        4.463      343.772      104.737        0.093      337.304        9.186      855.744
04/22/2014  11:37:00     -518.745     -276.252      -19.895      290.451      238.872      110.056    84361.797    57059.834    12112.312       24.964        7.677      587.718      135.694        0.053      337.346        9.256      855.786
04/22/2014  11:38:00     -426.126     -227.033        7.538      347.174      263.237      157.326   120529.659    69293.717    24751.407       22.384       10.729      482.832      197.604        0.167      337.351        9.265      855.765
04/22/2014  11:39:00     -544.929     -418.848      -25.004      242.558      212.849      139.872    58834.564    45304.657    19564.160       29.833        6.185      687.300      141.250        0.042      337.090        8.827      855.771
04/22/2014  11:40:00     -575.146     -314.115       -6.860      324.749      233.161      107.672   105461.628    54364.208    11593.241       30.043        8.571      655.333      133.651        0.042      337.207        9.023      855.784
04/22/2014  11:41:00     -377.365     -226.604      -20.188      287.213      211.545      104.153    82491.452    44751.432    10847.827       16.610        6.905      440.175      128.335        0.085      337.280        9.144      855.859
04/22/2014  11:42:00     -485.891     -218.467      -30.884      281.673      247.401       91.759    79339.489    61207.060     8419.633       21.684        7.448      532.746      116.160        0.048      337.132        8.898      855.862
04/22/2014  11:43:00     -389.465     -306.509      -17.198      255.555      220.887      111.009    65308.529    48791.098    12323.104       18.615        6.321      495.611      104.284        0.044      337.114        8.867      855.853
04/22/2014  11:44:00     -364.050     -208.205      -17.572      237.816      284.946      114.176    56556.658    81194.507    13036.059       16.346        7.539      419.383      131.820        0.099      337.053        8.766      855.858
04/22/2014  11:45:00     -485.376      -19.933      -38.028      273.488      193.131       99.890    74795.415    37299.576     9977.950       17.973        6.104      485.785      124.178        0.065      337.163        8.948      855.877
04/22/2014  11:46:00     -713.541     -206.323      -14.658      370.278      209.804      117.707   137106.081    44017.582    13854.983       37.341        9.749      742.771      132.175        0.032      337.056        8.770      855.812
04/22/2014  11:47:00     -471.877      -32.771       -9.420      274.458      221.579      119.154    75327.288    49097.393    14197.616       18.120        6.931      473.013      120.352        0.065      337.066        8.787      855.902
04/22/2014  11:48:00     -304.690     -131.789       19.473      234.657      243.499      106.114    55064.099    59291.696    11260.115       11.807        6.281      331.970       94.646        0.081      337.262        9.114      855.888
04/22/2014  11:49:00     -625.889     -232.218      -19.785      352.529      214.290      130.947   124276.744    45920.051    17147.015       31.666        9.367      667.579      165.156        0.061      336.818        8.371      855.915
04/22/2014  11:50:00     -683.253      -27.200      -40.092      202.430      172.364       91.785    40977.871    29709.357     8424.509       27.413        3.956      683.794       89.818        0.017      337.073        8.797      855.933
04/22/2014  11:51:00     -428.319      -18.858        4.036      266.529      303.931      104.642    71037.511    92374.196    10949.886       17.906        8.718      428.734      121.946        0.081      337.245        9.087      855.953
04/22/2014  11:52:00     -586.811     -409.164      -20.296      292.735      268.616      128.775    85693.958    72154.760    16583.088       34.327        8.722      715.376      144.316        0.041      336.946        8.587      855.904
04/22/2014  11:53:00     -479.139     -173.821      -12.294      198.846      172.784      101.878    39539.537    29854.409    10379.194       16.984        3.989      509.694      102.480        0.040      337.185        8.985      855.919
04/22/2014  11:54:00     -290.194       -6.401       13.748      218.743      180.286       92.996    47848.561    32503.102     8648.209        8.670        4.450      290.265       99.790        0.118      337.641        9.750      855.987
04/22/2014  11:55:00     -392.145     -352.848       -8.631      328.238      246.969      131.340   107740.326    60993.678    17250.252       23.213        9.299      527.522      155.290        0.087      337.110        8.860      855.953
04/22/2014  11:56:00     -517.920     -400.302      -24.945      359.539      244.692      148.209   129268.505    59874.315    21966.017       32.006       10.555      654.586      172.408        0.069      336.960        8.609      855.882
04/22/2014  11:57:00     -422.926     -291.905      -12.823      396.616      187.360      124.767   157304.488    35103.727    15566.856       23.607       10.399      513.882      130.593        0.065      336.923        8.548      855.963
04/22/2014  11:58:00     -439.058     -341.059       -3.628      272.595      222.219      124.403    74307.925    49381.306    15476.227       22.411        6.958      555.962      136.165        0.060      337.064        8.783      855.942
04/22/2014  11:59:00     -344.737     -242.927       -7.784      243.064      232.357      122.927    59079.948    53989.574    15111.165       15.302        6.409      421.731      115.653        0.075      337.029        8.723      855.960
04/22/2014  12:00:00     -429.175     -193.596       -9.580      297.062      213.392      104.157    88245.663    45535.985    10848.715       18.317        7.232      470.819      131.046        0.077      337.312        9.199      855.914
04/22/2014  12:01:00     -437.392     -237.537        8.539      318.097      251.585      154.803   101185.489    63294.825    23964.102       21.809        9.422      497.730      172.779        0.121      337.376        9.305      855.965
04/22/2014  12:02:00     -426.135      -64.932      -32.353      251.057      178.294      114.605    63029.722    31788.791    13134.311       14.738        5.398      431.054      129.008        0.090      337.242        9.082      855.998
04/22/2014  12:03:00     -326.267     -319.869       -0.489      296.121      249.482      126.955    87687.754    62241.075    16117.557       18.737        8.302      456.910      153.879        0.113      337.325        9.220      856.024
04/22/2014  12:04:00     -680.171     -444.757      -20.930      352.593      278.744      142.042   124321.475    77698.163    20175.973       44.149       11.110      812.675      176.381        0.047      336.865        8.450      855.985
04/22/2014  12:05:00     -486.788     -278.146      -11.352      287.514      227.701      119.965    82664.057    51847.605    14391.661       23.165        7.445      560.650      115.320        0.042      336.958        8.604      856.052
04/22/2014  12:06:00     -537.796     -322.920      -24.618      265.963      245.259      120.733    70736.163    60151.794    14576.419       26.976        7.273      627.297      136.676        0.047      336.941        8.579      856.076
04/22/2014  12:07:00     -427.739     -203.136      -13.795      287.515      195.792      126.903    82664.613    38334.369    16104.366       18.073        6.855      473.524      132.219        0.078      337.048        8.755      856.106
04/22/2014  12:08:00     -549.717     -280.734      -27.317      279.962      257.135      119.444    78378.806    66118.194    14266.897       27.022        7.938      617.252      139.624        0.051      336.964        8.617      856.115
04/22/2014  12:09:00     -290.210     -178.072        0.144      236.982      178.383       95.948    56160.602    31820.610     9206.036       10.654        4.859      340.487      110.377        0.105      337.211        9.031      856.128
04/22/2014  12:10:00     -522.551     -294.776      -21.035      261.548      168.707       89.089    68407.313    28462.207     7936.805       23.258        5.240      599.960      103.363        0.030      337.121        8.877      856.062
04/22/2014  12:11:00     -463.883     -186.567      -11.209      260.608      215.687      116.218    67916.534    46520.819    13506.572       18.901        6.397      499.995      139.634        0.078      337.184        8.983      856.145
04/22/2014  12:12:00     -444.499     -100.244       -4.677      256.702      198.172       99.196    65896.152    39272.211     9839.898       16.131        5.750      455.663      125.498        0.076      337.279        9.143      856.135
04/22/2014  12:13:00     -199.568      -28.177       29.190      251.632      153.966      103.141    63318.745    23705.394    10637.983        6.955        4.883      201.548      111.136        0.304      337.732        9.902      856.149
04/22/2014  12:14:00     -542.956     -239.219       -9.745      266.978      232.239      116.661    71277.316    53934.905    13609.691       24.544        6.941      593.319      107.585        0.033      337.221        9.047      856.149
04/22/2014  12:15:00     -729.420     -152.184        0.987      485.511      241.471      141.472   235721.338    58308.158    20014.240       43.457       15.702      745.126      205.916        0.076      336.910        8.526      856.138
04/22/2014  12:16:00     -733.134     -217.580      -52.580      267.454      249.457      101.817    71531.888    62228.768    10366.788       36.583        7.206      764.739       94.864        0.015      336.566        7.952      856.239
04/22/2014  12:17:00     -671.167       43.151      -56.241      255.673      247.950      120.830    65368.446    61479.337    14600.001       29.844        7.072      672.553      126.413        0.035      336.809        8.357      856.230
04/22/2014  12:18:00     -485.413     -217.476      -20.642      232.573      218.477       98.488    54090.410    47732.202     9699.967       19.741        5.576      531.904      113.350        0.045      336.902        8.513      856.295
04/22/2014  12:19:00     -470.908      -87.307      -25.403      245.852      237.487       76.402    60443.398    56400.160     5837.277       17.633        6.134      478.933       93.873        0.038      336.747        8.254      856.265
04/22/2014  12:20:00     -344.974     -213.797      -24.183      265.506      251.667      128.799    70493.697    63336.519    16589.102       15.783        7.521      405.853      134.177        0.109      336.685        8.148      856.282
04/22/2014  12:21:00     -599.595     -100.083      -19.980      270.610      239.000      102.013    73229.662    57120.782    10406.736       25.532        7.038      607.891      108.631        0.032      336.620        8.042      856.273
04/22/2014  12:22:00     -285.819      -39.401        6.570      204.290      167.807       94.372    41734.608    28159.191     8906.092        8.103        3.940      288.522      102.149        0.125      337.230        9.061      856.277
04/22/2014  12:23:00     -427.641     -356.337       -0.292      233.153      209.801      103.508    54360.278    44016.413    10713.811       20.945        5.455      556.645       93.452        0.028      336.885        8.484      856.271
04/22/2014  12:24:00     -489.290     -417.381      -13.304      227.511      222.689      128.984    51761.148    49590.551    16636.914       26.587        5.899      643.126      127.961        0.040      336.838        8.404      856.241
04/22/2014  12:25:00     -382.187     -193.330       13.166      244.856      174.456      105.162    59954.448    30434.801    11058.961       14.251        5.072      428.303      109.904        0.066      337.190        8.995      856.259
04/22/2014  12:26:00     -504.306     -338.528       -6.369      251.464      189.814      115.938    63234.307    36029.436    13441.734       24.081        5.635      607.393      125.170        0.042      336.963        8.615      856.284
04/22/2014  12:27:00     -524.264     -303.488      -19.028      266.980      205.448      132.805    71278.245    42208.725    17637.191       24.920        6.556      605.770      146.201        0.058      337.028        8.723      856.274
04/22/2014  12:28:00     -516.649     -235.990        0.309      275.114      245.247      120.744    75687.505    60145.929    14579.203       23.649        7.521      567.995      129.332        0.052      337.002        8.678      856.324
04/22/2014  12:29:00     -288.476     -178.410       11.569      245.808      186.139      121.083    60421.519    34647.668    14661.043       11.243        5.487      339.187      134.682        0.158      337.213        9.032      856.313
04/22/2014  12:30:00     -466.200     -357.153       -7.494      298.865      191.075      122.322    89320.379    36509.782    14962.589       24.285        7.040      587.282      125.065        0.045      337.008        8.689      856.321
04/22/2014  12:31:00     -651.614     -427.336      -43.907      304.995      281.017      164.481    93021.719    78970.282    27054.130       40.406        9.952      779.241      170.066        0.048      336.992        8.662      856.151
04/22/2014  12:32:00     -541.663     -153.210       -7.651      344.016      270.656      150.227   118347.244    73254.888    22568.199       26.551       10.709      562.914      158.594        0.079      337.225        9.052      856.176
04/22/2014  12:33:00     -461.385     -325.269       -1.429      322.519      253.295      147.128   104018.806    64158.503    21646.702       25.421        9.491      564.514      172.330        0.093      337.159        8.942      856.182
04/22/2014  12:34:00     -521.490     -193.617       -8.506      335.146      208.619      130.057   112323.072    43521.902    16914.753       24.110        8.638      556.272      159.267        0.082      337.294        9.169      856.266
04/22/2014  12:35:00     -532.919     -232.140      -11.185      357.903      280.761      132.523   128094.251    78826.473    17562.257       28.121       11.224      581.285      160.229        0.076      337.120        8.876      856.266
04/22/2014  12:36:00     -387.957     -167.461        5.960      331.890      236.249      143.944   110151.098    55813.571    20719.800       18.260        9.334      422.556      171.521        0.165      337.069        8.792      856.270
04/22/2014  12:37:00     -379.268     -248.836        0.902      261.598      231.265      104.360    68433.310    53483.652    10891.078       16.926        6.640      453.612      117.301        0.067      337.142        8.915      856.243
04/22/2014  12:38:00     -625.921     -259.827      -50.365      313.694      263.574      112.733    98404.021    69471.436    12708.621       32.117        9.029      677.707      136.917        0.041      337.012        8.696      856.267
04/22/2014  12:39:00     -465.698      -87.295      -41.787      279.309      166.919       99.456    78013.658    27862.066     9891.425       17.098        5.788      473.809      135.127        0.081      337.060        8.777      856.283
04/22/2014  12:40:00     -347.051     -273.930        8.942      247.295      188.577      101.260    61154.981    35561.125    10253.576       15.124        5.348      442.133      120.580        0.074      337.160        8.944      856.286
04/22/2014  12:41:00     -227.150     -106.460        0.458      137.939      107.037       71.709    19027.134    11456.824     5142.158        4.927        1.781      250.860       74.624        0.088      337.442        9.417      856.266
04/22/2014  12:42:00     -313.218      -83.886       -6.088      243.960      151.837       82.040    59516.566    23054.416     6730.491        9.722        4.465      324.256      102.497        0.100      337.903       10.190      856.257
04/22/2014  12:43:00     -254.633     -231.297       -4.274      225.874      169.302       90.088    51018.852    28663.262     8115.854       10.306        4.390      344.001      107.109        0.097      337.675        9.806      856.280
04/22/2014  12:44:00     -492.211     -264.548      -11.791      278.003      201.552      113.145    77285.561    40623.352    12801.783       22.153        6.536      558.800      137.543        0.061      337.363        9.284      856.208
04/22/2014  12:45:00     -591.730     -164.699       -8.328      364.420      271.090      126.145   132801.585    73489.635    15912.611       29.973       11.110      614.223      162.553        0.070      337.564        9.620      856.224
04/22/2014  12:46:00     -449.442     -284.356       -9.247      277.953      263.582      114.236    77257.718    69475.648    13049.782       22.133        7.989      531.842      133.366        0.063      337.585        9.655      856.260
04/22/2014  12:47:00     -624.888     -137.825      -22.507      255.111      228.892      108.036    65081.379    52391.644    11671.694       26.954        6.457      639.907      101.811        0.025      337.350        9.262      856.295
04/22/2014  12:48:00     -307.665      -75.150       -8.708      166.436      182.864       90.477    27700.882    33439.251     8186.145        8.484        3.466      316.711       83.143        0.069      337.610        9.699      856.305
04/22/2014  12:49:00     -209.417      -21.281        5.451      208.337      148.471       76.333    43404.411    22043.785     5826.666        5.779        3.564      210.496       96.570        0.210      337.949       10.268      856.309
04/22/2014  12:50:00     -638.046      -67.105      -18.549      345.366      191.405      129.489   119277.457    36635.778    16767.487       29.228        8.634      641.565      168.456        0.069      337.521        9.548      856.233
04/22/2014  12:51:00     -424.157      -59.403       -9.320      236.860      170.271       81.373    56102.476    28992.194     6621.566       13.760        4.586      428.296       95.775        0.050      337.507        9.526      856.277
04/22/2014  12:52:00     -277.812     -203.944       16.986      261.519      249.799       98.193    68392.323    62399.559     9641.804       12.972        7.022      344.634      115.166        0.112      337.948       10.266      856.293
04/22/2014  12:53:00     -495.210     -296.033      -14.294      285.492      202.159      115.028    81505.877    40868.098    13231.454       23.431        6.780      576.947      139.194        0.058      337.487        9.491      856.246
04/22/2014  12:54:00     -461.268     -383.531       -8.390      314.528      263.921      114.486    98927.562    69654.105    13107.029       27.078        9.084      599.886      147.125        0.060      337.391        9.331      856.261
04/22/2014  12:55:00     -573.248     -287.205      -23.200      350.004      247.412      127.160   122502.678    61212.808    16169.752       30.572        9.994      641.171      158.823        0.061      337.701        9.850      856.305
04/22/2014  12:56:00     -479.316     -179.738        0.062      240.838      231.594      106.374    58002.976    53635.837    11315.344       19.248        6.148      511.908      119.320        0.054      337.563        9.618      856.354
04/22/2014  12:57:00     -413.521     -309.051       13.340      307.557      279.460      126.452    94591.191    78097.839    15990.228       22.765        9.434      516.248      145.660        0.080      337.477        9.476      856.372
04/22/2014  12:58:00     -563.497     -252.463      -14.010      322.811      242.063      110.306   104206.796    58594.675    12167.335       27.818        8.748      617.468      145.025        0.055      337.399        9.343      856.373
04/22/2014  12:59:00     -320.927     -288.397       31.188      357.234      234.192      122.096   127616.047    54845.941    14907.416       19.221        9.868      431.470      161.523        0.140      337.744        9.923      856.385
04/22/2014  13:00:00     -548.664     -347.199      -17.417      355.255      214.363      119.771   126205.975    45951.394    14345.142       30.415        9.325      649.291      143.463        0.049      337.015        8.702      856.439
04/22/2014  13:01:00     -521.041     -236.825        5.066      243.908      249.848      116.273    59491.099    62424.088    13519.486       23.149        6.772      572.337      131.400        0.053      336.988        8.655      856.488
04/22/2014  13:02:00     -351.431      -26.254       19.751      227.219      115.741       93.258    51628.329    13396.083     8696.963        9.914        3.686      352.411      107.324        0.093      337.178        8.975      856.424
04/22/2014  13:03:00     -290.610     -221.560       -1.651      166.046      155.417       91.539    27571.410    24154.553     8379.323        9.681        3.005      365.435       89.626        0.060      337.320        9.213      856.344
04/22/2014  13:04:00     -295.879     -168.202       -4.640      168.746      166.032       83.996    28475.343    27566.759     7055.250        8.946        3.155      340.347       76.793        0.051      337.624        9.721      856.370
04/22/2014  13:05:00     -280.070     -156.458      -16.574      217.218      182.813       84.691    47183.524    33420.773     7172.613        9.547        4.389      320.809       87.095        0.074      338.196       10.681      856.387
04/22/2014  13:06:00     -446.308     -148.728      -10.620      228.889      259.652      106.407    52390.160    67419.263    11322.372       17.625        6.557      470.437      110.133        0.055      337.562        9.617      856.421
04/22/2014  13:07:00     -388.112     -134.984       -4.809      317.242      233.066      113.769   100642.781    54319.805    12943.280       16.836        8.395      410.915      132.427        0.104      337.676        9.808      856.472
04/22/2014  13:08:00     -340.576     -118.865        9.637      275.756      204.671       80.614    76041.268    41890.147     6498.575       12.730        6.221      360.723       99.579        0.076      337.828       10.064      856.462
04/22/2014  13:09:00     -299.617      -90.316       20.295      202.416      221.865       84.495    40972.110    49223.912     7139.436        9.782        4.867      312.934       87.712        0.079      337.837       10.078      856.446
04/22/2014  13:10:00     -416.722     -310.068      -32.676      243.518      154.002      106.783    59300.814    23716.738    11402.556       18.262        4.721      519.422      115.963        0.050      337.327        9.223      856.415
04/22/2014  13:11:00     -343.335     -281.381      -21.314      199.715      147.084       91.122    39886.070    21633.632     8303.267       13.365        3.491      443.908       98.008        0.049      337.475        9.471      856.410
04/22/2014  13:12:00     -229.171     -193.710       -1.319      161.654      140.770       77.585    26132.172    19816.076     6019.468        7.100        2.598      300.072       86.363        0.083      337.727        9.894      856.390
04/22/2014  13:13:00     -459.118     -149.072      -47.842      210.656      179.608       86.971    44375.996    32259.038     7563.964       15.973        4.210      482.713       77.906        0.026      337.801       10.020      856.422
04/22/2014  13:14:00     -523.742      -88.966      -32.527      260.586      215.461      117.739    67905.170    46423.559    13862.372       20.571        6.410      531.244      138.071        0.068      337.777        9.979      856.445
04/22/2014  13:15:00     -604.962      -77.493      -70.997      259.477      281.888      111.851    67328.054    79460.898    12510.732       26.813        7.965      609.905      110.503        0.033      337.604        9.688      856.423
04/22/2014  13:16:00     -367.658       14.801      -15.912      211.384      203.441       88.419    44683.340    41388.439     7817.938       11.475        4.694      367.956       97.664        0.070      337.855       10.109      856.427
04/22/2014  13:17:00     -566.065      -75.204      -16.184      321.728      212.447      110.736   103508.953    45133.610    12262.478       24.359        8.045      571.038      139.939        0.060      337.689        9.829      856.443
04/22/2014  13:18:00     -486.477     -160.817       -6.677      332.976      237.456      134.219   110873.163    56385.555    18014.689       22.388        9.264      512.368      148.256        0.084      337.720        9.882      856.418
04/22/2014  13:19:00     -672.889     -177.514      -32.489      276.060      186.929      105.521    76208.987    34942.626    11134.700       30.379        6.114      695.910      119.087        0.029      337.542        9.584      856.447
04/22/2014  13:20:00     -600.169     -101.916      -35.754      249.747      182.070       93.099    62373.585    33149.579     8667.398       23.801        5.210      608.761      104.063        0.029      337.757        9.943      856.452
04/22/2014  13:21:00     -445.961     -119.455       -7.143      185.577      141.364       84.913    34438.825    19983.799     7210.234       13.741        3.082      461.683       94.552        0.042      337.942       10.252      856.459
04/22/2014  13:22:00     -419.507       -8.118      -14.181      344.462      162.590      115.195   118654.231    26435.530    13269.883       16.727        7.918      419.585      161.016        0.147      337.845       10.091      856.457
04/22/2014  13:23:00     -509.429     -160.451      -10.739      214.443      177.729       92.360    45985.812    31587.720     8530.425       18.572        4.305      534.100       92.677        0.030      337.813       10.037      856.453
04/22/2014  13:24:00     -399.307      -85.104        6.224      258.697      189.060       90.884    66924.356    35743.611     8259.847       13.881        5.546      408.275      106.867        0.069      338.023       10.390      856.476
04/22/2014  13:25:00     -455.707      -47.295      -34.247      301.440      184.369       95.464    90865.955    33991.835     9113.320       17.250        6.699      458.155      100.357        0.048      337.798       10.014      856.476
04/22/2014  13:26:00     -370.894     -110.698      -17.257      252.769      183.861       99.184    63892.195    33804.866     9837.481       12.880        5.377      387.062       94.748        0.060      337.880       10.151      856.439
04/22/2014  13:27:00     -354.416        0.132      -11.547      232.337      202.786      100.322    53980.279    41122.149    10064.583       11.543        5.258      354.416      125.398        0.125      338.122       10.556      856.462
04/22/2014  13:28:00     -664.768      -77.184      -55.772      224.090      190.166       94.414    50216.458    36163.235     8914.059       27.312        4.765      669.234      105.854        0.025      337.701        9.849      856.458
04/22/2014  13:29:00     -371.523     -144.624        4.249      247.596      209.505      121.903    61303.994    43892.487    14860.334       13.949        6.003      398.680      131.823        0.109      338.076       10.480      856.507
04/22/2014  13:30:00     -534.820        5.165      -43.785      283.304      260.587      120.843    80261.327    67905.347    14602.929       22.534        8.138      534.845      119.109        0.050      337.667        9.792      856.540
04/22/2014  13:31:00     -511.451     -154.512      -15.870      264.918      179.992      107.737    70181.738    32397.108    11607.350       19.992        5.709      534.281      113.403        0.045      337.655        9.773      856.590
04/22/2014  13:32:00     -294.927      -62.310       -5.990      193.607      186.551       86.439    37483.483    34801.194     7471.742        8.531        3.988      301.437       92.554        0.094      338.067       10.463      856.639
04/22/2014  13:33:00     -410.687     -144.339       -5.306      212.408      201.271       84.027    45117.302    40510.185     7060.505       14.109        4.634      435.313      100.547        0.053      337.680        9.816      856.616
04/22/2014  13:34:00     -442.597      -98.102      -17.431      263.142      267.335       92.979    69243.683    71467.787     8645.092       17.756        7.468      453.339      112.862        0.062      337.717        9.875      856.619
04/22/2014  13:35:00     -395.965        4.183      -14.908      222.311      188.771      101.548    49422.099    35634.354    10312.076       12.618        4.768      395.987      108.118        0.075      337.785        9.990      856.691
04/22/2014  13:36:00     -666.641     -151.465      -43.852      319.325      210.640       93.967   101968.171    44369.148     8829.835       31.219        7.758      683.631      126.603        0.034      337.344        9.251      856.653
04/22/2014  13:37:00     -586.074     -143.065        1.465      324.922      219.842      117.953   105574.454    48330.395    13912.960       26.585        8.391      603.283      124.385        0.043      337.380        9.313      856.635
04/22/2014  13:38:00     -696.444     -158.503      -34.597      244.052      219.919      103.790    59561.265    48364.226    10772.351       31.500        5.935      714.253      107.597        0.023      337.501        9.516      856.617
04/22/2014  13:39:00     -621.908     -187.260      -49.266      342.185      189.874      106.568   117090.881    36052.325    11356.771       29.435        8.225      649.489      140.198        0.047      337.463        9.450      856.667
04/22/2014  13:40:00     -395.177      -93.963        1.966      245.871      178.085       91.776    60452.598    31714.318     8422.877       13.277        5.029      406.194      102.605        0.064      337.642        9.751      856.665
04/22/2014  13:41:00     -535.797      -17.259      -48.134      163.601      111.375       77.516    26765.250    12404.442     6008.698       16.743        2.259      536.075       68.209        0.016      337.294        9.169      856.638
04/22/2014  13:42:00     -476.142       -6.163      -26.418      200.887      203.347       86.872    40355.625    41349.974     7546.704       15.833        4.463      476.181      101.020        0.045      337.659        9.780      856.689
04/22/2014  13:43:00     -558.496     -186.367       -9.701      225.376      158.567       88.360    50794.521    25143.605     7807.410       21.523        4.187      588.770       90.045        0.023      337.519        9.545      856.679
04/22/2014  13:44:00     -539.624      -77.791      -44.650      307.614      244.525      113.374    94626.420    59792.337    12853.598       23.322        8.364      545.203      117.841        0.047      337.578        9.644      856.698
04/22/2014  13:45:00     -614.886     -191.156      -19.470      262.104      199.301      108.412    68698.517    39721.025    11753.169       26.756        6.009      643.914      121.427        0.036      337.345        9.253      856.719
04/22/2014  13:46:00     -506.234     -195.254       -9.029      308.874      212.191      109.385    95403.016    45024.921    11965.092       22.341        7.620      542.583      139.829        0.066      337.331        9.231      856.767
04/22/2014  13:47:00     -502.238     -165.180       -4.356      257.241      168.502       96.101    66172.702    28392.798     9235.381       19.165        5.190      528.703      125.843        0.057      337.399        9.343      856.766
04/22/2014  13:48:00     -550.010     -237.100      -30.080      282.585      233.984      125.622    79854.561    54748.430    15780.871       25.498        7.519      598.938      149.117        0.062      337.343        9.249      856.769
04/22/2014  13:49:00     -497.998     -272.079      -11.165      295.686      225.703      123.181    87429.944    50941.623    15173.616       23.782        7.677      567.476      136.282        0.058      337.229        9.059      856.765
04/22/2014  13:50:00     -361.075      -99.352      -27.244      304.937      250.947      104.448    92986.359    62974.625    10909.482       15.390        8.344      374.495      120.792        0.104      337.602        9.684      856.772
04/22/2014  13:51:00     -249.707      -15.523      -21.263      265.989      139.777       83.253    70750.019    19537.531     6930.985        8.011        4.861      250.189       87.162        0.121      338.108       10.532      856.771
04/22/2014  13:52:00     -366.150      -52.109      -10.665      215.102      159.361       89.860    46268.965    25395.831     8074.831       10.830        3.987      369.840       94.592        0.065      338.155       10.611      856.785
04/22/2014  13:53:00     -295.654     -140.306       13.590      236.977      181.702       97.973    56158.258    33015.734     9598.670       10.301        4.939      327.256      108.630        0.110      338.147       10.598      856.803
04/22/2014  13:54:00     -404.127     -262.833       -9.233      291.799      217.037      120.602    85146.590    47104.861    14544.943       18.961        7.340      482.078      150.897        0.098      337.839       10.081      856.824
04/22/2014  13:55:00     -445.256     -272.356        4.270      356.551      300.673      165.280   127128.673    90404.217    27317.480       25.860       12.243      521.948      188.883        0.131      337.434        9.402      856.830
04/22/2014  13:56:00     -473.979     -148.959      -36.271      249.676      183.453      102.716    62338.070    33655.055    10550.560       17.733        5.327      496.835      107.422        0.047      337.393        9.333      856.886
04/22/2014  13:57:00     -357.084     -163.583        0.872      270.863      175.648      133.164    73366.918    30852.368    17732.699       13.809        6.098      392.770      144.789        0.136      337.689        9.829      856.822
04/22/2014  13:58:00     -646.186      -66.263       -9.379      309.697      225.675      130.093    95912.406    50929.419    16924.282       29.287        8.188      649.575      153.406        0.056      337.685        9.823      856.854
04/22/2014  13:59:00     -569.572      -86.222      -37.563      281.543      214.150      111.112    79266.658    45860.030    12345.784       23.534        6.874      576.061      114.125        0.039      337.640        9.747      856.874
04/22/2014  14:00:00     -280.960     -156.751       -3.389      311.614      229.949      146.935    97102.989    52876.355    21589.811       13.751        8.578      321.729      156.672        0.237      337.695        9.840      856.878
04/22/2014  14:01:00     -154.802      -54.366       21.261      262.304      150.381       96.472    68803.293    22614.488     9306.920        6.403        5.036      164.071      105.209        0.411      337.863       10.123      856.894
04/22/2014  14:02:00     -552.823     -124.560      -23.775      275.155      212.512      106.950    75710.186    45161.185    11438.280       22.698        6.615      566.682      112.392        0.039      337.466        9.456      856.926
04/22/2014  14:03:00     -386.578     -148.586      -13.534      206.478      137.849       73.236    42633.355    19002.357     5363.557       11.934        3.350      414.150       82.544        0.040      337.570        9.630      856.882
04/22/2014  14:04:00     -386.002      -37.303      -20.502      209.099      144.003       87.013    43722.379    20736.918     7571.321       11.141        3.602      387.800       98.408        0.064      337.819       10.049      856.937
04/22/2014  14:05:00     -498.160     -309.912       -5.661      276.254      236.697      123.495    76316.502    56025.701    15250.899       24.589        7.380      586.693      143.275        0.060      337.356        9.272      856.946
04/22/2014  14:06:00     -537.569     -228.085      -24.195      258.462      224.533      126.203    66802.495    50415.234    15927.252       23.734        6.657      583.955      128.962        0.049      337.440        9.411      856.910
04/22/2014  14:07:00     -480.351     -238.310       -3.375      226.088      163.364      100.296    51115.924    26687.952    10059.383       18.768        4.393      536.217      112.446        0.044      337.412        9.366      856.959
04/22/2014  14:08:00     -431.958     -172.880      -31.418      243.912      220.902       92.516    59493.152    48797.832     8559.197       16.713        5.843      465.269      113.911        0.060      337.587        9.660      856.947
04/22/2014  14:09:00     -335.232     -169.436        9.238      369.037      228.311      101.497   136188.193    52125.983    10301.730       16.986        9.931      375.618      127.869        0.116      337.913       10.206      856.955
04/22/2014  14:10:00     -537.017     -200.176      -21.773      300.096      271.206      125.513    90057.417    73552.740    15753.479       25.411        8.968      573.112      151.213        0.070      337.429        9.393      856.959
04/22/2014  14:11:00     -406.792     -260.825       20.445      254.525      195.332      105.272    64783.126    38154.452    11082.136       17.395        5.701      483.228      108.475        0.050      337.437        9.407      856.902
04/22/2014  14:12:00     -482.068     -232.066        9.360      196.379      176.513       93.729    38564.555    31156.903     8785.142       18.240        3.925      535.018       85.205        0.025      337.836       10.075      856.896
04/22/2014  14:13:00     -263.627     -159.375       -7.361      189.572      140.833       93.371    35937.676    19833.851     8718.058        7.971        3.224      308.058       78.826        0.065      338.138       10.582      856.944
04/22/2014  14:14:00     -405.809     -252.241        0.148      191.963      176.611      102.518    36849.980    31191.522    10510.011       15.341        3.928      477.814      108.621        0.052      337.808       10.027      856.900
04/22/2014  14:15:00     -591.410     -325.969      -25.659      281.389      191.132      120.790    79179.545    36531.297    14590.325       29.346        6.515      675.293      124.893        0.034      337.354        9.268      856.937
04/22/2014  14:16:00     -528.269     -410.481        2.181      319.637      294.464      129.578   102167.943    86709.320    16790.492       32.658       10.283      669.002      146.511        0.048      337.393        9.333      856.933
04/22/2014  14:17:00     -483.913     -297.916      -10.101      229.481      169.332      117.573    52661.538    28673.466    13823.335       20.907        4.758      568.265      117.841        0.043      337.466        9.457      856.996
04/22/2014  14:18:00     -331.545     -234.996       22.281      272.045      171.979      113.774    74008.385    29576.618    12944.446       14.106        5.826      406.381      129.621        0.102      337.697        9.843      856.952
04/22/2014  14:19:00     -529.557     -365.362       -5.031      281.634      197.764      116.523    79317.851    39110.757    13577.494       27.295        6.600      643.366      135.106        0.044      337.361        9.280      856.921
04/22/2014  14:20:00     -456.361     -334.635       -2.354      287.352      235.302      120.854    82571.076    55367.017    14605.693       23.637        7.627      565.902      134.458        0.056      337.564        9.621      856.918
04/22/2014  14:21:00     -355.762     -262.818        7.956      245.374      159.181      111.121    60208.414    25338.483    12347.802       14.678        4.895      442.312      108.198        0.060      337.388        9.324      856.957
04/22/2014  14:22:00     -383.871     -302.982        4.952      230.640      176.114      108.659    53194.819    31016.090    11806.759       16.758        4.801      489.035      122.855        0.063      337.590        9.665      856.958
04/22/2014  14:23:00     -512.946     -372.371       -7.196      284.542      246.352      121.379    80964.167    60689.451    14732.965       27.908        7.819      633.856      128.785        0.041      337.714        9.872      856.956
04/22/2014  14:24:00     -455.239     -135.407      -10.292      232.052      158.376       99.706    53848.261    25082.884     9941.366       15.726        4.444      474.950      102.434        0.047      337.594        9.670      857.033
04/22/2014  14:25:00     -344.393     -144.450        5.490      235.273      174.283       95.978    55353.316    30374.736     9211.777       11.720        4.747      373.460      112.901        0.091      337.686        9.825      856.998
04/22/2014  14:26:00     -387.909     -178.983        1.162      237.271      184.695       99.380    56297.651    34112.162     9876.349       14.138        5.014      427.210      116.177        0.074      337.699        9.846      857.008
04/22/2014  14:27:00     -440.673     -292.783        9.253      302.283      201.509      132.239    91375.005    40605.946    17487.243       21.470        7.473      529.069      160.269        0.092      337.453        9.435      857.027
04/22/2014  14:28:00     -386.893     -171.862       -2.742      273.805      229.910      113.020    74969.277    52858.404    12773.533       15.989        7.030      423.347      134.251        0.101      337.565        9.622      857.003
04/22/2014  14:29:00     -346.182     -182.447       -0.606      195.179      151.378       86.862    38094.756    22915.394     7545.023       11.083        3.428      391.317       80.347        0.042      337.604        9.686      857.013
04/22/2014  14:30:00     -563.697     -148.195      -25.070      248.778      187.374       95.972    61890.692    35109.149     9210.684       22.326        5.311      582.852      102.193        0.031      337.623        9.719      856.959
04/22/2014  14:31:00     -511.387     -147.973      -28.127      221.298      183.022      106.016    48972.917    33497.054    11239.433       18.894        4.685      532.365       94.241        0.031      337.907       10.195      856.905
04/22/2014  14:32:00     -479.869     -329.707      -15.144      275.509      177.256      123.494    75905.016    31419.650    15250.670       23.087        6.129      582.220      137.388        0.056      337.527        9.558      856.981
04/22/2014  14:33:00     -349.509     -204.021      -11.783      233.977      184.153      101.051    54745.205    33912.265    10211.325       13.137        4.943      404.699      117.511        0.084      337.645        9.755      856.995
04/22/2014  14:34:00     -523.646     -322.097      -12.550      236.797      227.989       99.931    56072.617    51978.850     9986.122       24.805        5.902      614.778      104.001        0.029      337.560        9.613      856.960
04/22/2014  14:35:00     -288.761     -182.589        6.025      195.660      157.616       83.631    38282.916    24842.845     6994.149        9.342        3.506      341.645       86.004        0.063      337.813       10.038      857.004
04/22/2014  14:36:00     -379.455     -216.693       28.258      254.254      194.234      112.015    64645.202    37727.011    12547.370       15.331        5.746      436.969      124.683        0.081      337.722        9.886      856.970
04/22/2014  14:37:00     -446.185     -331.043        2.025      245.168      162.820      105.730    60107.495    26510.503    11178.792       20.322        4.890      555.582      108.675        0.038      337.478        9.476      856.927
04/22/2014  14:38:00     -535.636     -393.233      -18.120      252.721      186.945      127.223    63867.996    34948.351    16185.633       27.841        5.750      664.483      138.598        0.044      337.484        9.487      856.947
04/22/2014  14:39:00     -681.146     -103.690      -50.024      340.399      250.496      103.587   115871.541    62748.165    10730.184       33.324        9.467      688.993      116.949        0.029      337.492        9.499      856.823
04/22/2014  14:40:00     -310.423     -198.379       -2.555      217.647      127.662       80.789    47370.179    16297.460     6526.845       10.295        3.510      368.398       84.406        0.052      337.930       10.234      856.860
04/22/2014  14:41:00     -605.712     -305.890      -10.700      314.916      252.800      134.363    99172.313    63908.084    18053.507       32.082        9.057      678.569      163.302        0.058      337.878       10.146      856.903
04/22/2014  14:42:00     -366.921     -176.578       21.643      307.045      297.212      144.529    94276.583    88334.768    20888.599       18.485       10.175      407.199      154.369        0.144      337.912       10.202      857.022
04/22/2014  14:43:00     -370.641     -106.702      -26.832      245.574      206.915      107.851    60306.833    42813.665    11631.732       13.209        5.738      385.694      117.259        0.092      337.755        9.941      857.058
04/22/2014  14:44:00     -617.794      -66.818      -48.921      251.952      209.394      101.562    63479.978    43846.036    10314.814       25.306        5.882      621.397      119.042        0.037      337.704        9.855      857.072
04/22/2014  14:45:00     -402.096     -148.589      -16.656      187.715      158.022       91.359    35236.740    24970.865     8346.443       12.628        3.428      428.672       84.831        0.039      337.740        9.916      857.045
04/22/2014  14:46:00     -523.699     -118.525      -15.915      230.180      185.431      104.915    52983.044    34384.546    11007.187       19.345        4.919      536.944      112.103        0.044      337.813       10.036      857.000
04/22/2014  14:47:00     -628.183     -249.022       -6.576      315.419      168.751      103.902    99489.105    28476.827    10795.614       29.769        6.938      675.741       97.662        0.021      337.438        9.410      857.003
04/22/2014  14:48:00     -525.215     -219.623      -31.510      202.183      166.927      106.422    40878.109    27864.675    11325.672       20.256        4.003      569.285      101.369        0.032      337.516        9.539      857.016
04/22/2014  14:49:00     -387.235     -201.090      -13.692      204.444      179.373       95.448    41797.417    32174.706     9110.261       13.681        4.154      436.335      103.713        0.056      337.886       10.160      857.075
04/22/2014  14:50:00     -345.851     -213.628      -24.801      242.331      176.167      100.369    58724.482    31034.884    10073.921       13.283        4.992      406.510      126.386        0.097      337.603        9.685      857.053
04/22/2014  14:51:00     -488.829     -302.911       -0.069      227.930      182.167      117.191    51952.047    33184.875    13733.740       21.477        4.944      575.073      129.944        0.051      337.603        9.686      857.016
04/22/2014  14:52:00     -455.410     -179.017        4.664      369.763      192.689      123.669   136724.478    37128.948    15293.914       21.427        9.457      489.332      173.844        0.126      337.594        9.669      857.058
04/22/2014  14:53:00     -741.057     -269.553      -24.613      327.229      241.431      121.062   107078.845    58288.848    14655.892       40.119        9.001      788.558      142.039        0.032      337.413        9.367      857.021
04/22/2014  14:54:00     -518.477     -320.779       13.184      327.903      301.771      132.205   107520.432    91065.951    17478.253       29.393       10.803      609.686      158.493        0.068      337.572        9.634      857.039
04/22/2014  14:55:00     -367.456      -98.989       33.917      380.873      250.945      138.766   145064.343    62973.339    19255.881       18.659       11.365      380.556      175.070        0.212      337.892       10.170      857.113
04/22/2014  14:56:00     -629.474     -226.949      -15.453      382.542      292.081      121.248   146338.010    85311.019    14701.090       34.712       12.318      669.137      141.515        0.045      337.469        9.461      857.147
04/22/2014  14:57:00     -285.170       19.012       29.790      227.871      185.015      103.911    51925.238    34230.708    10797.560        8.974        4.848      285.804      113.472        0.158      337.900       10.184      857.107
04/22/2014  14:58:00     -350.735     -254.483      -13.603      256.064      232.503      114.621    65568.937    54057.711    13138.023       16.034        6.638      433.332      126.029        0.085      337.770        9.965      857.135
04/22/2014  14:59:00     -289.069     -179.768        6.649      274.939      165.841      117.628    75591.684    27503.274    13836.409       11.640        5.847      340.408      146.892        0.186      337.821       10.053      857.166
04/22/2014  15:00:00     -557.709     -143.275       -6.361      240.987      230.476      112.301    58074.688    53119.413    12611.570       22.768        6.190      575.818      130.087        0.051      337.686        9.825      857.181
04/22/2014  15:01:00     -740.933      -58.248      -23.138      253.432      209.675      112.115    64227.572    43963.591    12569.871       33.681        6.038      743.219      125.423        0.028      337.265        9.118      857.174
04/22/2014  15:02:00     -602.112     -152.944      -15.581      284.881      224.919      114.571    81157.466    50588.722    13126.574       26.549        7.244      621.233      119.404        0.037      337.656        9.772      857.099
04/22/2014  15:03:00     -697.515     -104.626      -53.000      257.388      241.186      112.642    66248.742    58170.633    12688.275       31.867        6.855      705.318      131.730        0.035      337.387        9.323      857.079
04/22/2014  15:04:00     -743.776      -83.763      -38.039      243.190      291.214      114.167    59141.146    84805.802    13034.128       35.929        7.849      748.477      109.336        0.021      337.428        9.391      857.018
04/22/2014  15:05:00     -331.210     -129.803      -10.802      271.289      182.907       94.305    73597.693    33454.943     8893.516       12.128        5.797      355.737      105.342        0.088      338.100       10.520      857.055
04/22/2014  15:06:00     -558.488     -275.545      -27.124      302.761      282.252      117.994    91664.041    79666.461    13922.563       28.687        9.263      622.763      133.835        0.046      337.671        9.799      857.044
04/22/2014  15:07:00     -514.715     -266.654      -18.682      250.454      189.378      114.285    62726.991    35863.938    13061.132       22.400        5.583      579.686      117.112        0.041      337.453        9.434      857.062
04/22/2014  15:08:00     -460.885     -170.806        4.812      346.703      222.192      120.941   120202.977    49369.436    14626.687       21.287        9.210      491.518      153.161        0.097      337.774        9.974      857.101
04/22/2014  15:09:00     -729.646     -428.458      -25.218      349.121      319.604      140.132   121885.144   102146.563    19637.005       48.008       12.183      846.144      161.544        0.036      337.349        9.260      857.033
04/22/2014  15:10:00     -705.306     -295.924       -8.886      345.104      290.126      145.517   119096.519    84173.350    21175.277       40.473       11.222      764.871      142.726        0.035      337.428        9.392      857.003
04/22/2014  15:11:00     -428.803     -310.724        8.561      368.128      312.661      156.336   135518.407    97756.674    24441.067       26.905       12.886      529.548      168.392        0.101      337.620        9.715      856.992
04/22/2014  15:12:00     -676.121     -194.182      -55.147      420.380      219.746      118.355   176719.433    48288.360    14007.856       36.840       11.951      703.453      167.547        0.057      337.435        9.404      857.066
04/22/2014  15:13:00     -563.844     -132.336      -15.809      288.953      154.454      105.582    83493.637    23855.971    11147.511       22.707        5.925      579.166      132.543        0.052      337.469        9.461      857.051
04/22/2014  15:14:00     -551.036     -280.093      -12.517      249.873      247.455      133.832    62436.390    61233.810    17910.928       26.189        7.079      618.136      135.159        0.048      337.691        9.834      857.067
04/22/2014  15:15:00     -472.923     -133.262      -12.823      332.673      213.799      121.111   110671.463    45710.141    14667.810       20.628        8.552      491.340      152.459        0.096      337.623        9.719      857.072
04/22/2014  15:16:00     -506.275     -267.835       -7.578      288.866      310.409      120.638    83443.849    96353.800    14553.508       26.119        9.718      572.756      146.203        0.065      337.571        9.632      857.043
04/22/2014  15:17:00     -467.734     -157.365      -15.089      292.898      272.267      126.347    85789.017    74129.309    15963.611       20.979        8.794      493.496      157.259        0.102      337.681        9.816      857.025
04/22/2014  15:18:00     -658.979      -78.001      -52.218      359.281      220.783      115.058   129082.934    48744.940    13238.293       31.703        9.553      663.580      143.598        0.047      337.688        9.829      857.041
04/22/2014  15:19:00     -661.718     -102.793      -55.436      332.590      210.616      112.354   110615.892    44359.074    12623.477       30.952        8.380      669.655      142.740        0.045      337.579        9.645      856.986
04/22/2014  15:20:00     -641.621     -105.122      -48.732      253.723      180.483       97.142    64375.406    32574.073     9436.499       26.572        5.319      650.176      109.517        0.028      337.635        9.738      856.997
04/22/2014  15:21:00     -597.327        6.095      -19.089      353.793      239.192      122.336   125169.647    57212.786    14966.026       27.724        9.867      597.358      156.290        0.068      337.688        9.827      856.997
04/22/2014  15:22:00     -473.071     -296.822      -23.547      249.725      193.829      110.118    62362.583    37569.552    12125.866       21.223        5.603      558.479      115.530        0.043      337.792       10.003      857.041
04/22/2014  15:23:00     -498.777     -260.118      -20.315      303.394      247.801      112.808    92047.917    61405.575    12725.641       24.148        8.309      562.530      114.361        0.041      337.818       10.046      857.054
04/22/2014  15:24:00     -661.207     -236.349      -46.552      304.461      271.338      133.568    92696.748    73624.405    17840.334       33.966        9.208      702.179      146.434        0.043      337.557        9.607      857.095
04/22/2014  15:25:00     -470.719     -234.674        3.157      281.165      227.916      130.000    79053.880    51945.752    16900.051       21.225        7.395      525.974      136.013        0.067      337.577        9.642      857.143
04/22/2014  15:26:00     -494.479     -152.329      -10.183      307.679      176.316      128.403    94666.186    31087.414    16487.384       20.500        7.112      517.410      138.480        0.072      337.662        9.784      857.120
04/22/2014  15:27:00     -443.480     -259.730      -31.405      305.393      232.368      102.293    93264.739    53994.671    10463.901       21.139        7.886      513.940      126.010        0.060      337.643        9.752      857.137
04/22/2014  15:28:00     -470.204     -209.342        5.767      292.950      276.371      126.607    85819.746    76380.691    16029.384       22.155        8.911      514.699      148.867        0.084      337.672        9.800      857.080
04/22/2014  15:29:00     -602.875     -140.196      -21.863      317.716      228.315      118.865   100943.489    52127.569    14128.918       27.536        8.360      618.961      147.863        0.057      337.653        9.768      857.090
04/22/2014  15:30:00     -449.936     -104.359        6.655      255.223      207.493      117.288    65138.538    43053.357    13756.389       16.764        6.097      461.880      127.747        0.076      337.992       10.337      857.106
04/22/2014  15:31:00     -606.531     -165.074      -24.053      266.972      199.462      120.440    71274.058    39785.117    14505.690       26.061        6.278      628.593      135.702        0.047      337.633        9.737      857.099
04/22/2014  15:32:00     -377.508     -182.133       23.712      225.860      199.516       99.026    51012.819    39806.778     9806.117       13.842        5.031      419.147      118.605        0.080      337.733        9.904      857.117
04/22/2014  15:33:00     -364.123     -354.421       21.503      230.584      202.004      113.977    53169.066    40805.659    12990.693       18.279        5.348      508.134      125.559        0.061      337.633        9.736      857.098
04/22/2014  15:34:00     -349.558     -223.910       10.142      231.677      191.256       95.562    53674.128    36578.905     9132.036       13.589        4.969      415.122      103.261        0.062      337.873       10.139      857.135
04/22/2014  15:35:00     -667.676     -217.461      -23.400      490.823      212.776      128.841   240906.799    45273.789    16599.989       39.814       15.139      702.197      162.521        0.054      337.699        9.848      857.124
04/22/2014  15:36:00     -734.898     -228.932      -15.460      354.885      242.009      130.998   125943.448    58568.578    17160.523       39.716       10.084      769.730      172.480        0.050      337.539        9.577      857.126
04/22/2014  15:37:00     -714.731     -100.992      -30.709      394.127      270.096      160.734   155336.277    72951.759    25835.442       38.800       12.706      721.831      204.248        0.080      337.513        9.533      857.123
04/22/2014  15:38:00     -526.220     -350.855      -14.713      247.357      217.872      113.289    61185.698    47468.067    12834.354       26.083        6.074      632.461      111.258        0.031      337.454        9.435      857.165
04/22/2014  15:39:00     -545.028     -296.224      -22.461      287.466      222.372      126.272    82636.505    49449.227    15944.663       26.664        7.402      620.326      136.724        0.049      337.423        9.384      857.155
04/22/2014  15:40:00     -635.311     -252.537       -2.265      314.092      297.717      147.876    98653.753    88635.559    21867.177       33.824       10.458      683.663      161.262        0.056      337.392        9.333      857.100
04/22/2014  15:41:00     -696.564     -563.340      -13.140      325.305      260.539      168.585   105823.629    67880.397    28420.946       50.239       10.106      895.854      182.363        0.041      337.090        8.827      857.012
04/22/2014  15:42:00     -728.263     -300.290      -49.204      299.200      270.175      126.069    89520.445    72994.404    15893.509       40.065        8.920      787.745      141.958        0.032      337.489        9.494      857.079
04/22/2014  15:43:00     -419.576     -269.123       -5.509      240.488      189.527      113.801    57834.638    35920.492    12950.624       17.758        5.335      498.469      119.894        0.058      337.586        9.658      857.198
04/22/2014  15:44:00     -321.795     -157.618       -9.807      301.474      213.533      119.821    90886.721    45596.475    14356.998       13.964        7.542      358.323      140.450        0.154      337.769        9.965      857.188
04/22/2014  15:45:00     -502.238      -38.615      -15.203      248.942      183.019      101.070    61972.330    33495.843    10215.091       17.980        5.284      503.720      121.050        0.058      337.590        9.664      857.161
04/22/2014  15:46:00     -476.746     -150.325      -17.059      250.520      196.344       92.832    62760.449    38550.916     8617.809       18.003        5.496      499.885       98.774        0.039      337.764        9.956      857.112
04/22/2014  15:47:00     -465.189     -365.647       -7.988      317.005      260.124      135.029   100492.300    67664.629    18232.840       26.824        9.319      591.691      168.888        0.081      337.531        9.567      857.198
04/22/2014  15:48:00     -520.135     -266.308       -1.064      198.823      170.212       84.879    39530.562    28972.181     7204.491       20.857        3.785      584.346       88.577        0.023      337.513        9.536      857.224
04/22/2014  15:49:00     -521.018     -382.695      -13.511      317.671      243.094      114.384   100914.742    59094.752    13083.629       29.556        8.655      646.464      144.050        0.050      337.636        9.740      857.204
04/22/2014  15:50:00     -423.762     -159.567      -40.977      241.710      148.042       96.494    58423.902    21916.408     9311.144       14.817        4.483      452.809       98.449        0.047      337.590        9.664      857.216
04/22/2014  15:51:00     -279.492       -7.239        1.770      215.811      134.729       94.501    46574.287    18151.882     8930.466        7.590        3.683      279.586      107.236        0.147      337.993       10.340      857.192
04/22/2014  15:52:00     -321.719     -219.326       27.936      260.036      326.447      129.550    67618.540   106567.362    16783.304       17.164        9.548      389.367      129.926        0.111      337.869       10.133      857.181
04/22/2014  15:53:00     -659.016     -406.911      -19.490      342.925      284.363      129.445   117597.410    80862.177    16755.975       40.769       10.761      774.518      161.160        0.043      337.409        9.362      857.144
04/22/2014  15:54:00     -627.434     -294.034      -16.462      273.223      350.904      129.282    74651.042   123133.475    16713.848       34.741       10.725      692.914      131.176        0.036      337.626        9.724      857.113
04/22/2014  15:55:00     -751.002     -277.960      -27.559      297.999      232.535      134.920    88803.413    54072.716    18203.461       40.152        8.054      800.790      148.458        0.034      337.441        9.414      857.180
04/22/2014  15:56:00     -650.310     -278.379      -17.534      350.228      326.430      127.282   122660.000   106556.695    16200.744       37.301       12.271      707.389      159.017        0.051      337.529        9.560      857.186
04/22/2014  15:57:00     -529.456     -285.475        9.900      434.626      325.801      157.898   188899.970   106146.062    24931.932       34.088       15.999      601.515      203.120        0.114      337.542        9.582      857.204
04/22/2014  15:58:00     -759.003     -367.823      -54.475      275.399      257.440      115.522    75844.751    66275.269    13345.421       43.487        7.773      843.433      122.370        0.021      337.390        9.328      857.211
04/22/2014  15:59:00     -509.902      -34.818      -34.573      221.704      174.963       93.700    49152.598    30612.087     8779.781       17.546        4.427      511.089      103.115        0.041      337.605        9.689      857.274
04/22/2014  16:00:00     -358.941      -50.182       -3.334      174.691      141.516       83.225    30516.962    20026.808     6926.412        9.441        2.874      362.432       86.376        0.057      337.946       10.261      857.301
04/22/2014  16:01:00     -576.336      -58.426      -30.058      316.274      205.229      114.132   100029.244    42118.875    13026.069       24.580        7.759      579.290      126.554        0.048      337.824       10.056      857.257
04/22/2014  16:02:00     -559.913      -80.350      -31.460      255.297      201.296       98.650    65176.328    40520.140     9731.890       21.817        5.771      565.649      109.607        0.038      337.703        9.853      857.294
04/22/2014  16:03:00     -497.813     -118.516      -14.626      198.872      162.299       89.181    39550.177    26340.848     7953.173       16.795        3.692      511.726       83.209        0.026      337.707        9.860      857.303
04/22/2014  16:04:00     -361.329     -223.047        7.486      230.602      171.195      105.435    53177.256    29307.717    11116.540       13.696        4.680      424.628      119.835        0.080      337.724        9.887      857.328
04/22/2014  16:05:00     -520.811     -386.381       -1.090      299.159      214.853      139.317    89496.385    46161.603    19409.329       28.777        7.753      648.486      146.883        0.051      337.589        9.661      857.292
04/22/2014  16:06:00     -494.191     -365.060       -6.429      297.758      258.511      137.768    88660.115    66828.064    18979.980       27.597        8.723      614.405      150.594        0.060      337.534        9.570      857.330
04/22/2014  16:07:00     -557.667     -372.692       -6.235      298.421      220.862      131.550    89055.185    48779.996    17305.401       30.250        7.757      670.740      148.854        0.049      337.334        9.234      857.329
04/22/2014  16:08:00     -532.258     -366.286      -12.901      287.932      199.225      125.553    82904.677    39690.797    15763.579       27.797        6.918      646.114      148.435        0.053      337.406        9.355      857.282
04/22/2014  16:09:00     -613.282     -330.337       -0.842      269.152      210.482      112.628    72442.946    44302.699    12684.966       30.731        6.472      696.590      125.220        0.032      337.457        9.440      857.229
04/22/2014  16:10:00     -355.988     -149.935       20.057      284.666      263.436      147.767    81034.578    69398.706    21835.065       16.090        8.613      386.274      161.778        0.175      337.753        9.938      857.235
04/22/2014  16:11:00     -665.998     -199.511      -19.985      294.589      249.022      120.340    86782.785    62012.142    14481.728       32.348        8.164      695.240      136.386        0.038      337.468        9.459      857.214
04/22/2014  16:12:00     -472.471     -345.892      -20.854      291.166      257.841      119.607    84777.491    66482.193    14305.905       25.440        8.278      585.552      116.231        0.039      337.591        9.665      857.228
04/22/2014  16:13:00     -546.792     -402.320      -11.065      310.885      259.643      145.572    96649.244    67414.377    21191.294       32.307        9.263      678.854      151.655        0.050      337.423        9.386      857.229
04/22/2014  16:14:00     -381.203     -176.242       -3.841      254.666      169.000      108.402    64854.991    28561.110    11751.049       14.076        5.258      419.973      115.600        0.076      337.795       10.008      857.272
04/22/2014  16:15:00     -340.977     -211.075       11.400      231.000      204.156       93.525    53360.798    41679.871     8746.854       13.235        5.189      401.021      101.100        0.064      337.909       10.198      857.300
04/22/2014  16:16:00     -535.481     -310.636       -7.265      278.994      240.496      129.056    77837.641    57838.166    16655.465       26.778        7.617      619.059      133.437        0.046      337.546        9.589      857.311
04/22/2014  16:17:00     -684.456     -410.093       -5.767      318.339      241.346      133.257   101339.826    58247.912    17757.424       40.698        8.867      797.907      148.253        0.035      337.295        9.169      857.293
04/22/2014  16:18:00     -506.537     -227.928       16.274      249.430      216.351      109.621    62215.448    46807.884    12016.754       21.489        6.052      555.456      125.886        0.051      337.535        9.571      857.332
04/22/2014  16:19:00     -646.270     -379.040      -13.116      286.311      236.215      127.944    81973.846    55797.429    16369.662       35.779        7.707      749.224      144.827        0.037      337.255        9.103      857.341
04/22/2014  16:20:00     -602.738     -356.011      -20.927      297.097      223.296      137.986    88266.484    49860.972    19040.173       32.379        7.858      700.026      150.634        0.046      337.219        9.042      857.360
04/22/2014  16:21:00     -466.220     -301.670        7.729      338.020      244.110      128.220   114257.581    59589.912    16440.260       24.932        9.514      555.307      135.673        0.060      337.415        9.369      857.349
04/22/2014  16:22:00     -444.039     -240.114      -11.586      260.936      171.636      111.076    68087.600    29458.952    12337.792       18.240        5.494      504.802      129.285        0.066      337.355        9.270      857.429
04/22/2014  16:23:00     -527.552     -223.797      -32.828      284.570      191.163      107.564    80979.965    36543.433    11569.943       22.926        6.455      573.059      111.166        0.038      337.294        9.169      857.433
04/22/2014  16:24:00     -448.469      -79.793        2.957      243.371      180.222       93.221    59229.547    32479.964     8690.088       15.393        5.020      455.512      115.492        0.064      337.473        9.468      857.472
04/22/2014  16:25:00     -735.380     -216.402      -37.973      269.023      246.657      102.731    72373.280    60839.847    10553.661       36.638        7.188      766.560      108.331        0.020      337.117        8.871      857.456
04/22/2014  16:26:00     -388.461      -56.952      -16.706      300.337      151.705      108.755    90202.191    23014.399    11827.566       13.971        6.252      392.613      132.347        0.114      337.231        9.063      857.446
04/22/2014  16:27:00     -435.167      -24.103       -5.284      186.682      194.376       93.252    34850.166    37782.159     8695.941       13.564        4.066      435.834       90.396        0.043      337.161        8.944      857.392
04/22/2014  16:28:00     -506.391     -125.072      -17.402      339.811      212.431      121.763   115471.273    45126.802    14826.328       22.387        8.771      521.608      148.317        0.081      337.340        9.245      857.281
04/22/2014  16:29:00     -455.804     -269.800        7.198      295.697      251.093      111.817    87436.713    63047.491    12502.944       22.176        8.149      529.668      115.110        0.047      337.491        9.500      857.436
04/22/2014  16:30:00     -519.136     -393.303        0.604      275.225      233.152      125.976    75748.882    54359.917    15869.963       28.506        7.299      651.298      129.812        0.040      337.026        8.721      857.490
04/22/2014  16:31:00     -642.356     -297.747      -24.598      298.114      253.992      126.986    88871.792    64512.112    16125.397       33.566        8.475      708.007      128.100        0.033      336.992        8.662      857.471
04/22/2014  16:32:00     -435.637     -137.899       17.991      258.759      183.414      113.109    66956.083    33640.772    12793.627       16.123        5.670      456.942      122.436        0.072      337.090        8.827      857.489
04/22/2014  16:33:00     -352.799     -230.803      -14.392      214.924      153.195       74.557    46192.238    23468.733     5558.799       12.657        3.761      421.589       71.284        0.029      337.324        9.219      857.553
04/22/2014  16:34:00     -599.663     -274.478      -20.410      220.547      205.752      105.784    48641.176    42333.698    11190.177       26.874        5.108      659.495      115.240        0.031      337.244        9.086      857.513
04/22/2014  16:35:00     -386.680     -230.103       -3.910      263.103      189.497       98.775    69223.404    35909.251     9756.454       15.866        5.744      449.965      126.760        0.079      337.368        9.293      857.520
04/22/2014  16:36:00     -610.760     -219.016      -27.187      276.053      237.841      116.607    76205.259    56568.544    13597.211       28.402        7.319      648.842      121.285        0.035      337.284        9.152      857.561
04/22/2014  16:37:00     -792.570     -193.743      -54.068      259.354      248.272      124.890    67264.243    61639.156    15597.564       40.654        7.225      815.907      121.603        0.022      337.242        9.081      857.566
04/22/2014  16:38:00     -620.381     -155.234      -24.686      272.500      231.200      114.978    74256.444    53453.333    13219.961       27.523        7.046      639.508      131.019        0.042      337.265        9.120      857.577
04/22/2014  16:39:00     -564.555     -214.730      -26.359      260.798      199.897       98.362    68015.465    39958.958     9675.147       24.156        5.882      604.012      109.617        0.033      337.062        8.780      857.582
04/22/2014  16:40:00     -386.903     -225.772        8.536      239.844      191.019      115.946    57525.280    36488.260    13443.475       15.408        5.373      447.958      141.278        0.099      337.358        9.274      857.589
04/22/2014  16:41:00     -378.059     -318.882      -25.930      254.099      220.436      124.915    64566.524    48592.201    15603.649       18.700        6.438      494.585      135.147        0.075      337.251        9.096      857.538
04/22/2014  16:42:00     -561.996     -300.708      -26.025      294.603      260.879      111.004    86791.090    68058.040    12321.984       28.702        8.359      637.389      111.124        0.030      337.162        8.947      857.500
04/22/2014  16:43:00     -492.702     -288.372       -1.135      226.414      174.784      103.608    51263.138    30549.382    10734.515       20.921        4.627      570.888       96.344        0.028      337.356        9.273      857.540
04/22/2014  16:44:00     -470.524     -230.178      -27.904      270.478      161.363      100.091    73158.616    26037.978    10018.289       19.216        5.461      523.808      100.009        0.036      337.395        9.336      857.568
04/22/2014  16:45:00     -626.416      -73.245      -14.375      295.642      193.899      117.075    87404.345    37596.767    13706.490       26.831        6.935      630.684      135.197        0.046      337.222        9.046      857.550
04/22/2014  16:46:00     -410.465     -268.286       10.946      327.720      274.052      121.406   107400.558    75104.743    14739.517       21.887        9.862      490.366      146.316        0.089      337.419        9.376      857.561
04/22/2014  16:47:00     -354.098     -148.129       14.562      341.638      214.191      120.374   116716.678    45877.773    14489.847       16.228        8.854      383.833      146.108        0.145      337.536        9.573      857.590
04/22/2014  16:48:00     -651.781      -76.805      -30.282      276.242      259.621      121.648    76309.550    67402.871    14798.283       29.504        7.926      656.291      141.884        0.047      337.407        9.356      857.650
04/22/2014  16:49:00     -463.012     -154.227      -18.348      261.274      189.607      117.183    68264.039    35950.707    13731.811       17.820        5.897      488.023      116.959        0.057      337.302        9.181      857.670
04/22/2014  16:50:00     -316.622      -94.345       20.424      215.510      183.637      110.949    46444.587    33722.531    12309.648       10.100        4.624      330.379      113.247        0.117      337.478        9.475      857.697
04/22/2014  16:51:00     -321.601     -147.473       17.455      301.987      269.722      142.572    91196.037    72750.001    20326.911       15.484        9.214      353.801      161.968        0.210      337.453        9.434      857.660
04/22/2014  16:52:00     -378.356     -210.569       27.002      320.820      264.608      147.238   102925.244    70017.629    21679.060       19.138        9.731      433.004      151.900        0.123      337.320        9.212      857.657
04/22/2014  16:53:00     -399.356     -102.009        4.215      344.521      264.709      142.928   118694.807    70071.000    20428.411       18.951       10.460      412.179      177.609        0.186      337.407        9.356      857.632
04/22/2014  16:54:00     -422.911     -133.586      -29.844      253.719      199.277       92.297    64373.584    39711.178     8518.748       15.507        5.630      443.508       99.625        0.050      337.466        9.456      857.706
04/22/2014  16:55:00     -197.318      -99.741        3.050      205.526      148.105       88.885    42240.893    21935.014     7900.458        6.047        3.604      221.094       92.401        0.175      337.793       10.005      857.772
04/22/2014  16:56:00     -231.228     -113.993       29.295      227.663      186.098      101.835    51830.336    34632.578    10370.287        8.206        4.842      257.799      118.935        0.213      337.645        9.758      857.766
04/22/2014  16:57:00     -699.244      -63.309      -51.679      294.231      175.563      108.304    86572.105    30822.382    11729.783       31.235        6.456      702.104      109.640        0.024      337.283        9.150      857.756
04/22/2014  16:58:00     -527.773     -221.221       -8.568      243.978      201.987      102.199    59525.220    40798.675    10444.626       21.914        5.538      572.261      121.478        0.045      337.133        8.899      857.716
04/22/2014  16:59:00     -313.632     -170.734      -17.055      163.101      104.738       70.960    26602.022    10969.978     5035.389        8.520        2.130      357.093       76.800        0.046      337.499        9.512      857.726
04/22/2014  17:00:00     -490.738     -303.190       10.958      299.277      238.238      142.030    89566.784    56757.137    20172.538       24.965        8.325      576.843      163.501        0.080      337.382        9.315      857.712
04/22/2014  17:01:00     -342.686     -209.717       -2.414      223.764      167.592      109.464    50070.326    28087.226    11982.389       12.576        4.507      401.765      117.113        0.085      337.463        9.450      857.732
04/22/2014  17:02:00     -324.292     -180.854        0.088      200.139      136.011       80.604    40055.526    18499.083     6496.935       10.145        3.253      371.313       89.771        0.058      337.658        9.777      857.769
04/22/2014  17:03:00     -219.438     -213.905       44.235      225.476      221.929      143.180    50839.269    49252.323    20500.530       10.820        6.030      306.444      143.236        0.218      337.707        9.859      857.775
04/22/2014  17:04:00     -347.264     -335.931       27.557      336.101      238.580      135.148   112964.092    56920.476    18264.989       21.114        9.407      483.158      156.432        0.105      337.305        9.187      857.765
04/22/2014  17:05:00     -249.970     -194.474       20.671      257.750      190.063      118.452    66435.155    36123.977    14030.969       10.864        5.830      316.710      141.468        0.200      337.434        9.403      857.775
04/22/2014  17:06:00     -126.375     -122.949        4.946      194.603      150.217       88.462    37870.243    22565.277     7825.437        4.967        3.413      176.315       80.596        0.209      337.595        9.673      857.776
04/22/2014  17:07:00     -146.472     -152.858        6.888      146.723      123.136       75.333    21527.654    15162.592     5675.013        4.361        2.118      211.707       85.957        0.165      337.683        9.820      857.831
04/22/2014  17:08:00     -212.442     -141.136       18.531      207.997      146.863      109.865    43262.829    21568.667    12070.262        7.113        3.845      255.051      115.939        0.207      337.506        9.522      857.801
04/22/2014  17:09:00     -495.821     -140.082        0.778      261.708      261.585      118.208    68490.928    68426.540    13973.151       20.815        7.545      515.229      111.204        0.047      337.359        9.278      857.758
04/22/2014  17:10:00     -452.299      -65.498      -13.070      225.518      265.744      102.454    50858.375    70619.853    10496.798       17.048        6.599      457.017      102.529        0.050      337.288        9.158      857.805
04/22/2014  17:11:00     -400.973     -338.977        8.527      286.283      247.306      135.491    81958.020    61160.464    18357.707       21.858        8.074      525.057      150.825        0.083      337.321        9.212      857.793
04/22/2014  17:12:00     -420.326     -213.143      -27.168      212.386      195.477       85.826    45107.650    38211.126     7366.095       15.675        4.534      471.279       93.707        0.040      337.377        9.307      857.791
04/22/2014  17:13:00     -268.941     -189.341       19.442      217.049      187.690      112.401    47110.117    35227.717    12634.013       10.175        4.749      328.906      130.647        0.158      337.553        9.601      857.801
04/22/2014  17:14:00     -679.027     -110.298      -36.753      370.513      215.401      112.143   137280.217    46397.782    12575.944       33.538        9.813      687.927      138.635        0.041      337.303        9.182      857.779
04/22/2014  17:15:00     -386.260      -68.845       21.199      218.572      172.927      108.786    47773.898    29903.869    11834.441       12.193        4.476      392.348      119.770        0.093      337.422        9.384      857.830
04/22/2014  17:16:00     -337.997     -131.208        4.851      189.019      168.298       89.101    35728.235    28324.140     7938.994       10.172        3.600      362.571       81.833        0.051      337.484        9.486      857.870
04/22/2014  17:17:00     -418.794       28.861       -1.519      297.835      164.685       97.963    88705.463    27121.253     9596.696       15.080        6.271      419.788      138.376        0.109      337.347        9.258      857.826
04/22/2014  17:18:00     -316.933      -92.378       -0.981      165.353      119.420       77.185    27341.500    14261.184     5957.572        7.826        2.378      330.122       87.007        0.069      337.618        9.711      857.843
04/22/2014  17:19:00     -222.496     -122.076       -2.770      119.643      137.574       63.504    14314.510    18926.732     4032.779        5.084        1.864      253.785       64.776        0.065      337.639        9.746      857.853
04/22/2014  17:20:00     -370.080     -145.525        3.608      259.468      241.000      110.036    67323.702    58081.156    12107.871       14.780        6.876      397.664      109.805        0.076      337.468        9.460      857.832
04/22/2014  17:21:00     -709.141     -416.947      -12.179      336.918      257.103      146.249   113513.504    66101.784    21388.636       43.890       10.050      822.633      178.593        0.047      337.117        8.872      857.752
04/22/2014  17:22:00     -676.182     -407.952      -15.290      324.392      256.800      126.041   105230.243    65946.344    15886.290       40.543        9.353      789.713      162.294        0.042      337.102        8.845      857.744
04/22/2014  17:23:00     -333.822     -117.554       -6.712      251.838      212.927       98.715    63422.170    45338.000     9744.698       12.188        5.925      353.915      117.637        0.110      337.351        9.263      857.824
04/22/2014  17:24:00     -515.086     -358.645      -19.920      282.584      196.838      111.727    79853.722    38745.186    12482.987       26.268        6.554      627.646      148.563        0.056      337.230        9.059      857.821
04/22/2014  17:25:00     -419.515     -142.364      -14.523      206.864      158.327      101.434    42792.753    25067.496    10288.772       13.729        3.907      443.013      114.134        0.066      337.449        9.426      857.801
04/22/2014  17:26:00     -495.641     -203.634       -4.506      218.765      211.562      107.211    47858.306    44758.281    11494.304       19.561        5.206      535.843      116.741        0.047      337.494        9.502      857.807
04/22/2014  17:27:00     -416.809       18.127       -4.454      205.094      150.383      100.514    42063.493    22614.897    10102.994       12.441        3.739      417.203      112.721        0.073      337.560        9.613      857.854
04/22/2014  17:28:00     -289.786     -100.765       11.160      253.255      161.911       96.509    64138.050    26215.165     9313.905        9.694        4.983      306.805      123.013        0.161      337.677        9.812      857.850
04/22/2014  17:29:00     -339.044      -81.324      -12.974      272.345      177.632      100.882    74171.878    31553.238    10177.213       11.879        5.795      348.661      132.298        0.144      337.569        9.630      857.868
04/22/2014  17:30:00     -358.847     -149.774        7.709      205.498      172.448       77.378    42229.238    29738.301     5987.310       11.459        3.898      388.848       85.939        0.049      337.678        9.812      857.883
04/22/2014  17:31:00     -285.867     -225.809       43.472      263.102      211.990      146.205    69222.694    44939.833    21375.799       13.504        6.777      364.293      158.527        0.189      337.406        9.357      857.895
04/22/2014  17:32:00     -271.782     -105.466        5.046      209.831      161.907      107.066    44029.031    26213.902    11463.234        8.334        4.085      291.528      111.071        0.145      337.468        9.460      857.907
04/22/2014  17:33:00     -364.238     -249.690       -1.393      233.171      177.200      112.302    54368.803    31399.941    12611.643       14.668        4.919      441.605      122.250        0.077      337.297        9.173      857.909
04/22/2014  17:34:00     -371.537     -103.020       10.222      224.687      251.554      111.325    50484.287    63279.356    12393.327       13.743        6.308      385.556      119.377        0.096      337.285        9.152      857.905
04/22/2014  17:35:00     -223.087      -13.873        3.477      177.841      128.755       74.164    31627.496    16577.917     5500.249        5.183        2.685      223.518       84.864        0.144      337.506        9.524      857.895
04/22/2014  17:36:00     -282.351     -247.042       13.588      232.637      204.422       97.967    54120.034    41788.426     9597.490       12.320        5.275      375.169      113.610        0.092      337.432        9.399      857.946
04/22/2014  17:37:00     -358.413      -71.403      -23.275      242.071      190.900       94.155    58598.157    36442.804     8865.212       11.898        5.195      365.456       91.817        0.063      337.467        9.458      857.942
04/22/2014  17:38:00     -414.502     -180.682      -15.240      239.467      180.070       93.823    57344.559    32425.277     8802.808       15.161        4.929      452.170      111.271        0.061      337.325        9.219      857.979
04/22/2014  17:39:00     -246.445     -154.730        5.596      305.963      186.353       87.921    93613.363    34727.318     7730.131       11.036        6.804      290.992      125.930        0.187      337.468        9.460      857.971
04/22/2014  17:40:00     -492.710     -282.864       -3.202      255.451      181.331      105.540    65255.118    32880.794    11138.631       21.601        5.464      568.133      101.314        0.032      337.224        9.051      857.959
04/22/2014  17:41:00     -496.243     -241.920      -18.071      278.011      197.107      101.832    77289.985    38851.093    10369.710       21.578        6.326      552.071      130.454        0.056      337.180        8.978      857.993
04/22/2014  17:42:00     -459.271     -224.596       -6.388      224.723      179.866       88.013    50500.365    32351.846     7746.306       17.599        4.530      511.247      111.476        0.048      337.097        8.838      858.007
04/22/2014  17:43:00     -344.218     -321.263       -1.541      231.661      210.196      107.354    53666.736    44182.241    11524.907       16.551        5.469      470.846      104.959        0.050      337.135        8.902      857.977
04/22/2014  17:44:00     -461.783     -281.397      -18.605      256.411      234.155      118.430    65746.559    54828.707    14025.618       21.366        6.730      540.766      132.315        0.060      337.102        8.848      857.948
04/22/2014  17:45:00     -237.648      -38.861       -1.652      193.389      129.038       89.377    37399.345    16650.854     7988.280        6.000        3.102      240.805       94.657        0.155      337.570        9.632      858.034
04/22/2014  17:46:00     -451.351      -83.866      -15.578      222.100      185.461       93.768    49328.421    34395.635     8792.454       15.174        4.626      459.076       95.457        0.043      337.403        9.351      858.062
04/22/2014  17:47:00     -348.860     -144.432       17.981      269.229      197.326      131.124    72484.066    38937.648    17193.440       13.573        6.431      377.576      136.242        0.130      337.248        9.092      858.068
04/22/2014  17:48:00     -456.623     -238.408       -2.854      245.879      200.091       99.318    60456.709    40036.397     9864.118       18.783        5.518      515.114      111.315        0.047      337.108        8.857      858.080
04/22/2014  17:49:00     -343.711     -227.987       11.970      290.186      208.384      124.983    84208.122    43424.009    15620.750       15.673        7.163      412.450      150.089        0.132      337.066        8.786      858.084
04/22/2014  17:50:00     -371.408     -256.488      -10.597      216.013      170.828       96.304    46661.832    29182.233     9274.440       14.446        4.256      451.364      106.821        0.056      337.056        8.768      858.088
04/22/2014  17:51:00     -523.578     -152.711      -29.638      260.180      187.410       91.340    67693.489    35122.431     8342.933       20.472        5.558      545.394       96.069        0.031      337.130        8.893      858.095
04/22/2014  17:52:00     -250.580      -34.516       -6.334      178.682      144.864       79.247    31927.175    20985.441     6280.078        6.160        2.960      252.946       89.082        0.124      337.451        9.430      858.122
04/22/2014  17:53:00     -553.955     -102.804      -41.715      283.970      158.865       89.719    80639.236    25238.176     8049.537       21.653        5.696      563.414      110.560        0.039      337.320        9.211      858.130
04/22/2014  17:54:00     -498.793     -131.008      -35.401      253.043      148.982      103.505    64030.518    22195.648    10713.208       18.206        4.847      515.711      114.003        0.049      337.118        8.871      858.124
04/22/2014  17:55:00     -201.395      -67.545       19.222      191.802      118.832       82.495    36787.949    14120.926     6805.355        5.159        2.886      212.420       95.425        0.202      337.424        9.387      858.153
04/22/2014  17:56:00     -432.526     -204.038       -2.933      327.031      196.600      113.391   106949.100    38651.610    12857.474       19.356        7.923      478.237      135.837        0.081      337.204        9.017      858.174
04/22/2014  17:57:00     -478.167     -285.352       -2.899      242.512      219.768       95.476    58812.065    48298.023     9115.637       21.313        5.811      556.839      118.018        0.045      337.061        8.777      858.158
04/22/2014  17:58:00     -244.449     -161.519       18.877      249.562      149.459       81.672    62281.095    22337.867     6670.327        8.873        4.564      292.991      115.616        0.156      337.334        9.235      858.188
04/22/2014  17:59:00     -499.185     -320.475      -24.219      226.608      155.676       99.527    51351.094    24235.034     9905.646       21.897        4.275      593.203      105.197        0.031      337.021        8.710      858.167
04/22/2014  18:00:00     -264.495     -161.836       20.172      218.713      151.491       85.026    47835.450    22949.600     7229.378        8.727        3.901      310.078      111.121        0.128      337.193        8.999      858.186
04/22/2014  18:01:00     -179.139     -147.540       13.464      147.403      138.844       88.383    21727.735    19277.690     7811.633        5.142        2.441      232.075       99.024        0.182      337.332        9.232      858.209
04/22/2014  18:02:00     -404.540     -182.374       -9.781      235.706      172.877       98.104    55557.206    29886.306     9624.306       14.602        4.753      443.748      102.936        0.054      337.105        8.853      858.154
04/22/2014  18:03:00     -448.262     -153.574       -8.721      201.902      174.052       95.055    40764.223    30294.252     9035.481       15.233        4.005      473.840       98.546        0.043      337.122        8.879      858.195
04/22/2014  18:04:00     -322.429     -260.369        3.462      220.820      175.870      110.062    48761.400    30930.209    12113.749       13.177        4.590      414.430      118.000        0.081      337.163        8.949      858.239
04/22/2014  18:05:00     -419.464     -133.900      -15.979      190.571      118.534       85.634    36317.376    14050.297     7333.250       12.591        2.885      440.318       95.443        0.047      337.166        8.954      858.275
04/22/2014  18:06:00     -345.591     -151.924       -3.400      160.032      127.180       81.834    25610.378    16174.836     6696.762        9.549        2.424      377.511       83.708        0.049      337.312        9.199      858.282
04/22/2014  18:07:00     -182.489      -54.525       24.536      181.551      124.807       91.462    32960.699    15576.736     8365.251        4.688        2.845      190.461       94.305        0.245      337.337        9.241      858.295
04/22/2014  18:08:00     -304.989     -131.962        2.613      174.326      145.384       75.466    30389.688    21136.639     5695.135        8.382        2.861      332.313       74.829        0.051      337.212        9.030      858.291
04/22/2014  18:09:00     -296.766     -180.068       -2.747      194.066      144.950       88.041    37661.603    21010.503     7751.236        9.345        3.321      347.123      101.069        0.085      337.156        8.938      858.311
04/22/2014  18:10:00     -336.500      -56.476      -27.379      139.569      165.450       61.568    19479.450    27373.825     3790.614        8.390        2.532      341.206       64.101        0.035      337.293        9.167      858.320
04/22/2014  18:11:00     -416.037     -195.390       -9.235      257.527      194.152       88.201    66320.027    37694.982     7779.465       16.155        5.590      459.635      120.071        0.068      337.175        8.969      858.333
04/22/2014  18:12:00     -397.392       -6.997      -34.276      205.958      115.017       79.861    42418.505    13228.888     6377.742       11.057        3.101      397.454       79.531        0.040      337.026        8.720      858.325
04/22/2014  18:13:00     -263.098      -86.093        8.963      177.219      147.876       78.420    31406.420    21867.240     6149.765        6.806        2.971      276.826       96.504        0.122      337.334        9.235      858.317
04/22/2014  18:14:00     -175.812      -22.982        0.659      195.008       98.630       71.535    38028.268     9727.936     5117.256        4.215        2.644      177.308       89.969        0.257      337.398        9.342      858.319
04/22/2014  18:15:00     -235.847      -88.079        4.405      169.409      157.974       71.616    28699.487    24955.931     5128.883        6.108        2.939      251.757       78.266        0.097      337.261        9.113      858.325
04/22/2014  18:16:00     -327.460     -204.432       -7.862      174.366      130.680       83.234    30403.458    17077.188     6927.869       10.174        2.720      386.034       87.607        0.052      337.320        9.211      858.304
04/22/2014  18:17:00     -269.256      -73.966       10.861      224.953      139.880       80.908    50604.072    19566.474     6546.124        7.739        3.836      279.231       88.818        0.101      337.295        9.170      858.372
04/22/2014  18:18:00     -557.220     -143.816      -16.917      236.676      197.064       97.573    56015.411    38834.380     9520.397       21.790        5.219      575.480      123.137        0.046      337.072        8.796      858.312
04/22/2014  18:19:00     -454.876     -146.922      -13.526      259.998      172.688      104.234    67598.811    29821.241    10864.824       16.846        5.414      478.015      106.602        0.050      337.066        8.785      858.340
04/22/2014  18:20:00     -288.521      -91.293        3.223      196.014      144.469       75.474    38421.398    20871.292     5696.288        7.828        3.249      302.620       84.538        0.078      337.292        9.165      858.375
04/22/2014  18:21:00     -457.517     -359.895       -8.432      236.183      203.544      108.155    55782.580    41430.228    11697.439       22.389        5.446      582.105      119.838        0.042      337.043        8.747      858.357
04/22/2014  18:22:00     -385.406     -234.850        7.171      280.640      212.927      124.235    78758.921    45337.918    15434.306       17.161        6.977      451.323      143.630        0.101      336.970        8.627      858.372
04/22/2014  18:23:00     -437.355     -170.641      -23.715      194.303      203.556      100.387    37753.474    41435.153    10077.585       15.510        4.463      469.466       92.371        0.039      336.865        8.450      858.395
04/22/2014  18:24:00     -436.182     -101.592      -19.812      188.608      164.657       85.168    35572.833    27111.862     7253.642       13.544        3.497      447.857       95.316        0.045      336.937        8.571      858.454
04/22/2014  18:25:00     -696.071      -84.956      -48.977      209.728      173.617       86.307    43986.005    30143.028     7448.838       28.784        4.079      701.236       96.188        0.019      336.666        8.118      858.488
04/22/2014  18:26:00     -396.336      -36.931       -2.571      198.928      167.396       82.478    39572.230    28021.564     6802.576       11.641        3.720      398.053       95.034        0.057      336.891        8.494      858.484
04/22/2014  18:27:00     -532.521     -254.877      -22.672      259.305      198.212      108.190    67239.322    39287.953    11705.014       23.362        5.912      590.374      119.764        0.041      336.700        8.173      858.496
04/22/2014  18:28:00     -386.639     -163.182      -28.084      244.557      182.598       83.402    59808.332    33342.013     6955.969       13.849        5.005      419.664       96.479        0.053      336.890        8.492      858.511
04/22/2014  18:29:00     -343.336     -102.503       -1.095      276.075      190.476       92.251    76217.554    36281.187     8510.218       12.467        6.050      358.310      120.733        0.114      336.950        8.593      858.528
04/22/2014  18:30:00     -516.814     -208.138       -6.325      305.617      199.811      109.851    93401.509    39924.527    12067.248       22.790        7.270      557.152      125.568        0.051      336.741        8.244      858.533
04/22/2014  18:31:00     -276.599     -148.444        4.600      242.358      170.287      113.219    58737.528    28997.528    12818.449        9.954        5.028      313.915      130.574        0.173      336.844        8.416      858.547
04/22/2014  18:32:00     -348.833     -171.269        6.506      214.663      175.832       82.792    46080.296    30916.929     6854.459       11.744        4.193      388.610       96.100        0.061      336.846        8.418      858.537
04/22/2014  18:33:00     -427.493      -91.075       -2.864      222.897      201.796       94.371    49682.881    40721.433     8905.834       14.516        4.966      437.087       95.620        0.048      336.874        8.466      858.572
04/22/2014  18:34:00     -516.636     -285.483       -6.549      310.512      206.183      127.214    96417.565    42511.285    16183.293       25.175        7.756      590.266      147.923        0.063      336.646        8.084      858.550
04/22/2014  18:35:00     -510.054     -281.816       -1.966      356.052      202.368      139.425   126773.107    40952.651    19439.291       26.333        9.358      582.731      177.055        0.092      336.585        7.982      858.553
04/22/2014  18:36:00     -476.451     -343.702      -20.127      237.781      182.705      108.538    56539.984    33381.182    11780.505       22.360        5.085      587.483      119.309        0.041      336.535        7.898      858.543
04/22/2014  18:37:00     -381.118     -253.949      -17.779      255.232      179.085      101.729    65143.520    32071.455    10348.857       15.879        5.378      457.975      126.629        0.076      336.601        8.011      858.511
04/22/2014  18:38:00     -326.244     -145.362       10.436      223.464      169.415       89.535    49936.076    28701.605     8016.512       10.715        4.333      357.163       81.331        0.052      336.743        8.247      858.535
04/22/2014  18:39:00     -531.880     -273.999      -17.550      263.433      163.468      100.132    69397.047    26721.707    10026.406       23.219        5.307      598.307      105.656        0.031      336.615        8.032      858.533
04/22/2014  18:40:00     -515.797     -202.291      -21.878      219.633      213.088       97.749    48238.565    45406.385     9554.942       20.530        5.160      554.047      104.055        0.035      336.561        7.941      858.565
04/22/2014  18:41:00     -332.961      -48.839        9.006      223.865      206.814      109.776    50115.568    42772.132    12050.827       10.911        5.247      336.524      121.964        0.131      336.657        8.105      858.563
04/22/2014  18:42:00     -185.355     -132.522       20.937      172.695      147.729       98.402    29823.459    21823.901     9682.882        5.683        3.067      227.857       97.113        0.182      336.626        8.053      858.585
04/22/2014  18:43:00     -358.725     -239.278       -3.047      209.837      174.171      111.291    44031.762    30335.376    12385.717       13.633        4.338      431.205      119.662        0.077      336.549        7.923      858.598
04/22/2014  18:44:00     -413.276     -272.465      -12.964      251.551      180.606      106.982    63278.090    32618.387    11445.143       17.625        5.367      495.009      121.970        0.061      336.519        7.872      858.576
04/22/2014  18:45:00     -480.270     -170.240      -10.108      185.161      167.824      106.040    34284.662    28164.785    11244.469       16.670        3.685      509.550      102.646        0.041      336.505        7.847      858.593
04/22/2014  18:46:00     -524.109     -155.501      -38.396      198.497      191.781       88.405    39401.029    36779.937     7815.485       19.215        4.200      546.691       78.918        0.021      336.515        7.864      858.607
04/22/2014  18:47:00     -380.874     -170.537        3.040      248.834      179.614       99.488    61918.511    32261.188     9897.832       13.910        5.204      417.310      101.079        0.059      336.525        7.881      858.593
04/22/2014  18:48:00     -605.654     -246.649      -28.321      210.826      216.162      102.625    44447.487    46725.802    10531.788       26.506        5.085      653.952       98.678        0.023      336.483        7.813      858.640
04/22/2014  18:49:00     -549.745     -169.003      -20.453      235.496      206.612       89.141    55458.261    42688.535     7946.177       21.863        5.305      575.136       83.754        0.021      336.536        7.900      858.601
04/22/2014  18:50:00     -301.112     -211.006       -5.350      267.540      192.656      105.280    71577.799    37116.405    11083.863       12.748        5.989      367.685      131.572        0.128      336.593        7.996      858.644
04/22/2014  18:51:00     -501.500     -144.434        3.318      290.197      215.214      108.536    84214.303    46317.006    11780.082       20.731        7.116      521.884      132.652        0.065      336.568        7.955      858.624
04/22/2014  18:52:00     -436.637     -153.397       -4.274      201.878      193.046       85.187    40754.535    37266.664     7256.880       14.972        4.264      462.799       85.309        0.034      336.546        7.918      858.664
04/22/2014  18:53:00     -421.928     -101.437       -8.034      226.636      191.653       96.840    51363.925    36730.785     9377.906       14.291        4.874      433.950      110.446        0.065      336.565        7.949      858.659
04/22/2014  18:54:00     -517.400      -94.401      -34.972      239.918      186.848       93.444    57560.578    34912.325     8731.859       18.950        5.060      525.942      106.581        0.041      336.534        7.897      858.637
04/22/2014  18:55:00     -476.911      -68.369      -22.906      230.124      185.414       78.614    52956.945    34378.507     6180.227       16.306        4.676      481.787       83.808        0.030      336.537        7.903      858.650
04/22/2014  18:56:00     -275.784     -150.667        0.740      187.675      139.528       77.596    35221.857    19468.182     6021.097        7.972        3.036      314.257       86.330        0.075      336.609        8.023      858.641
04/22/2014  18:57:00     -421.245     -315.796      -10.446      263.062      169.323      113.482    69201.430    28670.323    12878.250       19.399        5.538      526.474      127.808        0.059      336.471        7.790      858.586
04/22/2014  18:58:00     -238.219     -102.319        2.569      189.600      143.734       78.491    35948.155    20659.506     6160.806        6.498        3.138      259.263       80.078        0.095      336.653        8.097      858.613
04/22/2014  18:59:00     -169.917     -105.643       21.307      215.630      159.509      101.519    46496.485    25443.114    10306.121        6.135        4.112      200.080      107.414        0.288      336.592        7.996      858.588
04/22/2014  19:00:00     -165.587     -158.055       30.762      192.468      144.438       94.847    37043.868    20862.305     8996.017        6.011        3.345      228.912      102.781        0.202      336.570        7.957      858.586
04/22/2014  19:01:00     -258.609     -180.799      -14.920      169.863      163.201       78.994    28853.518    26634.714     6240.006        8.075        3.086      315.542       87.322        0.077      336.560        7.941      858.633
04/22/2014  19:02:00     -323.991     -159.412       21.163      230.777      145.989       84.747    53258.149    21312.729     7182.073       10.628        4.088      361.085       99.525        0.076      336.499        7.838      858.629
04/22/2014  19:03:00     -287.204     -152.428        0.036      209.852      177.221      105.435    44038.008    31407.277    11116.548        9.612        4.328      325.147      106.013        0.106      336.522        7.878      858.631
04/22/2014  19:04:00     -305.949     -174.402       13.709      179.804      173.778       90.574    32329.597    30198.720     8203.740        9.746        3.537      352.166       95.661        0.074      336.488        7.819      858.637
04/22/2014  19:05:00     -466.476     -221.765       -6.992      239.610      173.261       88.533    57412.821    30019.512     7838.158       18.103        4.764      516.507       97.840        0.036      336.445        7.747      858.666
04/22/2014  19:06:00     -242.151     -126.777       -1.197      197.606      141.767       92.305    39048.320    20097.995     8520.200        7.118        3.383      273.331      105.392        0.149      336.531        7.890      858.665
04/22/2014  19:07:00     -359.071     -140.001      -14.815      226.270      173.665       91.870    51198.234    30159.491     8440.180       11.926        4.490      385.399       96.422        0.063      336.537        7.903      858.684
04/22/2014  19:08:00     -368.883     -269.174       -0.403      265.593      212.893      117.968    70539.477    45323.557    13916.461       16.913        6.489      456.650      132.070        0.084      336.409        7.687      858.683
04/22/2014  19:09:00     -351.866     -204.160        3.756      188.985      188.325      101.756    35715.373    35466.492    10354.317       12.350        4.077      406.806      108.136        0.071      336.436        7.732      858.705
04/22/2014  19:10:00     -432.620      -48.087      -32.647      215.088      145.978       75.057    46262.764    21309.547     5633.485       13.186        3.660      435.284       95.999        0.049      336.458        7.769      858.714
04/22/2014  19:11:00     -414.128      -71.803      -12.176      175.078      151.575       81.359    30652.280    22974.842     6619.262       11.851        3.012      420.306       81.753        0.038      336.465        7.782      858.705
04/22/2014  19:12:00     -360.540      -71.781        6.451      203.222      185.858       93.436    41299.336    34543.107     8730.318       10.986        4.229      367.616       96.137        0.068      336.483        7.811      858.724
04/22/2014  19:13:00     -230.789     -135.943       15.305      216.759      154.255       86.837    46984.645    23794.500     7540.747        7.513        3.916      267.851       97.943        0.134      336.487        7.819      858.736
04/22/2014  19:14:00     -349.912        8.129      -17.805      165.248      110.140       72.790    27306.740    12130.777     5298.442        8.377        2.237      350.006       85.298        0.059      336.556        7.934      858.722
04/22/2014  19:15:00     -381.534      -79.275      -27.804      124.508      140.620       67.839    15502.118    19774.053     4602.080        9.624        1.994      389.683       45.672        0.014      336.426        7.715      858.724
04/22/2014  19:16:00     -463.212     -123.241       -1.871      179.347      189.280       97.731    32165.514    35826.921     9551.406       15.364        3.877      479.326       90.289        0.035      336.341        7.575      858.720
04/22/2014  19:17:00     -333.288     -123.983       -0.295      176.056      169.825       86.573    30995.792    28840.399     7494.968        9.688        3.367      355.602       88.398        0.062      336.378        7.636      858.716
04/22/2014  19:18:00     -346.136      -48.186       -1.334      184.427      100.169       74.344    34013.502    10033.753     5526.967        8.584        2.479      349.474       64.904        0.034      336.437        7.734      858.740
04/22/2014  19:19:00     -379.875      -72.875       -9.303      250.391      140.010       87.300    62695.670    19602.875     7621.364       11.979        4.496      386.802      107.442        0.077      336.396        7.665      858.752
04/22/2014  19:20:00     -666.427     -214.680      -24.165      244.622      207.197      103.628    59840.080    42930.651    10738.864       30.213        5.675      700.152      118.611        0.029      336.247        7.416      858.727
04/22/2014  19:21:00     -556.744     -110.033      -25.820      355.597      225.558      104.768   126449.030    50876.193    10976.291       25.548        9.415      567.514      131.937        0.054      336.267        7.450      858.746
04/22/2014  19:22:00     -286.946      -73.156      -16.457      217.527      164.571       88.241    47317.826    27083.774     7786.423        8.506        4.109      296.125      108.586        0.134      336.371        7.625      858.718
04/22/2014  19:23:00     -490.123      -98.279      -27.634      188.383      176.150       94.168    35488.334    31028.784     8867.548       16.300        3.769      499.880      102.911        0.042      336.295        7.497      858.763
04/22/2014  19:24:00     -485.053      -79.255      -37.075      234.117      157.388       75.746    54810.866    24771.077     5737.491       16.411        4.266      491.485       93.535        0.036      336.277        7.466      858.769
04/22/2014  19:25:00     -263.158      -13.134       11.577      155.513      150.065       83.292    24184.265    22519.518     6937.607        6.159        2.682      263.486       78.043        0.088      336.362        7.609      858.778
04/22/2014  19:26:00     -230.966     -115.947      -12.597      139.898      128.299       77.206    19571.532    16460.666     5960.805        5.446        2.100      258.436       80.112        0.096      336.385        7.648      858.792
04/22/2014  19:27:00     -451.405      -70.283      -10.441      289.155      167.252       87.835    83610.570    27973.270     7714.991       16.403        5.965      456.843      100.196        0.048      336.296        7.499      858.808
04/22/2014  19:28:00     -522.469     -146.943      -42.000      187.945      156.084       83.929    35323.157    24362.160     7044.088       18.152        3.336      542.739       80.742        0.022      336.239        7.404      858.806
04/22/2014  19:29:00     -387.060     -141.112      -10.772      301.966      194.187      108.140    91183.323    37708.554    11694.186       15.519        7.029      411.981      144.898        0.124      336.186        7.315      858.797
04/22/2014  19:30:00     -357.296      -47.918       -3.782      259.962      151.756       92.889    67580.137    23029.994     8628.301       11.458        4.962      360.494      118.916        0.109      336.252        7.427      858.821
04/22/2014  19:31:00     -317.202      -50.983       -0.390      194.325      156.031       84.224    37762.214    24345.693     7093.664        8.620        3.460      321.274       79.085        0.061      336.289        7.486      858.816
04/22/2014  19:32:00     -564.145     -111.884      -24.147      278.962      230.875      119.366    77820.019    53303.254    14248.263       23.834        7.269      575.133      132.248        0.053      336.172        7.291      858.825
04/22/2014  19:33:00     -619.721     -167.513      -13.680      326.088      198.329      101.906   106333.554    39334.392    10384.934       28.415        7.803      641.962      121.746        0.036      336.123        7.210      858.823
04/22/2014  19:34:00     -621.704      -66.569      -25.945      221.551      184.747       97.308    49084.976    34131.605     9468.866       24.213        4.634      625.257      113.067        0.033      336.113        7.194      858.834
04/22/2014  19:35:00     -417.134      -99.833      -15.000      220.268      173.405       94.516    48518.155    30069.237     8933.258       13.584        4.376      428.914       98.595        0.053      336.126        7.216      858.837
04/22/2014  19:36:00     -523.519       -4.710      -31.068      254.548      140.302       87.564    64794.926    19684.700     7667.369       18.358        4.607      523.540       99.946        0.036      336.147        7.250      858.837
04/22/2014  19:37:00     -423.179      -22.192      -19.313      171.330      146.411       80.442    29353.919    21436.073     6470.895       11.859        2.863      423.760       84.573        0.040      336.164        7.278      858.833
04/22/2014  19:38:00     -306.107      -47.575       -3.790      225.200      141.230       81.114    50715.175    19945.858     6579.453        8.659        3.862      309.782       87.979        0.081      336.180        7.306      858.840
04/22/2014  19:39:00     -391.367      -50.656      -14.931      224.470      146.146       90.973    50386.872    21358.581     8276.168       11.797        4.001      394.632      105.808        0.072      336.183        7.311      858.859
04/22/2014  19:40:00     -381.605      -62.975      -24.184      188.004      121.461       89.366    35345.450    14752.705     7986.230       10.412        2.904      386.766       85.050        0.048      336.142        7.241      858.879
04/22/2014  19:41:00     -610.668     -134.318      -42.384      220.878      202.275      100.701    48787.012    40915.187    10140.778       24.628        4.992      625.266      111.364        0.032      336.055        7.097      858.884
04/22/2014  19:42:00     -471.030     -140.390       -4.996      224.025      198.228       93.545    50187.356    39294.334     8750.638       16.990        4.912      491.506      105.510        0.046      336.075        7.132      858.862
04/22/2014  19:43:00     -374.698     -117.552       -7.481      203.984      132.704       79.577    41609.527    17610.344     6332.446       10.990        3.278      392.705       92.538        0.056      336.079        7.138      858.872
04/22/2014  19:44:00     -384.681      -84.082      -20.384      272.872      134.047       88.500    74458.894    17968.593     7832.281       12.784        5.013      393.763      125.723        0.102      336.131        7.224      858.919
04/22/2014  19:45:00     -348.943     -120.302        0.959      246.940      189.351       95.436    60979.210    35853.851     9107.947       12.107        5.297      369.098      118.022        0.102      336.090        7.155      858.889
04/22/2014  19:46:00     -307.946     -182.810        7.366      230.658      174.295      106.974    53203.050    30378.667    11443.337       11.165        4.751      358.120      124.265        0.120      336.068        7.119      858.880
04/22/2014  19:47:00     -428.799     -101.203      -27.929      207.041      209.328       82.481    42866.068    43818.303     6803.039       14.417        4.674      440.580       81.612        0.034      336.115        7.196      858.902
04/22/2014  19:48:00     -613.174     -103.818      -28.776      260.906      227.453      105.609    68071.937    51734.822    11153.267       25.925        6.548      621.901      114.722        0.034      336.025        7.048      858.909
04/22/2014  19:49:00     -467.508      -95.552      -21.163      264.548      159.059       94.463    69985.865    25299.732     8923.262       16.615        5.210      477.173      109.671        0.053      336.025        7.046      858.909
04/22/2014  19:50:00     -448.104      -63.957       -0.021      194.959      168.416       83.771    38009.041    28363.855     7017.548       13.912        3.670      452.646       94.544        0.044      336.002        7.010      858.929
04/22/2014  19:51:00     -515.985      -41.422      -25.613      241.925      141.625       95.115    58527.853    20057.745     9046.861       17.810        4.382      517.645      117.591        0.052      335.987        6.983      858.908
04/22/2014  19:52:00     -413.850      -52.358       -7.806      226.211      182.706       99.688    51171.558    33381.362     9937.615       13.426        4.725      417.149      109.939        0.069      336.043        7.075      858.888
04/22/2014  19:53:00     -369.697      -27.814       -4.043      197.799      150.251       93.006    39124.610    22575.484     8650.202       10.389        3.518      370.741       90.978        0.060      335.997        7.000      858.904
04/22/2014  19:54:00     -425.416      -13.030       -6.872      183.638      133.459       74.299    33723.053    17811.321     5520.398       11.911        2.853      425.616       80.191        0.035      336.020        7.039      858.884
04/22/2014  19:55:00     -541.532       19.201      -25.865      236.061      145.174       90.634    55724.755    21075.436     8214.477       18.964        4.251      541.872       97.825        0.033      335.968        6.952      858.873
04/22/2014  19:56:00     -319.283      -58.007       -7.786      172.863      144.702       69.977    29881.564    20938.578     4896.784        8.053        2.786      324.509       69.294        0.046      335.988        6.985      858.850
04/22/2014  19:57:00     -384.674     -102.918      -15.907      242.792      199.417       84.431    58948.059    39766.964     7128.543       13.231        5.292      398.204      102.413        0.066      335.980        6.972      858.834
04/22/2014  19:58:00     -488.013      -96.874        3.597      248.529      162.859       96.555    61766.700    26523.079     9322.918       17.256        4.881      497.535      115.576        0.054      335.956        6.931      858.812
04/22/2014  19:59:00     -313.140     -102.605      -11.923      175.535      184.118       88.425    30812.446    33899.568     7818.902        9.061        3.627      329.521       82.199        0.062      335.966        6.947      858.837
04/22/2014  20:00:00     -342.399     -166.895      -27.172      191.879      185.698       82.881    36817.479    34483.883     6869.264       11.198        3.909      380.908       74.405        0.038      335.947        6.916      858.830
04/22/2014  20:01:00     -160.530      -39.169       10.722      174.700      141.237       89.010    30520.147    19947.832     7922.703        4.289        2.920      165.239       81.545        0.244      335.974        6.962      858.826
04/22/2014  20:02:00     -181.626       20.099       24.669      226.668      163.602       93.410    51378.478    26765.716     8725.371        6.042        4.343      182.734       98.058        0.288      335.966        6.949      858.830
04/22/2014  20:03:00     -346.204      -33.193       -3.971      227.920      185.218       93.790    51947.634    34305.625     8796.577       10.799        4.752      347.791      117.598        0.114      335.932        6.891      858.816
04/22/2014  20:04:00     -283.775      -83.507        8.951      193.537      161.554       82.828    37456.652    26099.840     6860.506        7.899        3.521      295.807       98.629        0.111      335.884        6.813      858.841
04/22/2014  20:05:00     -314.069      -50.042        6.015      213.550      127.102       90.671    45603.714    16154.991     8221.253        8.557        3.499      318.031      104.394        0.108      335.886        6.816      858.843
04/22/2014  20:06:00     -471.103      -88.479      -21.239      277.229      165.829      106.209    76855.883    27499.124    11280.259       17.290        5.782      479.339      110.131        0.053      335.868        6.784      858.854
04/22/2014  20:07:00     -420.742     -127.456      -27.150      242.298      187.782       78.129    58708.201    35261.912     6104.108       14.702        5.004      439.624       89.351        0.041      335.852        6.759      858.838
04/22/2014  20:08:00     -212.782      -70.841        4.667      172.726      128.945       68.246    29834.390    16626.865     4657.577        5.071        2.556      224.264       87.808        0.153      335.903        6.845      858.869
04/22/2014  20:09:00     -364.057     -177.022      -18.317      185.637      142.940       79.991    34461.017    20431.911     6398.536       11.274        3.065      404.814       68.500        0.029      335.856        6.765      858.863
04/22/2014  20:10:00     -227.783     -122.670       -0.369      170.022      128.764       69.375    28907.546    16580.068     4812.903        5.861        2.515      258.714       74.801        0.084      335.882        6.810      858.862
04/22/2014  20:11:00     -215.771      -13.332       -2.759      156.616      143.028       75.955    24528.464    20457.023     5769.220        4.874        2.538      216.183       70.272        0.106      335.869        6.787      858.872
04/22/2014  20:12:00     -370.867      -89.758      -13.458      252.202      136.738       84.441    63605.700    18697.148     7130.201       11.759        4.472      381.574      102.463        0.072      335.844        6.744      858.874
04/22/2014  20:13:00     -258.830      -47.893       -8.962      149.623      134.229       88.270    22387.072    18017.502     7791.574        5.877        2.410      263.224       77.282        0.086      335.856        6.765      858.904
04/22/2014  20:14:00     -308.481      -23.787      -21.819      138.822      132.910       76.986    19271.549    17664.939     5926.863        6.952        2.143      309.397       52.411        0.029      335.804        6.679      858.938
04/22/2014  20:15:00     -312.802      -10.659      -26.986      132.015      105.553       64.438    17427.960    11141.503     4152.222        6.570        1.636      312.984       71.489        0.052      335.797        6.668      858.940
04/22/2014  20:16:00     -397.553       -3.180      -26.803      151.209      124.764       75.719    22864.143    15566.014     5733.376       10.146        2.208      397.565       73.999        0.035      335.774        6.629      858.992
04/22/2014  20:17:00     -305.970     -219.370      -20.575      157.199      132.255       92.797    24711.432    17491.396     8611.338        9.648        2.541      376.485       86.821        0.053      335.773        6.627      858.990
04/22/2014  20:18:00     -182.304      -83.502        3.327      171.811      115.031       77.707    29518.890    13232.132     6038.434        4.449        2.439      200.517       91.979        0.210      335.824        6.711      859.013
04/22/2014  20:19:00     -203.037      -45.078       32.686      231.795      147.396       93.898    53728.809    21725.709     8816.835        6.428        4.214      207.981       96.859        0.217      335.777        6.635      859.064
04/22/2014  20:20:00     -342.452      -48.222      -13.852      217.239      137.205       83.186    47192.592    18825.286     6919.857        9.635        3.647      345.830       98.228        0.081      335.792        6.659      859.096
04/22/2014  20:21:00     -335.624      -13.967      -10.519      192.713      136.622       74.773    37138.372    18665.567     5590.965        8.716        3.070      335.914       93.323        0.077      335.773        6.627      859.125
04/22/2014  20:22:00     -377.098       44.236      -10.727      163.355      149.928       77.465    26684.728    22478.330     6000.827        9.971        2.758      379.684       79.153        0.043      335.736        6.566      859.154
04/22/2014  20:23:00     -163.731      -92.650       -2.416      127.316      114.049       62.182    16209.353    13007.178     3866.573        3.423        1.654      188.127       69.086        0.135      335.816        6.699      859.165
04/22/2014  20:24:00     -129.412      -67.715       23.658      122.196      105.377       66.810    14931.975    11104.327     4463.584        2.619        1.525      146.057       72.376        0.246      335.775        6.630      859.180
04/22/2014  20:25:00     -245.733     -125.252      -10.973      124.502      133.009       69.173    15500.728    17691.317     4784.862        5.708        1.899      275.813       65.659        0.057      335.759        6.604      859.230
04/22/2014  20:26:00     -179.932     -104.212       14.376      169.103      106.512       72.167    28595.909    11344.883     5208.064        4.429        2.257      207.932       93.286        0.201      335.772        6.627      859.246
04/22/2014  20:27:00     -220.853     -135.305       13.537      163.703      103.957       80.840    26798.799    10807.011     6535.058        5.570        2.207      259.005       95.484        0.136      335.783        6.643      859.262
04/22/2014  20:28:00     -149.981      -99.435        2.620      130.432      120.733       64.452    17012.463    14576.351     4154.120        3.406        1.787      179.949       67.727        0.142      335.745        6.582      859.298
04/22/2014  20:29:00     -176.125      -88.222        1.892      168.592      135.165       81.596    28423.350    18269.451     6657.906        4.607        2.668      196.985       88.452        0.202      335.745        6.582      859.309
04/22/2014  20:30:00     -289.977     -143.888        2.214      181.615      137.608       66.449    32983.847    18935.859     4415.489        8.055        2.817      323.714       87.214        0.073      335.726        6.549      859.328
04/22/2014  20:31:00     -384.796     -159.054      -15.403      199.856      154.311       79.629    39942.489    23811.776     6340.763       12.184        3.505      416.373       90.210        0.047      335.687        6.484      859.334
04/22/2014  20:32:00     -350.785      -40.046       -5.975      132.577      140.065       80.827    17576.683    19618.276     6533.041        8.420        2.186      353.063       75.194        0.045      335.674        6.461      859.385
04/22/2014  20:33:00     -114.386      -12.136        6.285      104.932       76.591       47.839    11010.755     5866.237     2288.587        1.621        0.958      115.028       42.144        0.134      335.732        6.561      859.402
04/22/2014  20:34:00     -230.478      -38.351       -0.641      157.145      138.886       68.734    24694.705    19289.271     4724.349        5.164        2.435      233.647       67.501        0.083      335.719        6.537      859.432
04/22/2014  20:35:00     -176.528      -92.291        3.580      183.947      127.005       76.667    33836.617    16130.344     5877.841        4.776        2.792      199.198       82.656        0.172      335.719        6.538      859.458
04/22/2014  20:36:00     -325.007     -124.065      -19.780      154.185      114.584       65.794    23772.919    13129.419     4328.859        8.131        2.062      347.882       65.956        0.036      335.667        6.449      859.471
04/22/2014  20:37:00     -381.064      -68.966      -22.217      143.700      118.571       65.849    20649.694    14058.992     4336.130        9.474        1.952      387.254       55.177        0.020      335.660        6.440      859.505
04/22/2014  20:38:00     -157.511      -48.170        7.283      124.456      125.924       67.225    15489.277    15856.844     4519.265        3.152        1.793      164.712       67.833        0.170      335.719        6.538      859.509
04/22/2014  20:39:00     -235.973      -71.367       -3.985      160.596      113.887       58.944    25790.927    12970.217     3474.401        5.151        2.112      246.529       78.136        0.100      335.711        6.525      859.525
04/22/2014  20:40:00     -339.036      -80.005      -11.286      162.326      149.367       83.319    26349.809    22310.524     6942.119        8.853        2.780      348.348       85.657        0.060      335.650        6.421      859.540
04/22/2014  20:41:00     -193.077      -12.044       -0.128      109.702       95.969       46.614    12034.450     9210.103     2172.863        3.042        1.171      193.452       38.512        0.040      335.659        6.438      859.552
04/22/2014  20:42:00     -179.335      -13.899       -6.220      103.709       87.739       39.234    10755.515     7698.170     1539.319        2.619        1.000      179.872       35.659        0.039      335.675        6.465      859.573
04/22/2014  20:43:00     -274.779      -25.020       -9.462      103.210       77.938       54.307    10652.305     6074.393     2949.232        4.794        0.984      275.915       52.902        0.037      335.617        6.368      859.589
04/22/2014  20:44:00     -347.124      -28.495      -26.278      151.333       99.869       64.212    22901.762     9973.753     4123.182        7.949        1.850      348.292       75.539        0.047      335.621        6.372      859.591
04/22/2014  20:45:00     -219.165      -59.493      -10.504      115.642       82.917       49.847    13373.032     6875.303     2484.736        3.720        1.137      227.097       34.353        0.023      335.663        6.444      859.610
04/22/2014  20:46:00     -307.652      -57.395       -1.845      188.604      130.872       60.379    35571.519    17127.408     3645.574        7.713        2.817      312.960       79.155        0.064      335.605        6.346      859.592
04/22/2014  20:47:00     -393.469      -41.730      -24.244      213.922      124.134       69.481    45762.448    15409.343     4827.556       11.156        3.300      395.675       93.259        0.056      335.602        6.343      859.603
04/22/2014  20:48:00     -230.316      -72.739      -11.684      126.205      104.492       62.659    15927.782    10918.589     3926.126        4.462        1.539      241.530       64.185        0.071      335.632        6.393      859.624
04/22/2014  20:49:00     -463.663     -123.926      -25.229      223.015      144.619       83.145    49735.632    20914.733     6913.083       15.425        3.878      479.938       98.032        0.042      335.593        6.327      859.652
04/22/2014  20:50:00     -376.093     -143.067      -24.848      181.637      156.357       73.491    32991.854    24447.456     5400.938       11.267        3.142      402.385       87.169        0.047      335.601        6.341      859.650
04/22/2014  20:51:00     -441.794     -117.729      -28.931      114.374       98.079       59.734    13081.438     9619.534     3568.197       11.807        1.313      457.211       56.358        0.015      335.579        6.305      859.679
04/22/2014  20:52:00     -245.446     -113.756       -3.999      173.072      106.192       66.331    29954.004    11276.702     4399.852        5.941        2.282      270.525       72.236        0.071      335.590        6.323      859.696
04/22/2014  20:53:00     -200.504      -70.885       -7.123      109.971       86.585       42.980    12093.606     7496.946     1847.304        3.335        1.072      212.665       35.529        0.028      335.591        6.324      859.711
04/22/2014  20:54:00     -220.304      -37.677       -2.194      148.777      152.716       66.902    22134.566    23322.164     4475.928        4.994        2.497      223.503       75.177        0.113      335.579        6.303      859.719
04/22/2014  20:55:00     -101.021      -30.469       24.878      156.968      129.761       79.048    24639.055    16837.829     6248.629        2.973        2.386      105.516       71.125        0.454      335.605        6.347      859.713
04/22/2014  20:56:00     -215.492      -61.003       -9.155       93.119       82.493       53.634     8671.116     6805.112     2876.563        3.429        0.918      223.960       42.050        0.035      335.619        6.370      859.734
04/22/2014  20:57:00     -293.674      -65.536      -29.240      139.670       90.382       54.552    19507.686     8168.950     2975.962        6.102        1.533      300.898       57.122        0.036      335.619        6.370      859.754
04/22/2014  20:58:00     -427.883      -48.682      -35.274      119.853      130.152       61.304    14364.861    16939.524     3758.132       11.087        1.753      430.643       59.590        0.019      335.550        6.257      859.775
04/22/2014  20:59:00     -282.484       -5.666       18.690      181.016      123.114       85.778    32766.727    15157.162     7357.855        6.772        2.764      282.541       84.042        0.088      335.580        6.306      859.763
04/22/2014  21:00:00     -297.991      -81.790       -2.597      137.660      129.178       65.416    18950.365    16686.868     4279.253        6.770        1.996      309.012       67.875        0.048      335.549        6.253      859.793
04/22/2014  21:01:00     -329.051     -161.806       -3.137      206.242      132.179       79.352    42535.917    17471.320     6296.738       10.037        3.315      366.682      104.709        0.082      335.585        6.314      859.795
04/22/2014  21:02:00     -293.438     -145.583       -3.601      157.751      155.549       76.746    24885.392    24195.365     5889.892        8.113        2.749      327.567       80.864        0.061      335.552        6.259      859.796
04/22/2014  21:03:00     -227.066      -34.751       12.914      169.648      107.749       71.783    28780.299    11609.828     5152.841        4.923        2.277      229.710       85.206        0.138      335.564        6.280      859.827
04/22/2014  21:04:00     -261.695      -24.428        1.952      142.576      140.451       66.295    20327.780    19726.569     4394.967        5.676        2.222      262.832       70.900        0.073      335.554        6.261      859.836
04/22/2014  21:05:00     -261.110     -157.103        3.407      169.180      178.254       73.686    28621.760    31774.464     5429.627        7.934        3.291      304.729       92.243        0.092      335.551        6.256      859.826
04/22/2014  21:06:00     -267.905     -140.413       -8.065      137.310      115.821       80.728    18854.099    13414.456     6516.949        6.516        1.939      302.472       81.077        0.072      335.551        6.257      859.824
04/22/2014  21:07:00     -311.597      -85.537       -9.811      194.716      129.271       68.051    37914.348    16710.940     4630.938        8.187        2.963      323.124       78.426        0.059      335.526        6.216      859.849
04/22/2014  21:08:00     -291.436      -28.096      -16.918      160.065      171.191       75.507    25620.681    29306.225     5701.266        7.331        3.031      292.787       56.028        0.037      335.539        6.238      859.846
04/22/2014  21:09:00     -118.797      -77.822       -0.456       96.872      130.323       54.987     9384.184    16984.003     3023.608        2.477        1.470      142.017       42.131        0.088      335.548        6.254      859.863
04/22/2014  21:10:00     -111.273      -89.137       -3.687      129.322       91.191       57.754    16724.095     8315.766     3335.569        2.435        1.419      142.574       56.053        0.155      335.571        6.292      859.869
04/22/2014  21:11:00     -246.482      -30.481      -10.254      134.441      118.334       57.131    18074.443    14002.845     3263.915        4.856        1.767      248.360       73.673        0.088      335.499        6.170      859.878
04/22/2014  21:12:00     -167.272     -124.391        9.068      142.943      117.182       76.660    20432.675    13731.612     5876.794        4.178        2.002      208.455       67.370        0.104      335.501        6.175      859.870
04/22/2014  21:13:00     -150.471      -49.500        2.138       77.359       78.355       46.721     5984.485     6139.582     2182.897        1.970        0.715      158.404       38.628        0.059      335.506        6.183      859.870
04/22/2014  21:14:00     -118.378       -1.015        8.722       74.544       72.079       37.751     5556.782     5195.450     1425.143        1.313        0.609      118.382       37.070        0.098      335.441        6.076      859.860
04/22/2014  21:15:00     -162.833      -24.887       -8.665      119.887       62.310       41.555    14373.012     3882.565     1726.799        2.359        0.999      164.724       39.083        0.056      335.479        6.139      859.845
04/22/2014  21:16:00     -168.754      -61.957        4.022      128.349      113.711       67.885    16473.486    12930.130     4608.438        3.317        1.701      179.768       71.796        0.160      335.454        6.096      859.840
04/22/2014  21:17:00     -169.532      -45.237       -7.311      108.334       86.712       54.265    11736.238     7518.887     2944.638        2.652        1.110      175.464       50.790        0.084      335.486        6.149      859.838
04/22/2014  21:18:00     -236.828      -71.588       -2.704      158.352       89.214       54.566    25075.291     7959.121     2977.492        4.861        1.801      247.411       70.792        0.082      335.422        6.043      859.845
04/22/2014  21:19:00     -254.580        3.775       -9.675      143.320       83.879       53.684    20540.511     7035.757     2881.925        4.768        1.523      254.608       57.126        0.050      335.382        5.976      859.851
04/22/2014  21:20:00     -354.095      -56.796       -9.277      146.390      121.999       70.063    21430.083    14883.776     4908.778        8.495        2.061      358.622       77.873        0.047      335.351        5.923      859.841
04/22/2014  21:21:00     -319.831      -77.853      -16.755      120.411      129.140       64.740    14498.840    16677.120     4191.321        7.199        1.768      329.170       61.040        0.034      335.362        5.943      859.846
04/22/2014  21:22:00     -257.921     -100.558       -4.112      120.432      104.753       67.819    14503.917    10973.152     4599.361        5.336        1.504      276.831       70.701        0.065      335.351        5.925      859.858
04/22/2014  21:23:00     -283.169      -21.415       -7.036      138.437       84.849       57.693    19164.820     7199.323     3328.520        5.519        1.485      283.978       68.672        0.058      335.319        5.871      859.853
04/22/2014  21:24:00     -138.100      -34.270       21.902      157.116      110.988       62.236    24685.317    12318.385     3873.373        3.079        2.044      142.288       82.354        0.335      335.318        5.870      859.843
04/22/2014  21:25:00     -220.462      -20.613       -3.378       87.372      105.708       49.320     7633.931    11174.188     2432.459        3.514        1.062      221.424       44.152        0.040      335.327        5.883      859.850
04/22/2014  21:26:00     -213.968      -60.815        1.314      131.956       88.860       46.060    17412.340     7896.188     2121.537        3.845        1.372      222.443       42.428        0.036      335.328        5.886      859.863
04/22/2014  21:27:00     -286.890      -51.211      -16.352      128.655      126.084       65.087    16552.047    15897.240     4236.377        6.093        1.834      291.425       59.457        0.042      335.316        5.865      859.859
04/22/2014  21:28:00     -237.329      -31.268       -0.813      151.530      118.163       53.165    22961.276    13962.424     2826.532        4.852        1.988      239.380       63.247        0.070      335.329        5.887      859.864
04/22/2014  21:29:00     -294.182      -97.615       -1.959      121.005       98.807       58.162    14642.179     9762.901     3382.817        6.193        1.389      309.954       63.171        0.042      335.308        5.852      859.858
04/22/2014  21:30:00     -370.729      -55.327       -6.152      160.625       97.037       60.268    25800.435     9416.202     3632.223        8.969        1.942      374.834       67.730        0.033      335.303        5.844      859.872
04/22/2014  21:31:00     -324.138      -34.324      -20.381      100.037       94.296       45.367    10007.361     8891.705     2058.131        6.380        1.048      325.950       48.118        0.022      335.317        5.868      859.896
04/22/2014  21:32:00     -229.352       -1.612      -12.366      122.960       81.973       52.620    15119.123     6719.496     2768.914        3.868        1.230      229.358       56.342        0.060      335.323        5.878      859.895
04/22/2014  21:33:00     -277.632      -41.831      -12.450      105.590       62.890       52.711    11149.251     3955.130     2778.429        4.843        0.894      280.766       63.045        0.050      335.285        5.814      859.887
04/22/2014  21:34:00     -292.622      -33.401      -11.601      122.253      117.683       57.184    14945.680    13849.324     3270.013        5.946        1.603      294.522       60.367        0.042      335.302        5.841      859.878
04/22/2014  21:35:00     -213.462      -68.520        3.918      139.205       96.823       62.605    19378.047     9374.632     3919.362        4.147        1.634      224.190       72.647        0.105      335.316        5.866      859.860
04/22/2014  21:36:00     -253.382       -3.093       -6.241      141.475      147.608       68.206    20015.297    21788.155     4652.067        5.534        2.323      253.400       63.769        0.063      335.302        5.842      859.857
04/22/2014  21:37:00     -285.356     -101.058      -10.047      108.822      104.213       50.303    11842.155    10860.332     2530.410        5.848        1.262      302.722       52.051        0.030      335.310        5.855      859.865
04/22/2014  21:38:00     -228.390      -53.878      -11.236      138.285      119.646       71.202    19122.805    14315.184     5069.783        4.684        1.925      234.659       76.844        0.107      335.346        5.914      859.860
04/22/2014  21:39:00     -357.758      -50.691      -20.305      184.676      118.998       58.868    34105.306    14160.473     3465.482        9.134        2.587      361.332       76.046        0.044      335.334        5.895      859.868
04/22/2014  21:40:00     -168.134      -57.227       16.652      149.061       74.168       58.022    22219.259     5500.837     3366.551        3.145        1.554      177.607       74.435        0.176      335.353        5.928      859.883
04/22/2014  21:41:00     -252.040      -30.549      -15.441       85.965       60.968       47.837     7389.927     3717.134     2288.396        3.904        0.670      253.885       52.948        0.043      335.319        5.870      859.922
04/22/2014  21:42:00     -304.095      -74.497       -7.941      115.581       94.292       58.724    13359.004     8891.016     3448.480        6.189        1.285      313.087       58.044        0.034      335.316        5.864      859.962
04/22/2014  21:43:00     -243.164      -30.152        4.800      159.852       97.542       64.013    25552.769     9514.494     4097.646        4.961        1.958      245.027       64.350        0.069      335.325        5.880      859.984
04/22/2014  21:44:00     -254.961     -123.648       -6.206       99.311       72.299       46.328     9862.670     5227.171     2146.298        4.878        0.862      283.362       42.259        0.022      335.326        5.882      860.010
04/22/2014  21:45:00     -204.851      -27.021       -5.032      166.417       83.270       52.030    27694.697     6933.825     2707.111        4.002        1.867      206.625       76.640        0.138      335.332        5.892      860.025
04/22/2014  21:46:00     -189.244     -112.516       -2.034      150.338       96.724       51.698    22601.662     9355.534     2672.654        4.155        1.731      220.166       65.451        0.088      335.315        5.866      860.030
04/22/2014  21:47:00     -221.575        3.051       -4.182      130.689       88.717       48.211    17079.714     7870.672     2324.286        3.819        1.364      221.596       50.692        0.052      335.295        5.829      860.026
04/22/2014  21:48:00     -151.518      -34.405        2.313       92.968       87.500       49.393     8642.997     7656.168     2439.665        2.144        0.937      155.375       45.704        0.087      335.283        5.811      860.032
04/22/2014  21:49:00     -327.013     -111.933      -19.724      110.879       87.601       50.546    12294.042     7673.951     2554.856        7.118        1.126      345.639       42.209        0.015      335.284        5.813      860.029
04/22/2014  21:50:00     -288.398      -95.590      -10.178      102.366       87.933       48.702    10478.774     7732.183     2371.870        5.649        1.029      303.827       43.587        0.021      335.256        5.765      860.050
04/22/2014  21:51:00     -279.503      -82.806       -2.380      119.645       92.045       55.912    14314.986     8472.275     3126.154        5.544        1.296      291.511       52.604        0.033      335.244        5.745      860.057
04/22/2014  21:52:00     -255.647      -80.067        0.397      148.573       94.345       52.503    22073.935     8901.016     2756.597        5.274        1.687      267.892       63.195        0.056      335.270        5.788      860.062
04/22/2014  21:53:00     -257.292     -114.235       -4.537      138.272       90.061       58.731    19119.092     8111.038     3449.355        5.497        1.534      281.512       62.979        0.050      335.260        5.772      860.067
04/22/2014  21:54:00     -225.880      -83.279      -16.009       93.869       60.351       43.333     8811.393     3642.259     1877.782        3.627        0.717      240.743       41.451        0.030      335.242        5.742      860.070
04/22/2014  21:55:00     -270.280      -58.638       -6.067      154.478      102.553       62.364    23863.436    10517.163     3889.313        5.739        1.913      276.568       75.321        0.074      335.226        5.714      860.070
04/22/2014  21:56:00     -244.397      -62.627       -7.659      148.005      100.558       57.510    21905.525    10111.946     3307.365        4.951        1.766      252.293       73.062        0.084      335.227        5.717      860.060
04/22/2014  21:57:00     -258.080      -73.540        6.377      102.126       90.250       44.772    10429.682     8145.102     2004.543        4.631        1.029      268.353       48.925        0.033      335.221        5.706      860.056
04/22/2014  21:58:00     -261.883     -107.162        1.965      134.455       98.151       57.747    18078.155     9633.636     3334.712        5.555        1.552      282.960       62.632        0.049      335.209        5.687      860.042
04/22/2014  21:59:00     -360.765      -64.713      -24.738       91.564       96.727       46.111     8384.046     9356.020     2126.270        7.740        0.993      366.523       44.307        0.015      335.226        5.716      860.037
04/22/2014  22:00:00     -225.673      -54.819        3.930      140.650       86.046       54.402    19782.523     7403.844     2959.610        4.204        1.507      232.235       60.882        0.069      335.219        5.703      860.034
04/22/2014  22:01:00     -344.820     -125.397      -19.467      106.972      107.328       52.205    11443.030    11519.319     2725.322        8.034        1.284      366.913       43.889        0.014      335.219        5.704      860.012
04/22/2014  22:02:00     -353.939      -71.562       -8.787      148.787      115.076       59.160    22137.439    13242.391     3499.903        8.467        1.944      361.101       66.248        0.034      335.239        5.735      860.005
04/22/2014  22:03:00     -280.107      -73.035       -8.953      133.811       98.954       55.196    17905.468     9791.870     3046.569        5.730        1.537      289.472       62.782        0.047      335.235        5.729      860.001
04/22/2014  22:04:00     -159.583      -48.240        6.006      131.304       91.876       58.746    17240.791     8441.189     3451.141        2.848        1.457      166.715       57.307        0.118      335.266        5.783      859.998
04/22/2014  22:05:00     -351.498      -47.537      -22.203      115.117       95.734       49.921    13251.886     9164.938     2492.086        7.560        1.245      354.698       51.726        0.021      335.232        5.727      860.001
04/22/2014  22:06:00     -175.805        8.879       12.847      156.131      105.574       60.740    24376.750    11145.974     3689.364        3.517        1.961      176.029       77.522        0.194      335.284        5.812      859.986
04/22/2014  22:07:00     -209.441       32.754       -8.424      144.365       85.001       57.234    20841.148     7225.159     3275.703        3.817        1.567      211.987       60.710        0.082      335.260        5.772      859.978
04/22/2014  22:08:00      -86.227        5.704       -6.966       73.241       69.231       33.405     5364.295     4792.994     1115.904        0.939        0.564       86.415       21.898        0.064      335.278        5.806      859.961
04/22/2014  22:09:00     -223.481      -13.105      -16.371       82.461       57.718       44.278     6799.843     3331.419     1960.564        3.124        0.605      223.865       46.533        0.043      335.253        5.759      859.963
04/22/2014  22:10:00     -206.203        8.697      -13.647       63.682       61.069       31.272     4055.441     3729.411      977.909        2.577        0.438      206.386       24.791        0.014      335.236        5.732      859.967
04/22/2014  22:11:00     -267.681      -95.147        1.226       86.082       66.267       38.067     7410.063     4391.338     1449.093        4.698        0.663      284.089       33.169        0.014      335.189        5.654      859.956
04/22/2014  22:12:00     -248.191      -80.336       -8.728      107.700       97.568       47.036    11599.352     9519.588     2212.372        4.573        1.167      260.869       45.978        0.031      335.183        5.645      859.980
04/22/2014  22:13:00     -327.757      -37.255      -24.579       90.219      125.127       47.145     8139.523    15656.711     2222.612        6.771        1.301      329.867       41.873        0.016      335.220        5.706      859.981
04/22/2014  22:14:00     -316.299     -104.535      -14.630      118.675      153.673       55.127    14083.667    23615.270     3038.997        7.595        2.037      333.126       51.174        0.024      335.247        5.750      859.997
04/22/2014  22:15:00     -225.204      -29.881       -4.613      107.343      102.225       44.445    11522.574    10450.016     1975.364        3.778        1.197      227.178       45.451        0.040      335.253        5.759      860.027
04/22/2014  22:16:00     -188.136      -35.065        2.238       93.755      114.191       49.010     8789.910    13039.658     2401.963        3.043        1.212      191.376       54.943        0.082      335.290        5.822      860.046
04/22/2014  22:17:00      -95.670      -64.728        4.391      114.768       96.450       53.023    13171.697     9302.631     2811.472        1.932        1.264      115.510       62.880        0.296      335.313        5.861      860.064
04/22/2014  22:18:00     -283.557     -138.398      -17.128       73.543       75.071       34.248     5408.511     5635.609     1172.911        5.603        0.611      315.529       31.980        0.010      335.291        5.822      860.082
04/22/2014  22:19:00     -147.405      -57.066        4.701       81.827       65.371       44.529     6695.640     4273.410     1982.805        1.898        0.648      158.066       44.483        0.079      335.261        5.774      860.109
04/22/2014  22:20:00     -166.379      -77.301        4.887      126.889      101.973       56.684    16100.805    10398.457     3213.092        3.169        1.486      183.460       68.279        0.139      335.324        5.881      860.089
04/22/2014  22:21:00     -214.102      -88.407      -13.286       59.922       64.640       35.082     3590.673     4178.278     1230.740        3.141        0.450      231.636       26.122        0.013      335.281        5.805      860.083
04/22/2014  22:22:00     -250.450     -120.097      -10.786       90.014       78.738       45.154     8102.590     6199.672     2038.912        4.680        0.817      277.756       47.351        0.029      335.292        5.824      860.078
04/22/2014  22:23:00     -276.863      -58.049      -17.119      103.941       86.985       55.794    10803.782     7566.442     3112.992        5.090        1.074      282.883       55.753        0.039      335.284        5.811      860.076
04/22/2014  22:24:00     -229.497     -184.943       -8.101      149.276      139.683       70.817    22283.335    19511.321     5015.105        6.686        2.340      294.742       84.626        0.082      335.343        5.910      860.074
04/22/2014  22:25:00     -198.958     -114.595       -4.362      108.549       80.195       50.784    11782.796     6431.222     2579.004        3.676        1.040      229.600       54.757        0.057      335.336        5.899      860.095
04/22/2014  22:26:00     -223.587      -11.862       -1.436      103.447      108.727       60.203    10701.237    11821.552     3624.405        3.814        1.307      223.901       58.071        0.067      335.324        5.879      860.128
04/22/2014  22:27:00     -173.533      -56.765       -3.415       91.968       85.679       42.572     8458.077     7340.877     1812.376        2.548        0.881      182.581       48.417        0.070      335.324        5.880      860.167
04/22/2014  22:28:00      -76.923       -2.358        5.959       72.650       59.244       39.095     5277.967     3509.834     1528.442        0.814        0.516       76.959       38.667        0.252      335.314        5.866      860.180
04/22/2014  22:29:00     -207.590        0.265      -27.414       52.705       76.312       32.243     2777.775     5823.518     1039.588        2.674        0.482      207.590       26.369        0.016      335.319        5.872      860.188
04/22/2014  22:30:00     -132.199      -75.877        3.701       95.904       53.436       40.075     9197.580     2855.418     1606.003        1.845        0.683      152.427       47.637        0.098      335.310        5.856      860.191
04/22/2014  22:31:00     -271.324      -37.845       -9.926       84.809       70.644       41.924     7192.648     4990.528     1757.598        4.454        0.697      273.950       44.675        0.027      335.299        5.836      860.212
04/22/2014  22:32:00     -235.057      -53.538      -17.733       83.913       92.413       43.852     7041.475     8540.108     1922.984        3.797        0.875      241.077       44.249        0.034      335.316        5.864      860.227
04/22/2014  22:33:00     -263.713      -94.166        1.476      109.298      114.856       59.834    11945.975    13191.951     3580.057        5.356        1.436      280.021       56.860        0.041      335.302        5.841      860.213
04/22/2014  22:34:00     -222.043      -88.777        1.198       98.063       74.859       42.878     9616.374     5603.907     1838.527        3.712        0.853      239.133       41.723        0.030      335.292        5.824      860.205
04/22/2014  22:35:00     -185.091      -67.226      -14.864       94.768       78.117       43.038     8980.930     6102.211     1852.245        2.796        0.847      196.921       30.244        0.024      335.304        5.845      860.193
04/22/2014  22:36:00     -219.846      -70.685      -13.805       52.238       84.743       36.222     2728.766     7181.307     1312.041        3.237        0.561      230.930       23.647        0.010      335.314        5.861      860.184
04/22/2014  22:37:00     -244.631      -25.011      -10.779       80.691       94.466       53.148     6511.012     8923.732     2824.747        3.942        0.913      245.906       35.648        0.021      335.301        5.841      860.177
04/22/2014  22:38:00     -219.401      -83.535        7.850      175.348      130.930       70.660    30746.833    17142.544     4992.766        5.402        2.644      234.766      101.726        0.188      335.307        5.853      860.160
04/22/2014  22:39:00     -273.659      -92.169        2.428      148.590       94.953       58.320    22079.123     9016.001     3401.272        5.894        1.725      288.763       64.248        0.050      335.309        5.853      860.195
04/22/2014  22:40:00     -341.707      -89.716      -15.103      150.430       93.807       52.858    22629.324     8799.793     2793.989        7.963        1.711      353.289       56.958        0.026      335.291        5.822      860.220
04/22/2014  22:41:00     -284.041       -4.575      -18.912      122.999       85.404       55.058    15128.799     7293.760     3031.414        5.325        1.273      284.078       64.712        0.052      335.285        5.813      860.246
04/22/2014  22:42:00     -350.114      -73.972      -33.013      118.903      120.561       52.848    14137.995    14534.879     2792.960        8.030        1.573      357.843       43.255        0.015      335.322        5.874      860.242
04/22/2014  22:43:00     -317.262      -24.556      -42.630      103.322      112.156       51.946    10675.344    12578.907     2698.338        6.451        1.298      318.211       44.772        0.020      335.321        5.875      860.240
04/22/2014  22:44:00     -191.853        9.706       -9.594      147.774       74.273       49.273    21837.128     5516.446     2427.876        3.338        1.489      192.098       47.607        0.061      335.315        5.867      860.220
04/22/2014  22:45:00     -137.114      -33.084      -10.301       80.471       70.218       44.897     6475.656     4930.500     2015.772        1.671        0.671      141.049       49.825        0.125      335.351        5.925      860.207
04/22/2014  22:46:00     -190.740      -26.978      -12.242      101.294       78.570       47.378    10260.490     6173.317     2244.721        2.797        0.934      192.638       42.050        0.048      335.337        5.901      860.189
04/22/2014  22:47:00     -220.852      -74.362       -2.226      108.670       75.842       54.063    11809.100     5752.079     2922.834        3.739        1.024      233.035       50.751        0.047      335.298        5.836      860.191
04/22/2014  22:48:00     -179.631       52.852      -24.915       99.725      130.612       58.800     9945.165    17059.371     3457.393        3.307        1.523      187.245       50.310        0.072      335.312        5.858      860.183
04/22/2014  22:49:00     -178.740       -6.237        3.533      101.565       84.721       54.578    10315.483     7177.637     2978.724        2.623        1.024      178.849       49.853        0.078      335.307        5.851      860.178
04/22/2014  22:50:00     -316.281      -40.994       -5.022      134.511       92.611       64.026    18093.267     8576.785     4099.265        6.625        1.538      318.927       65.892        0.043      335.266        5.781      860.174
04/22/2014  22:51:00     -237.520     -114.704       -2.265       99.611       61.904       50.614     9922.315     3832.121     2561.783        4.294        0.816      263.766       53.970        0.042      335.296        5.831      860.159
04/22/2014  22:52:00     -210.010      -73.142      -29.817       82.855       80.483       45.143     6864.885     6477.496     2037.928        3.286        0.769      222.383       32.937        0.022      335.315        5.863      860.142
04/22/2014  22:53:00      -80.692      -60.705       -7.008      111.115       49.596       37.389    12346.607     2459.779     1397.947        1.322        0.810      100.977       39.322        0.152      335.319        5.873      860.131
04/22/2014  22:54:00      -38.526      -33.913        0.940       83.749       71.363       32.139     7013.974     5092.663     1032.943        0.788        0.657       51.326       44.610        0.755      335.355        5.931      860.131
04/22/2014  22:55:00     -145.908      -30.308       -0.631       92.400       54.608       39.155     8537.729     2982.046     1533.143        1.763        0.653      149.023       47.326        0.101      335.309        5.855      860.150
04/22/2014  22:56:00     -270.996      -88.243      -11.394      148.146      101.258       62.497    21947.258    10253.189     3905.831        5.872        1.805      285.001       50.675        0.032      335.286        5.815      860.125
04/22/2014  22:57:00     -210.605      -83.223      -15.993      107.597       62.290       33.460    11577.137     3880.087     1119.588        3.405        0.829      226.452       36.745        0.026      335.279        5.805      860.131
04/22/2014  22:58:00      -50.698      -56.231       -8.104       83.809       87.928       41.522     7024.019     7731.270     1724.058        1.114        0.824       75.711       15.609        0.043      335.386        5.984      860.131
04/22/2014  22:59:00     -191.293      -38.532       -2.395       87.151       62.460       40.844     7595.248     3901.301     1668.264        2.562        0.658      195.135       40.074        0.042      335.317        5.867      860.150
04/22/2014  23:00:00     -254.605       18.718      -21.577      100.022       61.421       43.244    10004.481     3772.496     1870.066        4.064        0.782      255.292       42.233        0.027      335.275        5.797      860.156
04/22/2014  23:01:00     -217.224      -14.484       -1.852      104.403       80.968       55.615    10900.003     6555.837     3092.977        3.397        1.027      217.706       61.098        0.079      335.266        5.781      860.163
04/22/2014  23:02:00     -127.003      -34.649       -8.780       69.292       42.150       35.226     4801.383     1776.629     1240.844        1.261        0.391      131.645       40.782        0.096      335.249        5.755      860.148
04/22/2014  23:03:00      -87.963      -46.798        7.297       72.511       55.731       47.545     5257.879     3105.970     2260.488        1.030        0.531       99.637       42.099        0.179      335.315        5.867      860.149
04/22/2014  23:04:00     -283.395      -90.023       -3.759      147.607       89.497       53.802    21787.857     8009.746     2894.708        6.056        1.635      297.350       61.923        0.043      335.259        5.770      860.162
04/22/2014  23:05:00     -222.286     -115.105      -13.165       80.286       90.027       42.543     6445.776     8104.940     1809.889        3.959        0.818      250.320       40.507        0.026      335.258        5.768      860.188
04/22/2014  23:06:00     -153.903      -72.539       10.337      133.127      106.956       53.406    17722.888    11439.513     2852.154        3.053        1.601      170.142       64.069        0.142      335.284        5.811      860.202
04/22/2014  23:07:00     -244.239      -67.703      -21.526       94.083       76.463       40.561     8851.688     5846.520     1645.181        4.052        0.817      253.449       45.294        0.032      335.261        5.771      860.242
04/22/2014  23:08:00      -97.302      -34.451        3.055      126.088       66.818       48.226    15898.176     4464.608     2325.720        1.667        1.134      103.221       48.835        0.224      335.358        5.935      860.234
04/22/2014  23:09:00     -236.078      -52.376      -17.000      135.975       72.855       49.454    18489.153     5307.826     2445.733        4.250        1.312      241.818       58.243        0.058      335.276        5.798      860.255
04/22/2014  23:10:00     -250.248       17.619       -6.301      155.426      117.766       60.726    24157.096    13868.788     3687.611        5.234        2.086      250.867       73.550        0.086      335.263        5.776      860.269
04/22/2014  23:11:00     -259.834      -86.864      -22.119       89.210       74.035       48.365     7958.407     5481.233     2339.142        4.566        0.789      273.969       44.587        0.026      335.265        5.780      860.274
04/22/2014  23:12:00     -247.780      -27.241      -30.688      142.227       93.068       65.231    20228.623     8661.651     4255.038        4.811        1.657      249.272       72.683        0.085      335.264        5.778      860.274
04/22/2014  23:13:00     -192.512      -52.922       -0.788      139.492       99.344       54.225    19458.103     9869.274     2940.358        3.606        1.613      199.654       70.566        0.125      335.285        5.813      860.269
04/22/2014  23:14:00     -170.361      -51.368      -10.850       84.942       79.143       45.120     7215.107     6263.610     2035.850        2.364        0.776      177.936       47.067        0.070      335.267        5.784      860.295
04/22/2014  23:15:00     -223.340       -3.572      -27.513       85.468       60.879       40.026     7304.699     3706.238     1602.046        3.163        0.631      223.369       37.486        0.028      335.251        5.756      860.285
04/22/2014  23:16:00     -162.369      -59.486       -7.513       86.138       47.928       36.289     7419.799     2297.051     1316.866        2.049        0.552      172.923       35.670        0.043      335.276        5.799      860.271
04/22/2014  23:17:00      -27.211      -42.062       25.788       78.385       52.428       40.234     6144.259     2748.670     1618.750        0.684        0.526       50.097       42.369        0.715      335.332        5.895      860.327
04/22/2014  23:18:00     -152.688      -45.591        0.798       88.390       91.787       49.600     7812.792     8424.916     2460.170        2.204        0.935      159.349       52.104        0.107      335.282        5.808      860.342
04/22/2014  23:19:00     -284.606     -110.466      -11.668       93.458       89.652       47.298     8734.474     8037.417     2237.117        5.617        0.950      305.293       42.785        0.020      335.219        5.703      860.343
04/22/2014  23:20:00     -149.837        7.093       -4.176       88.887       72.051       41.581     7900.826     5191.385     1728.952        1.867        0.741      150.005       43.963        0.086      335.255        5.763      860.335
04/22/2014  23:21:00     -102.530      -34.585        8.729      104.681       66.816       46.345    10958.204     4464.384     2147.880        1.467        0.879      108.206       57.022        0.278      335.273        5.795      860.298
04/22/2014  23:22:00      -98.254       -8.848       17.195       94.555       77.614       44.037     8940.573     6023.935     1939.266        1.346        0.845       98.652       33.233        0.113      335.289        5.822      860.269
04/22/2014  23:23:00      -80.796      -44.854        4.555      104.159       80.445       57.618    10849.117     6471.437     3319.826        1.460        1.032       92.412       52.164        0.319      335.269        5.789      860.284
04/22/2014  23:24:00     -392.267      -61.812      -30.608      115.545      114.562       64.726    13350.726    13124.401     4189.415        9.464        1.533      397.107       58.534        0.022      335.220        5.707      860.296
04/22/2014  23:25:00     -190.510      -17.837       -0.807      126.041       86.930       59.870    15886.425     7556.872     3584.448        3.181        1.351      191.343       65.321        0.117      335.229        5.722      860.318
04/22/2014  23:26:00     -223.898      -19.963      -10.913      120.563       87.758       50.146    14535.419     7701.490     2514.596        3.769        1.238      224.786       46.457        0.043      335.238        5.735      860.320
04/22/2014  23:27:00     -154.641      -69.444        8.098      133.487      116.088       64.915    17818.695    13476.351     4213.989        3.215        1.775      169.517       77.073        0.207      335.271        5.791      860.311
04/22/2014  23:28:00      -74.672      -45.354        7.582       90.341       67.751       39.320     8161.581     4590.169     1546.024        1.099        0.715       87.367       40.912        0.219      335.335        5.899      860.319
04/22/2014  23:29:00     -228.342      -23.568       -9.446       66.116       89.379       36.039     4371.332     7988.547     1298.833        3.322        0.683      229.555       33.432        0.021      335.225        5.714      860.334
04/22/2014  23:30:00     -165.798      -16.503       -9.880      100.014       54.933       31.776    10002.871     3017.626     1009.738        2.094        0.702      166.618       34.237        0.042      335.237        5.736      860.349
04/22/2014  23:31:00     -109.244      -82.141        4.954       68.364       80.856       36.001     4673.603     6537.773     1296.099        1.560        0.625      136.680       31.674        0.054      335.284        5.813      860.334
04/22/2014  23:32:00      -96.104       24.714       -6.413       74.390       56.028       39.281     5533.832     3139.176     1543.002        1.005        0.511       99.231       31.498        0.101      335.269        5.791      860.341
04/22/2014  23:33:00     -179.525      -13.199       -8.575       78.182       76.778       38.493     6112.503     5894.893     1481.701        2.298        0.674      180.009       36.503        0.041      335.222        5.709      860.349
04/22/2014  23:34:00     -102.595      -33.625      -11.197       71.304       45.274       33.662     5084.193     2049.733     1133.097        1.002        0.413      107.965       32.170        0.089      335.249        5.755      860.338
04/22/2014  23:35:00      -54.325       -1.792        2.298       56.588       53.525       22.610     3202.249     2864.933      511.203        0.477        0.329       54.355       20.143        0.137      335.256        5.768      860.338
04/22/2014  23:36:00     -148.499       -3.421      -10.048       40.393       34.972       28.014     1631.634     1223.034      784.779        1.290        0.182      148.538       20.669        0.019      335.238        5.738      860.341
04/22/2014  23:37:00     -187.919       23.612       -8.878      101.752       69.433       33.153    10353.454     4820.894     1099.139        2.611        0.814      189.397       29.590        0.024      335.227        5.717      860.341
04/22/2014  23:38:00     -312.438       45.478      -20.055      107.056       86.523       52.196    11460.884     7486.146     2724.460        6.088        1.084      315.731       56.688        0.032      335.195        5.664      860.356
04/22/2014  23:39:00     -264.356     -118.423       -5.043      109.692       76.901       45.256    12032.258     5913.747     2048.073        5.196        1.000      289.669       50.870        0.031      335.210        5.688      860.373
04/22/2014  23:40:00     -167.721      -94.399       -5.003       58.135       50.095       42.749     3379.650     2509.524     1827.441        2.239        0.386      192.462       25.971        0.018      335.229        5.722      860.373
04/22/2014  23:41:00     -185.772      -25.706      -20.828       64.772       87.696       39.738     4195.350     7690.533     1579.125        2.453        0.673      187.542       26.700        0.020      335.244        5.747      860.376
04/22/2014  23:42:00     -119.851      -63.697        8.796       91.377       83.962       49.201     8349.820     7049.641     2420.711        1.816        0.891      135.726       51.685        0.145      335.271        5.792      860.376
04/22/2014  23:43:00     -115.253       35.485       -9.925       65.084       63.161       44.463     4235.906     3989.326     1976.931        1.242        0.510      120.592       33.351        0.076      335.272        5.794      860.369
04/22/2014  23:44:00      -82.487       66.089      -11.509       40.047       46.540       22.094     1603.786     2165.992      488.166        0.778        0.213      105.697       20.355        0.037      335.292        5.828      860.376
04/22/2014  23:45:00     -119.306      105.843      -17.833       49.016       44.803       31.541     2402.560     2007.321      994.866        1.558        0.270      159.489       25.601        0.026      335.264        5.780      860.416
04/22/2014  23:46:00      -66.161      108.564      -10.617       42.195       67.214       29.256     1780.440     4517.739      855.901        1.171        0.358      127.135       24.004        0.036      335.226        5.719      860.434
04/22/2014  23:47:00     -105.754      127.171      -19.483       48.716       65.602       31.046     2373.276     4303.682      963.857        1.769        0.382      165.398       30.481        0.034      335.244        5.746      860.442
04/22/2014  23:48:00      -92.886       79.968      -19.073       41.852       55.639       20.271     1751.618     3095.713      410.925        1.032        0.263      122.567       26.671        0.047      335.265        5.783      860.458
04/22/2014  23:49:00      -15.383       20.198       -3.375       44.188       24.114       26.209     1952.601      581.490      686.925        0.194        0.161       25.388       18.602        0.537      335.314        5.863      860.460
04/22/2014  23:50:00      -38.430      -20.633        6.538       46.297       46.970       21.569     2143.405     2206.206      465.216        0.338        0.241       43.619       18.694        0.184      335.291        5.826      860.449
04/22/2014  23:51:00      -39.838      -37.801        1.318       60.422       39.500       28.349     3650.815     1560.249      803.683        0.452        0.301       54.918       30.101        0.300      335.218        5.705      860.439
04/22/2014  23:52:00      -71.803       53.974        1.458       64.959       53.877       33.245     4219.685     2902.762     1105.250        0.815        0.411       89.827       28.354        0.100      335.223        5.713      860.429
04/22/2014  23:53:00     -255.915       -1.608      -49.087      121.620      113.689       47.290    14791.483    12925.122     2236.309        4.892        1.498      255.921       46.907        0.034      335.231        5.724      860.423
04/22/2014  23:54:00     -119.863      -39.300        3.813       71.548       90.801       40.286     5119.132     8244.879     1622.994        1.545        0.749      126.141       28.678        0.052      335.208        5.687      860.412
04/22/2014  23:55:00      -94.737       24.823      -23.351       43.370       59.772       27.421     1880.977     3572.751      751.933        0.817        0.310       97.935       19.799        0.041      335.223        5.715      860.399
04/22/2014  23:56:00     -168.714      -43.778      -20.195       82.030       73.573       39.741     6729.001     5412.941     1579.345        2.225        0.686      174.301       27.961        0.026      335.247        5.751      860.398
04/22/2014  23:57:00     -111.972      -63.740       -3.475      133.154       88.061       48.064    17729.883     7754.686     2310.132        2.220        1.390      128.843       56.805        0.194      335.305        5.846      860.388
04/22/2014  23:58:00     -230.230       58.201      -26.280      104.852      143.173       48.719    10993.921    20498.529     2373.576        4.547        1.693      237.473       56.679        0.057      335.219        5.704      860.400
04/22/2014  23:59:00     -216.252      -16.067      -13.978       94.945      109.226       42.385     9014.493    11930.256     1796.469        3.498        1.137      216.848       35.545        0.027      335.233        5.727      860.404
